<?xml version='1.0' encoding='UTF-8'?>
<gpx version="1.1" creator="https://www.komoot.de" xmlns="http://www.topografix.com/GPX/1/1" xmlns:xsi="http://www.w3.org/2001/XMLSchema-instance" xsi:schemaLocation="http://www.topografix.com/GPX/1/1 http://www.topografix.com/GPX/1/1/gpx.xsd">
  <metadata>
    <name>80_870FullHottwil</name>
    <author>
      <link href="https://www.komoot.de">
        <text>komoot</text>
        <type>text/html</type>
      </link>
    </author>
  </metadata>
  <trk>
    <name>80_870FullHottwil</name>
    <trkseg>
      <trkpt lat="47.541440" lon="7.870768">
        <ele>341.118994</ele>
        <time>2021-11-21T22:18:41.934Z</time>
      </trkpt>
      <trkpt lat="47.541576" lon="7.870664">
        <ele>341.118994</ele>
        <time>2021-11-21T22:18:45.452Z</time>
      </trkpt>
      <trkpt lat="47.541796" lon="7.871042">
        <ele>341.118994</ele>
        <time>2021-11-21T22:18:52.715Z</time>
      </trkpt>
      <trkpt lat="47.541953" lon="7.871286">
        <ele>341.118994</ele>
        <time>2021-11-21T22:18:57.641Z</time>
      </trkpt>
      <trkpt lat="47.542039" lon="7.871556">
        <ele>341.197829</ele>
        <time>2021-11-21T22:19:02.121Z</time>
      </trkpt>
      <trkpt lat="47.542067" lon="7.871664">
        <ele>341.509885</ele>
        <time>2021-11-21T22:19:03.795Z</time>
      </trkpt>
      <trkpt lat="47.542091" lon="7.871721">
        <ele>341.691087</ele>
        <time>2021-11-21T22:19:04.413Z</time>
      </trkpt>
      <trkpt lat="47.542218" lon="7.871866">
        <ele>342.331775</ele>
        <time>2021-11-21T22:19:09.628Z</time>
      </trkpt>
      <trkpt lat="47.542394" lon="7.872341">
        <ele>343.793309</ele>
        <time>2021-11-21T22:19:19.855Z</time>
      </trkpt>
      <trkpt lat="47.542436" lon="7.872494">
        <ele>344.238813</ele>
        <time>2021-11-21T22:19:23.267Z</time>
      </trkpt>
      <trkpt lat="47.542537" lon="7.872430">
        <ele>344.677753</ele>
        <time>2021-11-21T22:19:25.370Z</time>
      </trkpt>
      <trkpt lat="47.542714" lon="7.872334">
        <ele>345.430909</ele>
        <time>2021-11-21T22:19:32.327Z</time>
      </trkpt>
      <trkpt lat="47.542733" lon="7.872324">
        <ele>345.511477</ele>
        <time>2021-11-21T22:19:33.038Z</time>
      </trkpt>
      <trkpt lat="47.542814" lon="7.872280">
        <ele>345.856205</ele>
        <time>2021-11-21T22:19:35.341Z</time>
      </trkpt>
      <trkpt lat="47.542919" lon="7.872226">
        <ele>346.300321</ele>
        <time>2021-11-21T22:19:39.179Z</time>
      </trkpt>
      <trkpt lat="47.543013" lon="7.872182">
        <ele>346.694223</ele>
        <time>2021-11-21T22:19:42.686Z</time>
      </trkpt>
      <trkpt lat="47.543233" lon="7.872082">
        <ele>347.613735</ele>
        <time>2021-11-21T22:19:49.924Z</time>
      </trkpt>
      <trkpt lat="47.543251" lon="7.872152">
        <ele>347.815778</ele>
        <time>2021-11-21T22:19:53.298Z</time>
      </trkpt>
      <trkpt lat="47.543332" lon="7.872237">
        <ele>348.212408</ele>
        <time>2021-11-21T22:19:56.603Z</time>
      </trkpt>
      <trkpt lat="47.544390" lon="7.872423">
        <ele>355.047154</ele>
        <time>2021-11-21T22:20:38.322Z</time>
      </trkpt>
      <trkpt lat="47.544883" lon="7.872555">
        <ele>358.288225</ele>
        <time>2021-11-21T22:21:00.731Z</time>
      </trkpt>
      <trkpt lat="47.545131" lon="7.872664">
        <ele>359.961832</ele>
        <time>2021-11-21T22:21:11.735Z</time>
      </trkpt>
      <trkpt lat="47.545375" lon="7.872836">
        <ele>361.717373</ele>
        <time>2021-11-21T22:21:22.676Z</time>
      </trkpt>
      <trkpt lat="47.545478" lon="7.872968">
        <ele>362.602185</ele>
        <time>2021-11-21T22:21:29.484Z</time>
      </trkpt>
      <trkpt lat="47.545515" lon="7.873015">
        <ele>362.918835</ele>
        <time>2021-11-21T22:21:31.440Z</time>
      </trkpt>
      <trkpt lat="47.545746" lon="7.873302">
        <ele>364.877514</ele>
        <time>2021-11-21T22:21:44.640Z</time>
      </trkpt>
      <trkpt lat="47.545934" lon="7.873549">
        <ele>366.510039</ele>
        <time>2021-11-21T22:21:54.740Z</time>
      </trkpt>
      <trkpt lat="47.546077" lon="7.873763">
        <ele>367.830591</ele>
        <time>2021-11-21T22:22:03.936Z</time>
      </trkpt>
      <trkpt lat="47.546135" lon="7.873859">
        <ele>368.395594</ele>
        <time>2021-11-21T22:22:07.175Z</time>
      </trkpt>
      <trkpt lat="47.546309" lon="7.874154">
        <ele>370.113595</ele>
        <time>2021-11-21T22:22:18.290Z</time>
      </trkpt>
      <trkpt lat="47.547126" lon="7.875801">
        <ele>375.809404</ele>
        <time>2021-11-21T22:23:04.051Z</time>
      </trkpt>
      <trkpt lat="47.547574" lon="7.876801">
        <ele>378.027405</ele>
        <time>2021-11-21T22:23:23.047Z</time>
      </trkpt>
      <trkpt lat="47.547992" lon="7.877974">
        <ele>377.120746</ele>
        <time>2021-11-21T22:23:35.848Z</time>
      </trkpt>
      <trkpt lat="47.548234" lon="7.878638">
        <ele>376.604948</ele>
        <time>2021-11-21T22:23:41.160Z</time>
      </trkpt>
      <trkpt lat="47.548422" lon="7.878959">
        <ele>376.151922</ele>
        <time>2021-11-21T22:23:44.003Z</time>
      </trkpt>
      <trkpt lat="47.548718" lon="7.879258">
        <ele>374.646526</ele>
        <time>2021-11-21T22:23:47.541Z</time>
      </trkpt>
      <trkpt lat="47.549140" lon="7.879391">
        <ele>372.833584</ele>
        <time>2021-11-21T22:23:51.728Z</time>
      </trkpt>
      <trkpt lat="47.549318" lon="7.879398">
        <ele>372.085356</ele>
        <time>2021-11-21T22:23:53.355Z</time>
      </trkpt>
      <trkpt lat="47.549327" lon="7.879547">
        <ele>371.661074</ele>
        <time>2021-11-21T22:23:54.341Z</time>
      </trkpt>
      <trkpt lat="47.549726" lon="7.880786">
        <ele>367.923051</ele>
        <time>2021-11-21T22:24:03.275Z</time>
      </trkpt>
      <trkpt lat="47.549927" lon="7.881490">
        <ele>366.079070</ele>
        <time>2021-11-21T22:24:08.307Z</time>
      </trkpt>
      <trkpt lat="47.550234" lon="7.883221">
        <ele>361.629600</ele>
        <time>2021-11-21T22:24:20.708Z</time>
      </trkpt>
      <trkpt lat="47.550332" lon="7.884727">
        <ele>357.200313</ele>
        <time>2021-11-21T22:24:30.552Z</time>
      </trkpt>
      <trkpt lat="47.550391" lon="7.885109">
        <ele>356.053095</ele>
        <time>2021-11-21T22:24:33.085Z</time>
      </trkpt>
      <trkpt lat="47.550548" lon="7.885799">
        <ele>353.718028</ele>
        <time>2021-11-21T22:24:37.692Z</time>
      </trkpt>
      <trkpt lat="47.550677" lon="7.886476">
        <ele>351.020748</ele>
        <time>2021-11-21T22:24:42.131Z</time>
      </trkpt>
      <trkpt lat="47.550758" lon="7.887295">
        <ele>347.846935</ele>
        <time>2021-11-21T22:24:47.276Z</time>
      </trkpt>
      <trkpt lat="47.550789" lon="7.887816">
        <ele>345.841528</ele>
        <time>2021-11-21T22:24:50.508Z</time>
      </trkpt>
      <trkpt lat="47.550827" lon="7.888542">
        <ele>342.916976</ele>
        <time>2021-11-21T22:24:55.046Z</time>
      </trkpt>
      <trkpt lat="47.550831" lon="7.888611">
        <ele>342.624588</ele>
        <time>2021-11-21T22:24:55.462Z</time>
      </trkpt>
      <trkpt lat="47.550833" lon="7.889069">
        <ele>340.690894</ele>
        <time>2021-11-21T22:24:58.285Z</time>
      </trkpt>
      <trkpt lat="47.550915" lon="7.890600">
        <ele>334.206769</ele>
        <time>2021-11-21T22:25:07.673Z</time>
      </trkpt>
      <trkpt lat="47.550904" lon="7.891725">
        <ele>330.738739</ele>
        <time>2021-11-21T22:25:14.661Z</time>
      </trkpt>
      <trkpt lat="47.550892" lon="7.893176">
        <ele>326.762950</ele>
        <time>2021-11-21T22:25:24.274Z</time>
      </trkpt>
      <trkpt lat="47.550908" lon="7.894308">
        <ele>325.145652</ele>
        <time>2021-11-21T22:25:33.479Z</time>
      </trkpt>
      <trkpt lat="47.550878" lon="7.895158">
        <ele>324.426655</ele>
        <time>2021-11-21T22:25:40.664Z</time>
      </trkpt>
      <trkpt lat="47.550838" lon="7.895509">
        <ele>324.125960</ele>
        <time>2021-11-21T22:25:43.828Z</time>
      </trkpt>
      <trkpt lat="47.550660" lon="7.896255">
        <ele>323.338327</ele>
        <time>2021-11-21T22:25:50.316Z</time>
      </trkpt>
      <trkpt lat="47.550639" lon="7.896345">
        <ele>323.160825</ele>
        <time>2021-11-21T22:25:51.503Z</time>
      </trkpt>
      <trkpt lat="47.550648" lon="7.896481">
        <ele>322.906105</ele>
        <time>2021-11-21T22:25:52.458Z</time>
      </trkpt>
      <trkpt lat="47.550819" lon="7.898109">
        <ele>319.834984</ele>
        <time>2021-11-21T22:26:04.206Z</time>
      </trkpt>
      <trkpt lat="47.550801" lon="7.900244">
        <ele>314.372777</ele>
        <time>2021-11-21T22:26:18.044Z</time>
      </trkpt>
      <trkpt lat="47.550769" lon="7.901362">
        <ele>311.156098</ele>
        <time>2021-11-21T22:26:25.315Z</time>
      </trkpt>
      <trkpt lat="47.550757" lon="7.901591">
        <ele>310.556862</ele>
        <time>2021-11-21T22:26:27.452Z</time>
      </trkpt>
      <trkpt lat="47.550688" lon="7.902451">
        <ele>308.418456</ele>
        <time>2021-11-21T22:26:35.886Z</time>
      </trkpt>
      <trkpt lat="47.550498" lon="7.903445">
        <ele>305.867604</ele>
        <time>2021-11-21T22:26:46.136Z</time>
      </trkpt>
      <trkpt lat="47.550302" lon="7.904164">
        <ele>303.952730</ele>
        <time>2021-11-21T22:26:53.395Z</time>
      </trkpt>
      <trkpt lat="47.550025" lon="7.904774">
        <ele>302.136359</ele>
        <time>2021-11-21T22:27:00.320Z</time>
      </trkpt>
      <trkpt lat="47.549868" lon="7.905010">
        <ele>301.317697</ele>
        <time>2021-11-21T22:27:03.452Z</time>
      </trkpt>
      <trkpt lat="47.549867" lon="7.905155">
        <ele>300.959446</ele>
        <time>2021-11-21T22:27:04.849Z</time>
      </trkpt>
      <trkpt lat="47.550067" lon="7.905245">
        <ele>300.194348</ele>
        <time>2021-11-21T22:27:07.774Z</time>
      </trkpt>
      <trkpt lat="47.550283" lon="7.905413">
        <ele>299.301385</ele>
        <time>2021-11-21T22:27:11.224Z</time>
      </trkpt>
      <trkpt lat="47.550497" lon="7.905558">
        <ele>298.440038</ele>
        <time>2021-11-21T22:27:14.583Z</time>
      </trkpt>
      <trkpt lat="47.549539" lon="7.908625">
        <ele>293.109587</ele>
        <time>2021-11-21T22:27:39.027Z</time>
      </trkpt>
      <trkpt lat="47.549520" lon="7.908678">
        <ele>293.053738</ele>
        <time>2021-11-21T22:27:39.528Z</time>
      </trkpt>
      <trkpt lat="47.549320" lon="7.909340">
        <ele>292.378765</ele>
        <time>2021-11-21T22:27:45.432Z</time>
      </trkpt>
      <trkpt lat="47.549290" lon="7.909441">
        <ele>292.276072</ele>
        <time>2021-11-21T22:27:46.344Z</time>
      </trkpt>
      <trkpt lat="47.549195" lon="7.909756">
        <ele>291.954992</ele>
        <time>2021-11-21T22:27:49.167Z</time>
      </trkpt>
      <trkpt lat="47.549102" lon="7.910058">
        <ele>291.646072</ele>
        <time>2021-11-21T22:27:51.869Z</time>
      </trkpt>
      <trkpt lat="47.549012" lon="7.910340">
        <ele>291.355775</ele>
        <time>2021-11-21T22:27:54.383Z</time>
      </trkpt>
      <trkpt lat="47.548412" lon="7.912168">
        <ele>289.807385</ele>
        <time>2021-11-21T22:28:10.712Z</time>
      </trkpt>
      <trkpt lat="47.548027" lon="7.913334">
        <ele>289.032698</ele>
        <time>2021-11-21T22:28:21.473Z</time>
      </trkpt>
      <trkpt lat="47.547994" lon="7.913433">
        <ele>289.009805</ele>
        <time>2021-11-21T22:28:22.393Z</time>
      </trkpt>
      <trkpt lat="47.547423" lon="7.915080">
        <ele>288.625918</ele>
        <time>2021-11-21T22:28:39.870Z</time>
      </trkpt>
      <trkpt lat="47.547113" lon="7.915971">
        <ele>288.735065</ele>
        <time>2021-11-21T22:28:50.317Z</time>
      </trkpt>
      <trkpt lat="47.547091" lon="7.916039">
        <ele>288.757578</ele>
        <time>2021-11-21T22:28:51.341Z</time>
      </trkpt>
      <trkpt lat="47.547032" lon="7.916218">
        <ele>288.817050</ele>
        <time>2021-11-21T22:28:53.544Z</time>
      </trkpt>
      <trkpt lat="47.546821" lon="7.916867">
        <ele>289.032116</ele>
        <time>2021-11-21T22:29:01.653Z</time>
      </trkpt>
      <trkpt lat="47.546262" lon="7.919081">
        <ele>289.684900</ele>
        <time>2021-11-21T22:29:29.165Z</time>
      </trkpt>
      <trkpt lat="47.546128" lon="7.919617">
        <ele>289.832635</ele>
        <time>2021-11-21T22:29:34.633Z</time>
      </trkpt>
      <trkpt lat="47.545973" lon="7.920313">
        <ele>290.022066</ele>
        <time>2021-11-21T22:29:43.096Z</time>
      </trkpt>
      <trkpt lat="47.545913" lon="7.920765">
        <ele>290.403303</ele>
        <time>2021-11-21T22:29:47.270Z</time>
      </trkpt>
      <trkpt lat="47.545881" lon="7.921096">
        <ele>290.697895</ele>
        <time>2021-11-21T22:29:51.286Z</time>
      </trkpt>
      <trkpt lat="47.545810" lon="7.921755">
        <ele>291.285835</ele>
        <time>2021-11-21T22:30:00.195Z</time>
      </trkpt>
      <trkpt lat="47.545778" lon="7.921947">
        <ele>291.460070</ele>
        <time>2021-11-21T22:30:03.804Z</time>
      </trkpt>
      <trkpt lat="47.545714" lon="7.922249">
        <ele>291.738943</ele>
        <time>2021-11-21T22:30:07.003Z</time>
      </trkpt>
      <trkpt lat="47.545699" lon="7.922325">
        <ele>291.808704</ele>
        <time>2021-11-21T22:30:08.200Z</time>
      </trkpt>
      <trkpt lat="47.545690" lon="7.922369">
        <ele>291.849209</ele>
        <time>2021-11-21T22:30:10.298Z</time>
      </trkpt>
      <trkpt lat="47.545641" lon="7.922610">
        <ele>292.070958</ele>
        <time>2021-11-21T22:30:12.652Z</time>
      </trkpt>
      <trkpt lat="47.545587" lon="7.922895">
        <ele>292.331754</ele>
        <time>2021-11-21T22:30:18.448Z</time>
      </trkpt>
      <trkpt lat="47.545553" lon="7.923142">
        <ele>292.856128</ele>
        <time>2021-11-21T22:30:21.095Z</time>
      </trkpt>
      <trkpt lat="47.545536" lon="7.923407">
        <ele>293.498186</ele>
        <time>2021-11-21T22:30:26.985Z</time>
      </trkpt>
      <trkpt lat="47.545521" lon="7.923709">
        <ele>294.228577</ele>
        <time>2021-11-21T22:30:31.138Z</time>
      </trkpt>
      <trkpt lat="47.545481" lon="7.924396">
        <ele>295.891769</ele>
        <time>2021-11-21T22:30:45.741Z</time>
      </trkpt>
      <trkpt lat="47.545466" lon="7.924880">
        <ele>297.060405</ele>
        <time>2021-11-21T22:30:57.048Z</time>
      </trkpt>
      <trkpt lat="47.545446" lon="7.925350">
        <ele>298.196293</ele>
        <time>2021-11-21T22:31:07.423Z</time>
      </trkpt>
      <trkpt lat="47.545417" lon="7.925848">
        <ele>299.180972</ele>
        <time>2021-11-21T22:31:17.902Z</time>
      </trkpt>
      <trkpt lat="47.545409" lon="7.926773">
        <ele>300.583580</ele>
        <time>2021-11-21T22:31:35.103Z</time>
      </trkpt>
      <trkpt lat="47.545407" lon="7.927001">
        <ele>300.929305</ele>
        <time>2021-11-21T22:31:38.912Z</time>
      </trkpt>
      <trkpt lat="47.545406" lon="7.927306">
        <ele>301.391754</ele>
        <time>2021-11-21T22:31:43.516Z</time>
      </trkpt>
      <trkpt lat="47.545421" lon="7.927686">
        <ele>301.968897</ele>
        <time>2021-11-21T22:31:49.052Z</time>
      </trkpt>
      <trkpt lat="47.545475" lon="7.928419">
        <ele>302.695544</ele>
        <time>2021-11-21T22:31:58.369Z</time>
      </trkpt>
      <trkpt lat="47.545563" lon="7.929641">
        <ele>301.517498</ele>
        <time>2021-11-21T22:32:08.249Z</time>
      </trkpt>
      <trkpt lat="47.545661" lon="7.930955">
        <ele>300.256355</ele>
        <time>2021-11-21T22:32:17.645Z</time>
      </trkpt>
      <trkpt lat="47.545696" lon="7.931497">
        <ele>299.809307</ele>
        <time>2021-11-21T22:32:21.613Z</time>
      </trkpt>
      <trkpt lat="47.545721" lon="7.931992">
        <ele>299.401745</ele>
        <time>2021-11-21T22:32:25.406Z</time>
      </trkpt>
      <trkpt lat="47.545724" lon="7.932758">
        <ele>298.772800</ele>
        <time>2021-11-21T22:32:31.616Z</time>
      </trkpt>
      <trkpt lat="47.545702" lon="7.933290">
        <ele>298.335176</ele>
        <time>2021-11-21T22:32:36.258Z</time>
      </trkpt>
      <trkpt lat="47.545674" lon="7.933625">
        <ele>298.141412</ele>
        <time>2021-11-21T22:32:39.459Z</time>
      </trkpt>
      <trkpt lat="47.545457" lon="7.935110">
        <ele>299.109281</ele>
        <time>2021-11-21T22:32:57.601Z</time>
      </trkpt>
      <trkpt lat="47.545074" lon="7.936484">
        <ele>300.267623</ele>
        <time>2021-11-21T22:33:19.121Z</time>
      </trkpt>
      <trkpt lat="47.545000" lon="7.936672">
        <ele>300.521703</ele>
        <time>2021-11-21T22:33:22.312Z</time>
      </trkpt>
      <trkpt lat="47.544903" lon="7.936917">
        <ele>300.853310</ele>
        <time>2021-11-21T22:33:26.437Z</time>
      </trkpt>
      <trkpt lat="47.544705" lon="7.937395">
        <ele>301.508071</ele>
        <time>2021-11-21T22:33:34.621Z</time>
      </trkpt>
      <trkpt lat="47.544472" lon="7.937932">
        <ele>302.253368</ele>
        <time>2021-11-21T22:33:44.035Z</time>
      </trkpt>
      <trkpt lat="47.543826" lon="7.939433">
        <ele>304.284979</ele>
        <time>2021-11-21T22:34:10.704Z</time>
      </trkpt>
      <trkpt lat="47.543435" lon="7.940670">
        <ele>305.827182</ele>
        <time>2021-11-21T22:34:30.540Z</time>
      </trkpt>
      <trkpt lat="47.543190" lon="7.942046">
        <ele>306.404934</ele>
        <time>2021-11-21T22:34:49.110Z</time>
      </trkpt>
      <trkpt lat="47.543161" lon="7.942213">
        <ele>306.467144</ele>
        <time>2021-11-21T22:34:51.390Z</time>
      </trkpt>
      <trkpt lat="47.543007" lon="7.943867">
        <ele>306.400324</ele>
        <time>2021-11-21T22:35:07.006Z</time>
      </trkpt>
      <trkpt lat="47.542913" lon="7.945267">
        <ele>305.086399</ele>
        <time>2021-11-21T22:35:17.984Z</time>
      </trkpt>
      <trkpt lat="47.542872" lon="7.945781">
        <ele>304.603030</ele>
        <time>2021-11-21T22:35:21.800Z</time>
      </trkpt>
      <trkpt lat="47.542875" lon="7.946089">
        <ele>304.304674</ele>
        <time>2021-11-21T22:35:24.035Z</time>
      </trkpt>
      <trkpt lat="47.542902" lon="7.946514">
        <ele>303.852287</ele>
        <time>2021-11-21T22:35:27.129Z</time>
      </trkpt>
      <trkpt lat="47.542943" lon="7.946806">
        <ele>303.536215</ele>
        <time>2021-11-21T22:35:29.340Z</time>
      </trkpt>
      <trkpt lat="47.542974" lon="7.946965">
        <ele>303.360826</ele>
        <time>2021-11-21T22:35:30.648Z</time>
      </trkpt>
      <trkpt lat="47.542979" lon="7.946989">
        <ele>303.334209</ele>
        <time>2021-11-21T22:35:30.804Z</time>
      </trkpt>
      <trkpt lat="47.542989" lon="7.947104">
        <ele>303.211330</ele>
        <time>2021-11-21T22:35:31.675Z</time>
      </trkpt>
      <trkpt lat="47.542984" lon="7.947304">
        <ele>302.999234</ele>
        <time>2021-11-21T22:35:33.250Z</time>
      </trkpt>
      <trkpt lat="47.542979" lon="7.947370">
        <ele>302.928851</ele>
        <time>2021-11-21T22:35:33.752Z</time>
      </trkpt>
      <trkpt lat="47.542935" lon="7.947564">
        <ele>302.711964</ele>
        <time>2021-11-21T22:35:35.319Z</time>
      </trkpt>
      <trkpt lat="47.542892" lon="7.947789">
        <ele>302.464147</ele>
        <time>2021-11-21T22:35:37.237Z</time>
      </trkpt>
      <trkpt lat="47.542875" lon="7.948001">
        <ele>302.237899</ele>
        <time>2021-11-21T22:35:39.053Z</time>
      </trkpt>
      <trkpt lat="47.542838" lon="7.948225">
        <ele>301.993510</ele>
        <time>2021-11-21T22:35:40.837Z</time>
      </trkpt>
      <trkpt lat="47.542826" lon="7.948298">
        <ele>301.913887</ele>
        <time>2021-11-21T22:35:41.459Z</time>
      </trkpt>
      <trkpt lat="47.542719" lon="7.949175">
        <ele>301.388030</ele>
        <time>2021-11-21T22:35:48.684Z</time>
      </trkpt>
      <trkpt lat="47.542609" lon="7.949914">
        <ele>301.144204</ele>
        <time>2021-11-21T22:35:55.457Z</time>
      </trkpt>
      <trkpt lat="47.542560" lon="7.950202">
        <ele>301.048508</ele>
        <time>2021-11-21T22:35:58.326Z</time>
      </trkpt>
      <trkpt lat="47.542554" lon="7.950231">
        <ele>301.038735</ele>
        <time>2021-11-21T22:35:58.601Z</time>
      </trkpt>
      <trkpt lat="47.542546" lon="7.950274">
        <ele>301.024364</ele>
        <time>2021-11-21T22:35:59.007Z</time>
      </trkpt>
      <trkpt lat="47.542444" lon="7.950687">
        <ele>300.882668</ele>
        <time>2021-11-21T22:36:03.469Z</time>
      </trkpt>
      <trkpt lat="47.542357" lon="7.951037">
        <ele>300.762495</ele>
        <time>2021-11-21T22:36:07.113Z</time>
      </trkpt>
      <trkpt lat="47.542192" lon="7.951713">
        <ele>300.616010</ele>
        <time>2021-11-21T22:36:14.061Z</time>
      </trkpt>
      <trkpt lat="47.542169" lon="7.951815">
        <ele>300.597610</ele>
        <time>2021-11-21T22:36:14.988Z</time>
      </trkpt>
      <trkpt lat="47.541991" lon="7.952667">
        <ele>300.445014</ele>
        <time>2021-11-21T22:36:23.270Z</time>
      </trkpt>
      <trkpt lat="47.541791" lon="7.953601">
        <ele>300.277361</ele>
        <time>2021-11-21T22:36:32.321Z</time>
      </trkpt>
      <trkpt lat="47.541773" lon="7.953695">
        <ele>300.260643</ele>
        <time>2021-11-21T22:36:33.257Z</time>
      </trkpt>
      <trkpt lat="47.541735" lon="7.953892">
        <ele>300.349961</ele>
        <time>2021-11-21T22:36:35.140Z</time>
      </trkpt>
      <trkpt lat="47.541660" lon="7.954250">
        <ele>300.543752</ele>
        <time>2021-11-21T22:36:38.898Z</time>
      </trkpt>
      <trkpt lat="47.541530" lon="7.954936">
        <ele>300.912118</ele>
        <time>2021-11-21T22:36:46.119Z</time>
      </trkpt>
      <trkpt lat="47.541482" lon="7.955294">
        <ele>301.100817</ele>
        <time>2021-11-21T22:36:50.168Z</time>
      </trkpt>
      <trkpt lat="47.541465" lon="7.955512">
        <ele>301.214271</ele>
        <time>2021-11-21T22:36:52.503Z</time>
      </trkpt>
      <trkpt lat="47.541442" lon="7.955866">
        <ele>301.398132</ele>
        <time>2021-11-21T22:36:57.796Z</time>
      </trkpt>
      <trkpt lat="47.541410" lon="7.956569">
        <ele>302.162233</ele>
        <time>2021-11-21T22:37:09.096Z</time>
      </trkpt>
      <trkpt lat="47.541404" lon="7.956677">
        <ele>302.392718</ele>
        <time>2021-11-21T22:37:11.202Z</time>
      </trkpt>
      <trkpt lat="47.541280" lon="7.957569">
        <ele>304.329758</ele>
        <time>2021-11-21T22:37:26.850Z</time>
      </trkpt>
      <trkpt lat="47.541237" lon="7.957756">
        <ele>304.749937</ele>
        <time>2021-11-21T22:37:31.197Z</time>
      </trkpt>
      <trkpt lat="47.541141" lon="7.958127">
        <ele>305.595019</ele>
        <time>2021-11-21T22:37:38.749Z</time>
      </trkpt>
      <trkpt lat="47.540957" lon="7.959132">
        <ele>307.782578</ele>
        <time>2021-11-21T22:38:00.191Z</time>
      </trkpt>
      <trkpt lat="47.540954" lon="7.959705">
        <ele>308.936085</ele>
        <time>2021-11-21T22:38:11.618Z</time>
      </trkpt>
      <trkpt lat="47.540979" lon="7.959950">
        <ele>309.434882</ele>
        <time>2021-11-21T22:38:17.068Z</time>
      </trkpt>
      <trkpt lat="47.541002" lon="7.960092">
        <ele>309.728847</ele>
        <time>2021-11-21T22:38:19.662Z</time>
      </trkpt>
      <trkpt lat="47.541060" lon="7.960321">
        <ele>310.221210</ele>
        <time>2021-11-21T22:38:24.384Z</time>
      </trkpt>
      <trkpt lat="47.541153" lon="7.960814">
        <ele>311.251656</ele>
        <time>2021-11-21T22:38:32.953Z</time>
      </trkpt>
      <trkpt lat="47.541242" lon="7.961294">
        <ele>312.253696</ele>
        <time>2021-11-21T22:38:40.912Z</time>
      </trkpt>
      <trkpt lat="47.541316" lon="7.962197">
        <ele>313.180642</ele>
        <time>2021-11-21T22:38:54.027Z</time>
      </trkpt>
      <trkpt lat="47.541314" lon="7.962377">
        <ele>313.312313</ele>
        <time>2021-11-21T22:38:56.669Z</time>
      </trkpt>
      <trkpt lat="47.541308" lon="7.962513">
        <ele>313.411997</ele>
        <time>2021-11-21T22:38:58.019Z</time>
      </trkpt>
      <trkpt lat="47.541293" lon="7.962730">
        <ele>313.571543</ele>
        <time>2021-11-21T22:39:00.381Z</time>
      </trkpt>
      <trkpt lat="47.541258" lon="7.962975">
        <ele>313.754707</ele>
        <time>2021-11-21T22:39:03.772Z</time>
      </trkpt>
      <trkpt lat="47.541217" lon="7.963187">
        <ele>313.916004</ele>
        <time>2021-11-21T22:39:05.829Z</time>
      </trkpt>
      <trkpt lat="47.541123" lon="7.963520">
        <ele>314.180000</ele>
        <time>2021-11-21T22:39:10.611Z</time>
      </trkpt>
      <trkpt lat="47.541019" lon="7.963815">
        <ele>314.423418</ele>
        <time>2021-11-21T22:39:14.868Z</time>
      </trkpt>
      <trkpt lat="47.541129" lon="7.964008">
        <ele>314.608165</ele>
        <time>2021-11-21T22:39:17.601Z</time>
      </trkpt>
      <trkpt lat="47.541169" lon="7.964123">
        <ele>314.681702</ele>
        <time>2021-11-21T22:39:18.767Z</time>
      </trkpt>
      <trkpt lat="47.541095" lon="7.964204">
        <ele>314.757871</ele>
        <time>2021-11-21T22:39:21.166Z</time>
      </trkpt>
      <trkpt lat="47.540896" lon="7.964711">
        <ele>315.085613</ele>
        <time>2021-11-21T22:39:28.194Z</time>
      </trkpt>
      <trkpt lat="47.540214" lon="7.967628">
        <ele>317.198785</ele>
        <time>2021-11-21T22:40:06.041Z</time>
      </trkpt>
      <trkpt lat="47.539783" lon="7.969587">
        <ele>319.413683</ele>
        <time>2021-11-21T22:40:35.740Z</time>
      </trkpt>
      <trkpt lat="47.539262" lon="7.971768">
        <ele>322.941532</ele>
        <time>2021-11-21T22:41:14.691Z</time>
      </trkpt>
      <trkpt lat="47.538706" lon="7.974459">
        <ele>327.279528</ele>
        <time>2021-11-21T22:42:00.488Z</time>
      </trkpt>
      <trkpt lat="47.538242" lon="7.976347">
        <ele>330.033182</ele>
        <time>2021-11-21T22:42:31.306Z</time>
      </trkpt>
      <trkpt lat="47.538107" lon="7.977240">
        <ele>330.853380</ele>
        <time>2021-11-21T22:42:44.999Z</time>
      </trkpt>
      <trkpt lat="47.537955" lon="7.978125">
        <ele>331.556554</ele>
        <time>2021-11-21T22:42:58.543Z</time>
      </trkpt>
      <trkpt lat="47.537583" lon="7.979760">
        <ele>331.497633</ele>
        <time>2021-11-21T22:43:16.841Z</time>
      </trkpt>
      <trkpt lat="47.537461" lon="7.980118">
        <ele>331.008124</ele>
        <time>2021-11-21T22:43:19.849Z</time>
      </trkpt>
      <trkpt lat="47.537107" lon="7.981082">
        <ele>329.668603</ele>
        <time>2021-11-21T22:43:27.660Z</time>
      </trkpt>
      <trkpt lat="47.536959" lon="7.981602">
        <ele>328.926254</ele>
        <time>2021-11-21T22:43:31.499Z</time>
      </trkpt>
      <trkpt lat="47.536896" lon="7.981697">
        <ele>328.689093</ele>
        <time>2021-11-21T22:43:32.426Z</time>
      </trkpt>
      <trkpt lat="47.536842" lon="7.981878">
        <ele>328.336668</ele>
        <time>2021-11-21T22:43:33.761Z</time>
      </trkpt>
      <trkpt lat="47.536775" lon="7.982096">
        <ele>327.910082</ele>
        <time>2021-11-21T22:43:35.365Z</time>
      </trkpt>
      <trkpt lat="47.536764" lon="7.982225">
        <ele>327.678513</ele>
        <time>2021-11-21T22:43:36.259Z</time>
      </trkpt>
      <trkpt lat="47.536530" lon="7.982859">
        <ele>326.391665</ele>
        <time>2021-11-21T22:43:41.181Z</time>
      </trkpt>
      <trkpt lat="47.536410" lon="7.983244">
        <ele>325.636447</ele>
        <time>2021-11-21T22:43:44.165Z</time>
      </trkpt>
      <trkpt lat="47.536199" lon="7.983737">
        <ele>324.596861</ele>
        <time>2021-11-21T22:43:48.454Z</time>
      </trkpt>
      <trkpt lat="47.536026" lon="7.984206">
        <ele>324.290150</ele>
        <time>2021-11-21T22:43:52.753Z</time>
      </trkpt>
      <trkpt lat="47.535614" lon="7.985212">
        <ele>324.108119</ele>
        <time>2021-11-21T22:44:03.691Z</time>
      </trkpt>
      <trkpt lat="47.535270" lon="7.985985">
        <ele>323.964888</ele>
        <time>2021-11-21T22:44:13.913Z</time>
      </trkpt>
      <trkpt lat="47.534974" lon="7.986602">
        <ele>324.665406</ele>
        <time>2021-11-21T22:44:22.989Z</time>
      </trkpt>
      <trkpt lat="47.534590" lon="7.987330">
        <ele>325.798640</ele>
        <time>2021-11-21T22:44:36.681Z</time>
      </trkpt>
      <trkpt lat="47.534466" lon="7.987626">
        <ele>326.225948</ele>
        <time>2021-11-21T22:44:42.556Z</time>
      </trkpt>
      <trkpt lat="47.534363" lon="7.987895">
        <ele>326.605293</ele>
        <time>2021-11-21T22:44:48.017Z</time>
      </trkpt>
      <trkpt lat="47.534280" lon="7.987862">
        <ele>326.761433</ele>
        <time>2021-11-21T22:44:50.257Z</time>
      </trkpt>
      <trkpt lat="47.534072" lon="7.987749">
        <ele>327.163964</ele>
        <time>2021-11-21T22:44:56.091Z</time>
      </trkpt>
      <trkpt lat="47.533728" lon="7.987557">
        <ele>327.909782</ele>
        <time>2021-11-21T22:45:05.279Z</time>
      </trkpt>
      <trkpt lat="47.533509" lon="7.987411">
        <ele>328.400553</ele>
        <time>2021-11-21T22:45:10.194Z</time>
      </trkpt>
      <trkpt lat="47.533195" lon="7.987215">
        <ele>329.096869</ele>
        <time>2021-11-21T22:45:18.602Z</time>
      </trkpt>
      <trkpt lat="47.533142" lon="7.987165">
        <ele>329.225279</ele>
        <time>2021-11-21T22:45:19.533Z</time>
      </trkpt>
      <trkpt lat="47.533114" lon="7.987128">
        <ele>329.301960</ele>
        <time>2021-11-21T22:45:20.833Z</time>
      </trkpt>
      <trkpt lat="47.532879" lon="7.987447">
        <ele>329.953363</ele>
        <time>2021-11-21T22:45:28.168Z</time>
      </trkpt>
      <trkpt lat="47.532716" lon="7.987667">
        <ele>330.404012</ele>
        <time>2021-11-21T22:45:34.030Z</time>
      </trkpt>
      <trkpt lat="47.532621" lon="7.987826">
        <ele>330.696950</ele>
        <time>2021-11-21T22:45:36.171Z</time>
      </trkpt>
      <trkpt lat="47.532544" lon="7.987973">
        <ele>330.877273</ele>
        <time>2021-11-21T22:45:40.427Z</time>
      </trkpt>
      <trkpt lat="47.532464" lon="7.988171">
        <ele>330.852334</ele>
        <time>2021-11-21T22:45:42.527Z</time>
      </trkpt>
      <trkpt lat="47.532401" lon="7.988331">
        <ele>330.832315</ele>
        <time>2021-11-21T22:45:44.561Z</time>
      </trkpt>
      <trkpt lat="47.532373" lon="7.988399">
        <ele>330.823707</ele>
        <time>2021-11-21T22:45:46.893Z</time>
      </trkpt>
      <trkpt lat="47.532299" lon="7.988577">
        <ele>330.801114</ele>
        <time>2021-11-21T22:45:48.534Z</time>
      </trkpt>
      <trkpt lat="47.532014" lon="7.989225">
        <ele>330.717528</ele>
        <time>2021-11-21T22:45:55.080Z</time>
      </trkpt>
      <trkpt lat="47.531897" lon="7.989450">
        <ele>330.686833</ele>
        <time>2021-11-21T22:45:57.989Z</time>
      </trkpt>
      <trkpt lat="47.531823" lon="7.989607">
        <ele>330.666138</ele>
        <time>2021-11-21T22:45:59.352Z</time>
      </trkpt>
      <trkpt lat="47.531667" lon="7.989873">
        <ele>330.628057</ele>
        <time>2021-11-21T22:46:02.501Z</time>
      </trkpt>
      <trkpt lat="47.531363" lon="7.990436">
        <ele>330.473596</ele>
        <time>2021-11-21T22:46:08.424Z</time>
      </trkpt>
      <trkpt lat="47.530979" lon="7.991211">
        <ele>330.191999</ele>
        <time>2021-11-21T22:46:16.872Z</time>
      </trkpt>
      <trkpt lat="47.530933" lon="7.991310">
        <ele>330.156795</ele>
        <time>2021-11-21T22:46:17.857Z</time>
      </trkpt>
      <trkpt lat="47.530776" lon="7.991586">
        <ele>330.051075</ele>
        <time>2021-11-21T22:46:21.374Z</time>
      </trkpt>
      <trkpt lat="47.530495" lon="7.992103">
        <ele>329.856653</ele>
        <time>2021-11-21T22:46:27.302Z</time>
      </trkpt>
      <trkpt lat="47.530141" lon="7.992757">
        <ele>330.924849</ele>
        <time>2021-11-21T22:46:35.977Z</time>
      </trkpt>
      <trkpt lat="47.529350" lon="7.994228">
        <ele>333.931470</ele>
        <time>2021-11-21T22:47:11.882Z</time>
      </trkpt>
      <trkpt lat="47.529261" lon="7.994394">
        <ele>334.241469</ele>
        <time>2021-11-21T22:47:16.032Z</time>
      </trkpt>
      <trkpt lat="47.529180" lon="7.994531">
        <ele>334.489845</ele>
        <time>2021-11-21T22:47:19.494Z</time>
      </trkpt>
      <trkpt lat="47.528851" lon="7.994185">
        <ele>335.304956</ele>
        <time>2021-11-21T22:47:33.019Z</time>
      </trkpt>
      <trkpt lat="47.528522" lon="7.994788">
        <ele>336.362385</ele>
        <time>2021-11-21T22:47:49.507Z</time>
      </trkpt>
      <trkpt lat="47.527390" lon="7.996879">
        <ele>337.720054</ele>
        <time>2021-11-21T22:48:27.528Z</time>
      </trkpt>
      <trkpt lat="47.527239" lon="7.997118">
        <ele>337.722584</ele>
        <time>2021-11-21T22:48:31.208Z</time>
      </trkpt>
      <trkpt lat="47.527061" lon="7.997361">
        <ele>337.725354</ele>
        <time>2021-11-21T22:48:35.942Z</time>
      </trkpt>
      <trkpt lat="47.527005" lon="7.997436">
        <ele>337.726219</ele>
        <time>2021-11-21T22:48:37.308Z</time>
      </trkpt>
      <trkpt lat="47.526659" lon="7.997896">
        <ele>337.981869</ele>
        <time>2021-11-21T22:48:46.712Z</time>
      </trkpt>
      <trkpt lat="47.526462" lon="7.998465">
        <ele>338.296530</ele>
        <time>2021-11-21T22:48:56.315Z</time>
      </trkpt>
      <trkpt lat="47.526232" lon="7.998874">
        <ele>338.558452</ele>
        <time>2021-11-21T22:49:04.480Z</time>
      </trkpt>
      <trkpt lat="47.522812" lon="8.002772">
        <ele>344.787228</ele>
        <time>2021-11-21T22:50:58.363Z</time>
      </trkpt>
      <trkpt lat="47.522593" lon="8.003040">
        <ele>345.177667</ele>
        <time>2021-11-21T22:51:06.625Z</time>
      </trkpt>
      <trkpt lat="47.522286" lon="8.003405">
        <ele>345.718731</ele>
        <time>2021-11-21T22:51:17.925Z</time>
      </trkpt>
      <trkpt lat="47.521941" lon="8.003805">
        <ele>346.320899</ele>
        <time>2021-11-21T22:51:29.219Z</time>
      </trkpt>
      <trkpt lat="47.521691" lon="8.004044">
        <ele>346.729849</ele>
        <time>2021-11-21T22:51:36.935Z</time>
      </trkpt>
      <trkpt lat="47.521488" lon="8.004236">
        <ele>347.060880</ele>
        <time>2021-11-21T22:51:42.281Z</time>
      </trkpt>
      <trkpt lat="47.521214" lon="8.004538">
        <ele>346.949484</ele>
        <time>2021-11-21T22:51:50.127Z</time>
      </trkpt>
      <trkpt lat="47.521327" lon="8.004951">
        <ele>346.683631</ele>
        <time>2021-11-21T22:51:56.073Z</time>
      </trkpt>
      <trkpt lat="47.521277" lon="8.005104">
        <ele>346.582224</ele>
        <time>2021-11-21T22:51:58.207Z</time>
      </trkpt>
      <trkpt lat="47.520956" lon="8.005345">
        <ele>346.264271</ele>
        <time>2021-11-21T22:52:04.468Z</time>
      </trkpt>
      <trkpt lat="47.518926" lon="8.007732">
        <ele>342.218220</ele>
        <time>2021-11-21T22:52:45.444Z</time>
      </trkpt>
      <trkpt lat="47.518239" lon="8.008485">
        <ele>341.309711</ele>
        <time>2021-11-21T22:53:00.140Z</time>
      </trkpt>
      <trkpt lat="47.517851" lon="8.008946">
        <ele>340.780948</ele>
        <time>2021-11-21T22:53:08.907Z</time>
      </trkpt>
      <trkpt lat="47.517791" lon="8.009018">
        <ele>340.698859</ele>
        <time>2021-11-21T22:53:10.168Z</time>
      </trkpt>
      <trkpt lat="47.517615" lon="8.009232">
        <ele>340.456796</ele>
        <time>2021-11-21T22:53:14.258Z</time>
      </trkpt>
      <trkpt lat="47.517564" lon="8.009350">
        <ele>340.356229</ele>
        <time>2021-11-21T22:53:15.954Z</time>
      </trkpt>
      <trkpt lat="47.517508" lon="8.009440">
        <ele>340.300959</ele>
        <time>2021-11-21T22:53:17.515Z</time>
      </trkpt>
      <trkpt lat="47.517573" lon="8.009513">
        <ele>340.256044</ele>
        <time>2021-11-21T22:53:18.831Z</time>
      </trkpt>
      <trkpt lat="47.517600" lon="8.009557">
        <ele>340.233939</ele>
        <time>2021-11-21T22:53:19.580Z</time>
      </trkpt>
      <trkpt lat="47.517931" lon="8.010095">
        <ele>339.963337</ele>
        <time>2021-11-21T22:53:29.039Z</time>
      </trkpt>
      <trkpt lat="47.517926" lon="8.010148">
        <ele>339.943439</ele>
        <time>2021-11-21T22:53:29.592Z</time>
      </trkpt>
      <trkpt lat="47.517876" lon="8.010233">
        <ele>339.901527</ele>
        <time>2021-11-21T22:53:31.218Z</time>
      </trkpt>
      <trkpt lat="47.517619" lon="8.010643">
        <ele>339.693536</ele>
        <time>2021-11-21T22:53:38.189Z</time>
      </trkpt>
      <trkpt lat="47.517648" lon="8.010855">
        <ele>339.613109</ele>
        <time>2021-11-21T22:53:40.811Z</time>
      </trkpt>
      <trkpt lat="47.517797" lon="8.011090">
        <ele>339.493257</ele>
        <time>2021-11-21T22:53:44.749Z</time>
      </trkpt>
      <trkpt lat="47.517842" lon="8.011140">
        <ele>339.462283</ele>
        <time>2021-11-21T22:53:45.664Z</time>
      </trkpt>
      <trkpt lat="47.517559" lon="8.011519">
        <ele>339.371772</ele>
        <time>2021-11-21T22:53:50.793Z</time>
      </trkpt>
      <trkpt lat="47.517540" lon="8.011543">
        <ele>339.375603</ele>
        <time>2021-11-21T22:53:51.163Z</time>
      </trkpt>
      <trkpt lat="47.517220" lon="8.011958">
        <ele>339.440864</ele>
        <time>2021-11-21T22:53:57.102Z</time>
      </trkpt>
      <trkpt lat="47.516968" lon="8.012240">
        <ele>339.489324</ele>
        <time>2021-11-21T22:54:01.902Z</time>
      </trkpt>
      <trkpt lat="47.515686" lon="8.013458">
        <ele>340.281067</ele>
        <time>2021-11-21T22:54:28.095Z</time>
      </trkpt>
      <trkpt lat="47.515654" lon="8.013483">
        <ele>340.317180</ele>
        <time>2021-11-21T22:54:28.877Z</time>
      </trkpt>
      <trkpt lat="47.515613" lon="8.013424">
        <ele>340.374245</ele>
        <time>2021-11-21T22:54:30.022Z</time>
      </trkpt>
      <trkpt lat="47.515541" lon="8.013407">
        <ele>340.447016</ele>
        <time>2021-11-21T22:54:31.384Z</time>
      </trkpt>
      <trkpt lat="47.515502" lon="8.013432">
        <ele>340.489433</ele>
        <time>2021-11-21T22:54:32.298Z</time>
      </trkpt>
      <trkpt lat="47.515475" lon="8.013469">
        <ele>340.526153</ele>
        <time>2021-11-21T22:54:32.972Z</time>
      </trkpt>
      <trkpt lat="47.515457" lon="8.013608">
        <ele>340.621560</ele>
        <time>2021-11-21T22:54:34.700Z</time>
      </trkpt>
      <trkpt lat="47.515468" lon="8.013643">
        <ele>340.647583</ele>
        <time>2021-11-21T22:54:35.159Z</time>
      </trkpt>
      <trkpt lat="47.515263" lon="8.013836">
        <ele>340.890053</ele>
        <time>2021-11-21T22:54:40.069Z</time>
      </trkpt>
      <trkpt lat="47.515054" lon="8.014017">
        <ele>341.131719</ele>
        <time>2021-11-21T22:54:44.809Z</time>
      </trkpt>
      <trkpt lat="47.514746" lon="8.014292">
        <ele>341.517249</ele>
        <time>2021-11-21T22:54:52.012Z</time>
      </trkpt>
      <trkpt lat="47.514628" lon="8.014407">
        <ele>341.708947</ele>
        <time>2021-11-21T22:54:54.896Z</time>
      </trkpt>
      <trkpt lat="47.514464" lon="8.014550">
        <ele>341.967215</ele>
        <time>2021-11-21T22:54:58.791Z</time>
      </trkpt>
      <trkpt lat="47.514162" lon="8.014813">
        <ele>342.442654</ele>
        <time>2021-11-21T22:55:05.813Z</time>
      </trkpt>
      <trkpt lat="47.514036" lon="8.014936">
        <ele>342.647452</ele>
        <time>2021-11-21T22:55:09.099Z</time>
      </trkpt>
      <trkpt lat="47.513919" lon="8.015052">
        <ele>342.838527</ele>
        <time>2021-11-21T22:55:11.984Z</time>
      </trkpt>
      <trkpt lat="47.513872" lon="8.015092">
        <ele>342.912090</ele>
        <time>2021-11-21T22:55:13.049Z</time>
      </trkpt>
      <trkpt lat="47.513615" lon="8.015346">
        <ele>343.331393</ele>
        <time>2021-11-21T22:55:19.671Z</time>
      </trkpt>
      <trkpt lat="47.512943" lon="8.015998">
        <ele>344.079698</ele>
        <time>2021-11-21T22:55:35.473Z</time>
      </trkpt>
      <trkpt lat="47.512748" lon="8.016153">
        <ele>344.197964</ele>
        <time>2021-11-21T22:55:39.327Z</time>
      </trkpt>
      <trkpt lat="47.512572" lon="8.016270">
        <ele>344.301055</ele>
        <time>2021-11-21T22:55:42.501Z</time>
      </trkpt>
      <trkpt lat="47.512292" lon="8.016407">
        <ele>344.458632</ele>
        <time>2021-11-21T22:55:47.468Z</time>
      </trkpt>
      <trkpt lat="47.511937" lon="8.016578">
        <ele>344.658115</ele>
        <time>2021-11-21T22:55:53.418Z</time>
      </trkpt>
      <trkpt lat="47.511835" lon="8.016624">
        <ele>344.715091</ele>
        <time>2021-11-21T22:55:54.913Z</time>
      </trkpt>
      <trkpt lat="47.511079" lon="8.016999">
        <ele>344.568040</ele>
        <time>2021-11-21T22:56:06.503Z</time>
      </trkpt>
      <trkpt lat="47.510624" lon="8.017217">
        <ele>344.369389</ele>
        <time>2021-11-21T22:56:12.870Z</time>
      </trkpt>
      <trkpt lat="47.510117" lon="8.017458">
        <ele>344.148201</ele>
        <time>2021-11-21T22:56:19.613Z</time>
      </trkpt>
      <trkpt lat="47.509872" lon="8.017541">
        <ele>344.031693</ele>
        <time>2021-11-21T22:56:22.776Z</time>
      </trkpt>
      <trkpt lat="47.509728" lon="8.017576">
        <ele>343.944641</ele>
        <time>2021-11-21T22:56:24.732Z</time>
      </trkpt>
      <trkpt lat="47.509596" lon="8.017609">
        <ele>343.864783</ele>
        <time>2021-11-21T22:56:26.388Z</time>
      </trkpt>
      <trkpt lat="47.509437" lon="8.017668">
        <ele>343.766999</ele>
        <time>2021-11-21T22:56:28.512Z</time>
      </trkpt>
      <trkpt lat="47.509253" lon="8.017765">
        <ele>343.650484</ele>
        <time>2021-11-21T22:56:31.024Z</time>
      </trkpt>
      <trkpt lat="47.509105" lon="8.017861">
        <ele>343.554094</ele>
        <time>2021-11-21T22:56:33.127Z</time>
      </trkpt>
      <trkpt lat="47.508988" lon="8.017959">
        <ele>343.473902</ele>
        <time>2021-11-21T22:56:34.902Z</time>
      </trkpt>
      <trkpt lat="47.508896" lon="8.018035">
        <ele>343.411054</ele>
        <time>2021-11-21T22:56:36.209Z</time>
      </trkpt>
      <trkpt lat="47.508805" lon="8.018141">
        <ele>343.341980</ele>
        <time>2021-11-21T22:56:37.846Z</time>
      </trkpt>
      <trkpt lat="47.508699" lon="8.018304">
        <ele>343.250807</ele>
        <time>2021-11-21T22:56:39.963Z</time>
      </trkpt>
      <trkpt lat="47.508636" lon="8.018423">
        <ele>343.189884</ele>
        <time>2021-11-21T22:56:41.310Z</time>
      </trkpt>
      <trkpt lat="47.508617" lon="8.018463">
        <ele>343.170179</ele>
        <time>2021-11-21T22:56:41.763Z</time>
      </trkpt>
      <trkpt lat="47.508597" lon="8.018443">
        <ele>343.155782</ele>
        <time>2021-11-21T22:56:42.085Z</time>
      </trkpt>
      <trkpt lat="47.508507" lon="8.018455">
        <ele>343.101876</ele>
        <time>2021-11-21T22:56:43.363Z</time>
      </trkpt>
      <trkpt lat="47.508490" lon="8.018479">
        <ele>343.087863</ele>
        <time>2021-11-21T22:56:43.727Z</time>
      </trkpt>
      <trkpt lat="47.508475" lon="8.018519">
        <ele>343.069427</ele>
        <time>2021-11-21T22:56:44.124Z</time>
      </trkpt>
      <trkpt lat="47.508493" lon="8.018648">
        <ele>343.016349</ele>
        <time>2021-11-21T22:56:45.263Z</time>
      </trkpt>
      <trkpt lat="47.508517" lon="8.018677">
        <ele>342.998619</ele>
        <time>2021-11-21T22:56:45.625Z</time>
      </trkpt>
      <trkpt lat="47.508505" lon="8.018716">
        <ele>342.999057</ele>
        <time>2021-11-21T22:56:45.991Z</time>
      </trkpt>
      <trkpt lat="47.508436" lon="8.018909">
        <ele>343.001289</ele>
        <time>2021-11-21T22:56:47.996Z</time>
      </trkpt>
      <trkpt lat="47.508403" lon="8.018982">
        <ele>343.002187</ele>
        <time>2021-11-21T22:56:48.798Z</time>
      </trkpt>
      <trkpt lat="47.508273" lon="8.019268">
        <ele>343.005711</ele>
        <time>2021-11-21T22:56:51.700Z</time>
      </trkpt>
      <trkpt lat="47.508117" lon="8.019584">
        <ele>343.009712</ele>
        <time>2021-11-21T22:56:55.352Z</time>
      </trkpt>
      <trkpt lat="47.508075" lon="8.019669">
        <ele>343.010788</ele>
        <time>2021-11-21T22:56:56.313Z</time>
      </trkpt>
      <trkpt lat="47.508029" lon="8.019761">
        <ele>343.011958</ele>
        <time>2021-11-21T22:56:57.379Z</time>
      </trkpt>
      <trkpt lat="47.507951" lon="8.019911">
        <ele>343.013893</ele>
        <time>2021-11-21T22:56:59.106Z</time>
      </trkpt>
      <trkpt lat="47.507863" lon="8.020075">
        <ele>343.016034</ele>
        <time>2021-11-21T22:57:01.377Z</time>
      </trkpt>
      <trkpt lat="47.507895" lon="8.020117">
        <ele>343.016682</ele>
        <time>2021-11-21T22:57:01.951Z</time>
      </trkpt>
      <trkpt lat="47.507995" lon="8.020296">
        <ele>343.019056</ele>
        <time>2021-11-21T22:57:04.342Z</time>
      </trkpt>
      <trkpt lat="47.508000" lon="8.020315">
        <ele>343.019265</ele>
        <time>2021-11-21T22:57:04.493Z</time>
      </trkpt>
      <trkpt lat="47.508039" lon="8.020467">
        <ele>343.020927</ele>
        <time>2021-11-21T22:57:06.532Z</time>
      </trkpt>
      <trkpt lat="47.508194" lon="8.021281">
        <ele>343.358393</ele>
        <time>2021-11-21T22:57:16.926Z</time>
      </trkpt>
      <trkpt lat="47.508213" lon="8.021364">
        <ele>343.437791</ele>
        <time>2021-11-21T22:57:17.862Z</time>
      </trkpt>
      <trkpt lat="47.508185" lon="8.021387">
        <ele>343.480739</ele>
        <time>2021-11-21T22:57:18.829Z</time>
      </trkpt>
      <trkpt lat="47.507703" lon="8.022138">
        <ele>344.419286</ele>
        <time>2021-11-21T22:57:32.243Z</time>
      </trkpt>
      <trkpt lat="47.507378" lon="8.022417">
        <ele>344.923175</ele>
        <time>2021-11-21T22:57:40.425Z</time>
      </trkpt>
      <trkpt lat="47.507363" lon="8.022432">
        <ele>344.947453</ele>
        <time>2021-11-21T22:57:40.958Z</time>
      </trkpt>
      <trkpt lat="47.507331" lon="8.022469">
        <ele>345.001912</ele>
        <time>2021-11-21T22:57:42.045Z</time>
      </trkpt>
      <trkpt lat="47.507266" lon="8.022548">
        <ele>345.114710</ele>
        <time>2021-11-21T22:57:44.404Z</time>
      </trkpt>
      <trkpt lat="47.507083" lon="8.022900">
        <ele>345.536530</ele>
        <time>2021-11-21T22:57:52.851Z</time>
      </trkpt>
      <trkpt lat="47.506897" lon="8.023415">
        <ele>346.195637</ele>
        <time>2021-11-21T22:58:03.719Z</time>
      </trkpt>
      <trkpt lat="47.506747" lon="8.023829">
        <ele>346.725860</ele>
        <time>2021-11-21T22:58:12.235Z</time>
      </trkpt>
      <trkpt lat="47.506675" lon="8.024087">
        <ele>347.040919</ele>
        <time>2021-11-21T22:58:17.622Z</time>
      </trkpt>
      <trkpt lat="47.506661" lon="8.024170">
        <ele>347.137472</ele>
        <time>2021-11-21T22:58:19.196Z</time>
      </trkpt>
      <trkpt lat="47.506654" lon="8.024209">
        <ele>347.183016</ele>
        <time>2021-11-21T22:58:19.896Z</time>
      </trkpt>
      <trkpt lat="47.506634" lon="8.024331">
        <ele>347.324706</ele>
        <time>2021-11-21T22:58:22.055Z</time>
      </trkpt>
      <trkpt lat="47.506571" lon="8.024790">
        <ele>347.853337</ele>
        <time>2021-11-21T22:58:30.454Z</time>
      </trkpt>
      <trkpt lat="47.506550" lon="8.024942">
        <ele>348.028441</ele>
        <time>2021-11-21T22:58:33.061Z</time>
      </trkpt>
      <trkpt lat="47.506494" lon="8.025370">
        <ele>348.480934</ele>
        <time>2021-11-21T22:58:41.079Z</time>
      </trkpt>
      <trkpt lat="47.506464" lon="8.025540">
        <ele>348.577501</ele>
        <time>2021-11-21T22:58:44.105Z</time>
      </trkpt>
      <trkpt lat="47.506438" lon="8.025630">
        <ele>348.631298</ele>
        <time>2021-11-21T22:58:45.865Z</time>
      </trkpt>
      <trkpt lat="47.506408" lon="8.025723">
        <ele>348.687939</ele>
        <time>2021-11-21T22:58:47.713Z</time>
      </trkpt>
      <trkpt lat="47.506324" lon="8.025948">
        <ele>348.829227</ele>
        <time>2021-11-21T22:58:52.001Z</time>
      </trkpt>
      <trkpt lat="47.506281" lon="8.026061">
        <ele>348.900508</ele>
        <time>2021-11-21T22:58:54.233Z</time>
      </trkpt>
      <trkpt lat="47.506132" lon="8.026567">
        <ele>349.203878</ele>
        <time>2021-11-21T22:59:03.280Z</time>
      </trkpt>
      <trkpt lat="47.505984" lon="8.027167">
        <ele>349.554934</ele>
        <time>2021-11-21T22:59:12.939Z</time>
      </trkpt>
      <trkpt lat="47.505967" lon="8.027229">
        <ele>349.591710</ele>
        <time>2021-11-21T22:59:13.809Z</time>
      </trkpt>
      <trkpt lat="47.505954" lon="8.027254">
        <ele>349.609049</ele>
        <time>2021-11-21T22:59:14.244Z</time>
      </trkpt>
      <trkpt lat="47.505932" lon="8.027248">
        <ele>349.627250</ele>
        <time>2021-11-21T22:59:14.742Z</time>
      </trkpt>
      <trkpt lat="47.505896" lon="8.027270">
        <ele>349.658937</ele>
        <time>2021-11-21T22:59:15.503Z</time>
      </trkpt>
      <trkpt lat="47.505882" lon="8.027305">
        <ele>349.681292</ele>
        <time>2021-11-21T22:59:16.143Z</time>
      </trkpt>
      <trkpt lat="47.505880" lon="8.027324">
        <ele>349.691861</ele>
        <time>2021-11-21T22:59:16.392Z</time>
      </trkpt>
      <trkpt lat="47.505884" lon="8.027352">
        <ele>349.707590</ele>
        <time>2021-11-21T22:59:16.793Z</time>
      </trkpt>
      <trkpt lat="47.505896" lon="8.027379">
        <ele>349.725353</ele>
        <time>2021-11-21T22:59:17.302Z</time>
      </trkpt>
      <trkpt lat="47.505909" lon="8.027394">
        <ele>349.738763</ele>
        <time>2021-11-21T22:59:17.664Z</time>
      </trkpt>
      <trkpt lat="47.505930" lon="8.027402">
        <ele>349.756405</ele>
        <time>2021-11-21T22:59:18.158Z</time>
      </trkpt>
      <trkpt lat="47.505918" lon="8.027442">
        <ele>349.780460</ele>
        <time>2021-11-21T22:59:18.887Z</time>
      </trkpt>
      <trkpt lat="47.505899" lon="8.027524">
        <ele>349.828105</ele>
        <time>2021-11-21T22:59:20.178Z</time>
      </trkpt>
      <trkpt lat="47.505841" lon="8.027752">
        <ele>349.917734</ele>
        <time>2021-11-21T22:59:23.440Z</time>
      </trkpt>
      <trkpt lat="47.505760" lon="8.028072">
        <ele>349.954971</ele>
        <time>2021-11-21T22:59:28.407Z</time>
      </trkpt>
      <trkpt lat="47.505717" lon="8.028403">
        <ele>349.991700</ele>
        <time>2021-11-21T22:59:32.758Z</time>
      </trkpt>
      <trkpt lat="47.505707" lon="8.028569">
        <ele>350.009861</ele>
        <time>2021-11-21T22:59:35.064Z</time>
      </trkpt>
      <trkpt lat="47.505673" lon="8.028775">
        <ele>350.032969</ele>
        <time>2021-11-21T22:59:37.846Z</time>
      </trkpt>
      <trkpt lat="47.505477" lon="8.029211">
        <ele>350.090037</ele>
        <time>2021-11-21T22:59:44.816Z</time>
      </trkpt>
      <trkpt lat="47.504830" lon="8.030312">
        <ele>350.629990</ele>
        <time>2021-11-21T23:00:05.897Z</time>
      </trkpt>
      <trkpt lat="47.504264" lon="8.031262">
        <ele>351.776687</ele>
        <time>2021-11-21T23:00:27.520Z</time>
      </trkpt>
      <trkpt lat="47.503900" lon="8.031853">
        <ele>352.500693</ele>
        <time>2021-11-21T23:00:42.966Z</time>
      </trkpt>
      <trkpt lat="47.503542" lon="8.032498">
        <ele>353.637227</ele>
        <time>2021-11-21T23:00:59.046Z</time>
      </trkpt>
      <trkpt lat="47.503241" lon="8.033161">
        <ele>354.784611</ele>
        <time>2021-11-21T23:01:14.978Z</time>
      </trkpt>
      <trkpt lat="47.502736" lon="8.034380">
        <ele>356.784812</ele>
        <time>2021-11-21T23:01:42.593Z</time>
      </trkpt>
      <trkpt lat="47.502581" lon="8.034740">
        <ele>357.317011</ele>
        <time>2021-11-21T23:01:51.144Z</time>
      </trkpt>
      <trkpt lat="47.502156" lon="8.035747">
        <ele>358.797256</ele>
        <time>2021-11-21T23:02:13.507Z</time>
      </trkpt>
      <trkpt lat="47.502086" lon="8.035910">
        <ele>359.038047</ele>
        <time>2021-11-21T23:02:17.272Z</time>
      </trkpt>
      <trkpt lat="47.502046" lon="8.036004">
        <ele>359.176545</ele>
        <time>2021-11-21T23:02:19.357Z</time>
      </trkpt>
      <trkpt lat="47.501617" lon="8.035668">
        <ele>359.739581</ele>
        <time>2021-11-21T23:02:31.961Z</time>
      </trkpt>
      <trkpt lat="47.501518" lon="8.035634">
        <ele>359.733048</ele>
        <time>2021-11-21T23:02:34.352Z</time>
      </trkpt>
      <trkpt lat="47.501454" lon="8.035709">
        <ele>359.727800</ele>
        <time>2021-11-21T23:02:36.735Z</time>
      </trkpt>
      <trkpt lat="47.501437" lon="8.035841">
        <ele>359.721964</ele>
        <time>2021-11-21T23:02:38.734Z</time>
      </trkpt>
      <trkpt lat="47.501234" lon="8.038241">
        <ele>359.430691</ele>
        <time>2021-11-21T23:03:08.757Z</time>
      </trkpt>
      <trkpt lat="47.501231" lon="8.038279">
        <ele>359.412058</ele>
        <time>2021-11-21T23:03:09.089Z</time>
      </trkpt>
      <trkpt lat="47.501267" lon="8.038284">
        <ele>359.385991</ele>
        <time>2021-11-21T23:03:09.461Z</time>
      </trkpt>
      <trkpt lat="47.501901" lon="8.038376">
        <ele>358.926740</ele>
        <time>2021-11-21T23:03:17.287Z</time>
      </trkpt>
      <trkpt lat="47.502069" lon="8.038565">
        <ele>358.774617</ele>
        <time>2021-11-21T23:03:19.758Z</time>
      </trkpt>
      <trkpt lat="47.502088" lon="8.038680">
        <ele>358.716959</ele>
        <time>2021-11-21T23:03:20.906Z</time>
      </trkpt>
      <trkpt lat="47.502099" lon="8.038844">
        <ele>358.636694</ele>
        <time>2021-11-21T23:03:22.133Z</time>
      </trkpt>
      <trkpt lat="47.502104" lon="8.038924">
        <ele>358.597566</ele>
        <time>2021-11-21T23:03:22.758Z</time>
      </trkpt>
      <trkpt lat="47.502162" lon="8.040946">
        <ele>359.030532</ele>
        <time>2021-11-21T23:03:44.671Z</time>
      </trkpt>
      <trkpt lat="47.502240" lon="8.041844">
        <ele>359.450535</ele>
        <time>2021-11-21T23:03:56.762Z</time>
      </trkpt>
      <trkpt lat="47.502261" lon="8.042085">
        <ele>359.563259</ele>
        <time>2021-11-21T23:04:00.073Z</time>
      </trkpt>
      <trkpt lat="47.502592" lon="8.044305">
        <ele>361.859343</ele>
        <time>2021-11-21T23:04:32.015Z</time>
      </trkpt>
      <trkpt lat="47.502959" lon="8.047023">
        <ele>364.898804</ele>
        <time>2021-11-21T23:05:12.209Z</time>
      </trkpt>
      <trkpt lat="47.503126" lon="8.048338">
        <ele>366.207834</ele>
        <time>2021-11-21T23:05:31.572Z</time>
      </trkpt>
      <trkpt lat="47.503303" lon="8.050012">
        <ele>367.789411</ele>
        <time>2021-11-21T23:05:54.216Z</time>
      </trkpt>
      <trkpt lat="47.503323" lon="8.050248">
        <ele>367.975532</ele>
        <time>2021-11-21T23:05:57.462Z</time>
      </trkpt>
      <trkpt lat="47.503363" lon="8.050738">
        <ele>368.361755</ele>
        <time>2021-11-21T23:06:03.837Z</time>
      </trkpt>
      <trkpt lat="47.503386" lon="8.051161">
        <ele>368.693831</ele>
        <time>2021-11-21T23:06:09.286Z</time>
      </trkpt>
      <trkpt lat="47.503397" lon="8.051365">
        <ele>368.853972</ele>
        <time>2021-11-21T23:06:12.082Z</time>
      </trkpt>
      <trkpt lat="47.503421" lon="8.051996">
        <ele>369.348522</ele>
        <time>2021-11-21T23:06:20.424Z</time>
      </trkpt>
      <trkpt lat="47.503428" lon="8.052181">
        <ele>369.493514</ele>
        <time>2021-11-21T23:06:22.822Z</time>
      </trkpt>
      <trkpt lat="47.503428" lon="8.052697">
        <ele>369.917092</ele>
        <time>2021-11-21T23:06:29.598Z</time>
      </trkpt>
      <trkpt lat="47.503431" lon="8.052821">
        <ele>370.038952</ele>
        <time>2021-11-21T23:06:31.217Z</time>
      </trkpt>
      <trkpt lat="47.503433" lon="8.053143">
        <ele>370.355206</ele>
        <time>2021-11-21T23:06:36.690Z</time>
      </trkpt>
      <trkpt lat="47.503429" lon="8.053339">
        <ele>370.547788</ele>
        <time>2021-11-21T23:06:40.127Z</time>
      </trkpt>
      <trkpt lat="47.503413" lon="8.053999">
        <ele>371.196399</ele>
        <time>2021-11-21T23:06:51.899Z</time>
      </trkpt>
      <trkpt lat="47.503340" lon="8.055072">
        <ele>372.255537</ele>
        <time>2021-11-21T23:07:11.179Z</time>
      </trkpt>
      <trkpt lat="47.503298" lon="8.055555">
        <ele>372.801393</ele>
        <time>2021-11-21T23:07:19.709Z</time>
      </trkpt>
      <trkpt lat="47.503232" lon="8.056115">
        <ele>373.485759</ele>
        <time>2021-11-21T23:07:29.641Z</time>
      </trkpt>
      <trkpt lat="47.502927" lon="8.057944">
        <ele>375.749715</ele>
        <time>2021-11-21T23:08:05.327Z</time>
      </trkpt>
      <trkpt lat="47.502836" lon="8.058343">
        <ele>376.238563</ele>
        <time>2021-11-21T23:08:13.078Z</time>
      </trkpt>
      <trkpt lat="47.502806" lon="8.058487">
        <ele>376.413489</ele>
        <time>2021-11-21T23:08:16.099Z</time>
      </trkpt>
      <trkpt lat="47.502690" lon="8.058955">
        <ele>376.992164</ele>
        <time>2021-11-21T23:08:25.100Z</time>
      </trkpt>
      <trkpt lat="47.502580" lon="8.059374">
        <ele>377.513983</ele>
        <time>2021-11-21T23:08:33.087Z</time>
      </trkpt>
      <trkpt lat="47.502534" lon="8.059520">
        <ele>377.700989</ele>
        <time>2021-11-21T23:08:36.458Z</time>
      </trkpt>
      <trkpt lat="47.502407" lon="8.059925">
        <ele>378.219302</ele>
        <time>2021-11-21T23:08:44.474Z</time>
      </trkpt>
      <trkpt lat="47.502229" lon="8.060464">
        <ele>378.875058</ele>
        <time>2021-11-21T23:08:55.691Z</time>
      </trkpt>
      <trkpt lat="47.502130" lon="8.060761">
        <ele>379.175041</ele>
        <time>2021-11-21T23:09:01.243Z</time>
      </trkpt>
      <trkpt lat="47.501960" lon="8.061164">
        <ele>379.605393</ele>
        <time>2021-11-21T23:09:09.457Z</time>
      </trkpt>
      <trkpt lat="47.501169" lon="8.063017">
        <ele>382.041915</ele>
        <time>2021-11-21T23:09:46.115Z</time>
      </trkpt>
      <trkpt lat="47.500653" lon="8.064026">
        <ele>384.340647</ele>
        <time>2021-11-21T23:10:12.348Z</time>
      </trkpt>
      <trkpt lat="47.500531" lon="8.064169">
        <ele>384.759072</ele>
        <time>2021-11-21T23:10:17.353Z</time>
      </trkpt>
      <trkpt lat="47.500414" lon="8.064350">
        <ele>385.214116</ele>
        <time>2021-11-21T23:10:23.484Z</time>
      </trkpt>
      <trkpt lat="47.500341" lon="8.064457">
        <ele>385.490348</ele>
        <time>2021-11-21T23:10:26.666Z</time>
      </trkpt>
      <trkpt lat="47.500095" lon="8.064612">
        <ele>386.277261</ele>
        <time>2021-11-21T23:10:36.228Z</time>
      </trkpt>
      <trkpt lat="47.500120" lon="8.064657">
        <ele>386.414277</ele>
        <time>2021-11-21T23:10:37.919Z</time>
      </trkpt>
      <trkpt lat="47.500182" lon="8.064834">
        <ele>386.883164</ele>
        <time>2021-11-21T23:10:42.812Z</time>
      </trkpt>
      <trkpt lat="47.500209" lon="8.064917">
        <ele>387.099809</ele>
        <time>2021-11-21T23:10:46.273Z</time>
      </trkpt>
      <trkpt lat="47.500343" lon="8.065218">
        <ele>387.947559</ele>
        <time>2021-11-21T23:10:54.390Z</time>
      </trkpt>
      <trkpt lat="47.500746" lon="8.065595">
        <ele>389.607110</ele>
        <time>2021-11-21T23:11:12.260Z</time>
      </trkpt>
      <trkpt lat="47.500757" lon="8.065687">
        <ele>389.826832</ele>
        <time>2021-11-21T23:11:13.833Z</time>
      </trkpt>
      <trkpt lat="47.500523" lon="8.066198">
        <ele>391.278623</ele>
        <time>2021-11-21T23:11:27.529Z</time>
      </trkpt>
      <trkpt lat="47.500485" lon="8.066332">
        <ele>391.620395</ele>
        <time>2021-11-21T23:11:31.324Z</time>
      </trkpt>
      <trkpt lat="47.500368" lon="8.066586">
        <ele>392.267422</ele>
        <time>2021-11-21T23:11:38.447Z</time>
      </trkpt>
      <trkpt lat="47.499930" lon="8.068012">
        <ele>393.257841</ele>
        <time>2021-11-21T23:12:04.904Z</time>
      </trkpt>
      <trkpt lat="47.499748" lon="8.068841">
        <ele>393.808972</ele>
        <time>2021-11-21T23:12:16.724Z</time>
      </trkpt>
      <trkpt lat="47.499620" lon="8.069496">
        <ele>393.924187</ele>
        <time>2021-11-21T23:12:25.225Z</time>
      </trkpt>
      <trkpt lat="47.499538" lon="8.069838">
        <ele>393.925193</ele>
        <time>2021-11-21T23:12:29.817Z</time>
      </trkpt>
      <trkpt lat="47.499461" lon="8.070758">
        <ele>393.927763</ele>
        <time>2021-11-21T23:12:41.693Z</time>
      </trkpt>
      <trkpt lat="47.499601" lon="8.071817">
        <ele>394.101583</ele>
        <time>2021-11-21T23:12:57.840Z</time>
      </trkpt>
      <trkpt lat="47.499631" lon="8.072434">
        <ele>394.610033</ele>
        <time>2021-11-21T23:13:08.142Z</time>
      </trkpt>
      <trkpt lat="47.499618" lon="8.072678">
        <ele>394.811210</ele>
        <time>2021-11-21T23:13:12.598Z</time>
      </trkpt>
      <trkpt lat="47.499580" lon="8.073053">
        <ele>395.122887</ele>
        <time>2021-11-21T23:13:18.651Z</time>
      </trkpt>
      <trkpt lat="47.499525" lon="8.073287">
        <ele>395.326529</ele>
        <time>2021-11-21T23:13:23.598Z</time>
      </trkpt>
      <trkpt lat="47.499275" lon="8.073955">
        <ele>395.954205</ele>
        <time>2021-11-21T23:13:36.376Z</time>
      </trkpt>
      <trkpt lat="47.499163" lon="8.074206">
        <ele>396.215171</ele>
        <time>2021-11-21T23:13:42.377Z</time>
      </trkpt>
      <trkpt lat="47.498910" lon="8.074849">
        <ele>396.927876</ele>
        <time>2021-11-21T23:13:55.264Z</time>
      </trkpt>
      <trkpt lat="47.498145" lon="8.076850">
        <ele>399.072772</ele>
        <time>2021-11-21T23:14:35.263Z</time>
      </trkpt>
      <trkpt lat="47.497682" lon="8.077743">
        <ele>400.017178</ele>
        <time>2021-11-21T23:14:55.231Z</time>
      </trkpt>
      <trkpt lat="47.497198" lon="8.078441">
        <ele>400.856341</ele>
        <time>2021-11-21T23:15:11.544Z</time>
      </trkpt>
      <trkpt lat="47.497125" lon="8.078508">
        <ele>400.922489</ele>
        <time>2021-11-21T23:15:13.954Z</time>
      </trkpt>
      <trkpt lat="47.497038" lon="8.078610">
        <ele>400.968820</ele>
        <time>2021-11-21T23:15:16.609Z</time>
      </trkpt>
      <trkpt lat="47.496793" lon="8.078891">
        <ele>401.098209</ele>
        <time>2021-11-21T23:15:23.676Z</time>
      </trkpt>
      <trkpt lat="47.496446" lon="8.079280">
        <ele>401.279924</ele>
        <time>2021-11-21T23:15:33.088Z</time>
      </trkpt>
      <trkpt lat="47.496380" lon="8.079285">
        <ele>401.307511</ele>
        <time>2021-11-21T23:15:33.917Z</time>
      </trkpt>
      <trkpt lat="47.496040" lon="8.079701">
        <ele>401.491662</ele>
        <time>2021-11-21T23:15:40.683Z</time>
      </trkpt>
      <trkpt lat="47.495859" lon="8.079943">
        <ele>401.593485</ele>
        <time>2021-11-21T23:15:44.753Z</time>
      </trkpt>
      <trkpt lat="47.495681" lon="8.080229">
        <ele>401.754619</ele>
        <time>2021-11-21T23:15:48.717Z</time>
      </trkpt>
      <trkpt lat="47.495562" lon="8.080466">
        <ele>401.923030</ele>
        <time>2021-11-21T23:15:51.771Z</time>
      </trkpt>
      <trkpt lat="47.495515" lon="8.080558">
        <ele>401.988812</ele>
        <time>2021-11-21T23:15:53.007Z</time>
      </trkpt>
      <trkpt lat="47.495384" lon="8.080873">
        <ele>402.199777</ele>
        <time>2021-11-21T23:15:57.069Z</time>
      </trkpt>
      <trkpt lat="47.495292" lon="8.081144">
        <ele>402.372755</ele>
        <time>2021-11-21T23:16:00.838Z</time>
      </trkpt>
      <trkpt lat="47.495281" lon="8.081177">
        <ele>402.393742</ele>
        <time>2021-11-21T23:16:01.361Z</time>
      </trkpt>
      <trkpt lat="47.495207" lon="8.081445">
        <ele>402.558867</ele>
        <time>2021-11-21T23:16:04.752Z</time>
      </trkpt>
      <trkpt lat="47.495162" lon="8.081632">
        <ele>402.672085</ele>
        <time>2021-11-21T23:16:07.505Z</time>
      </trkpt>
      <trkpt lat="47.495132" lon="8.081754">
        <ele>402.746133</ele>
        <time>2021-11-21T23:16:09.184Z</time>
      </trkpt>
      <trkpt lat="47.495088" lon="8.082021">
        <ele>402.902881</ele>
        <time>2021-11-21T23:16:12.696Z</time>
      </trkpt>
      <trkpt lat="47.495034" lon="8.082354">
        <ele>403.098201</ele>
        <time>2021-11-21T23:16:17.379Z</time>
      </trkpt>
      <trkpt lat="47.495018" lon="8.082502">
        <ele>403.201246</ele>
        <time>2021-11-21T23:16:19.378Z</time>
      </trkpt>
      <trkpt lat="47.494982" lon="8.082826">
        <ele>403.650443</ele>
        <time>2021-11-21T23:16:24.143Z</time>
      </trkpt>
      <trkpt lat="47.494963" lon="8.083009">
        <ele>403.903733</ele>
        <time>2021-11-21T23:16:26.900Z</time>
      </trkpt>
      <trkpt lat="47.494933" lon="8.083243">
        <ele>404.229566</ele>
        <time>2021-11-21T23:16:30.815Z</time>
      </trkpt>
      <trkpt lat="47.494898" lon="8.083514">
        <ele>404.607016</ele>
        <time>2021-11-21T23:16:35.081Z</time>
      </trkpt>
      <trkpt lat="47.494867" lon="8.083719">
        <ele>404.894403</ele>
        <time>2021-11-21T23:16:38.743Z</time>
      </trkpt>
      <trkpt lat="47.494822" lon="8.084015">
        <ele>405.309467</ele>
        <time>2021-11-21T23:16:43.634Z</time>
      </trkpt>
      <trkpt lat="47.494749" lon="8.084368">
        <ele>405.814499</ele>
        <time>2021-11-21T23:16:49.857Z</time>
      </trkpt>
      <trkpt lat="47.494666" lon="8.084717">
        <ele>406.320660</ele>
        <time>2021-11-21T23:16:55.799Z</time>
      </trkpt>
      <trkpt lat="47.494652" lon="8.084779">
        <ele>406.410090</ele>
        <time>2021-11-21T23:16:56.858Z</time>
      </trkpt>
      <trkpt lat="47.494640" lon="8.084828">
        <ele>406.481392</ele>
        <time>2021-11-21T23:16:57.643Z</time>
      </trkpt>
      <trkpt lat="47.494445" lon="8.085612">
        <ele>407.493657</ele>
        <time>2021-11-21T23:17:09.999Z</time>
      </trkpt>
      <trkpt lat="47.494237" lon="8.086449">
        <ele>408.517251</ele>
        <time>2021-11-21T23:17:22.903Z</time>
      </trkpt>
      <trkpt lat="47.494042" lon="8.087271">
        <ele>409.517177</ele>
        <time>2021-11-21T23:17:35.604Z</time>
      </trkpt>
      <trkpt lat="47.493891" lon="8.087911">
        <ele>410.211639</ele>
        <time>2021-11-21T23:17:45.059Z</time>
      </trkpt>
      <trkpt lat="47.493802" lon="8.088286">
        <ele>410.578489</ele>
        <time>2021-11-21T23:17:50.619Z</time>
      </trkpt>
      <trkpt lat="47.493532" lon="8.089427">
        <ele>411.694336</ele>
        <time>2021-11-21T23:18:05.995Z</time>
      </trkpt>
      <trkpt lat="47.493523" lon="8.089470">
        <ele>411.735885</ele>
        <time>2021-11-21T23:18:06.554Z</time>
      </trkpt>
      <trkpt lat="47.493453" lon="8.089837">
        <ele>412.087861</ele>
        <time>2021-11-21T23:18:11.973Z</time>
      </trkpt>
      <trkpt lat="47.493381" lon="8.090217">
        <ele>412.515416</ele>
        <time>2021-11-21T23:18:18.035Z</time>
      </trkpt>
      <trkpt lat="47.493362" lon="8.090313">
        <ele>412.653836</ele>
        <time>2021-11-21T23:18:19.477Z</time>
      </trkpt>
      <trkpt lat="47.493318" lon="8.090521">
        <ele>412.955427</ele>
        <time>2021-11-21T23:18:22.287Z</time>
      </trkpt>
      <trkpt lat="47.493278" lon="8.090706">
        <ele>413.224205</ele>
        <time>2021-11-21T23:18:25.909Z</time>
      </trkpt>
      <trkpt lat="47.493199" lon="8.091055">
        <ele>413.733507</ele>
        <time>2021-11-21T23:18:31.192Z</time>
      </trkpt>
      <trkpt lat="47.493176" lon="8.091152">
        <ele>413.875754</ele>
        <time>2021-11-21T23:18:33.453Z</time>
      </trkpt>
      <trkpt lat="47.493111" lon="8.091365">
        <ele>414.199155</ele>
        <time>2021-11-21T23:18:36.972Z</time>
      </trkpt>
      <trkpt lat="47.493013" lon="8.091685">
        <ele>414.685311</ele>
        <time>2021-11-21T23:18:42.930Z</time>
      </trkpt>
      <trkpt lat="47.493004" lon="8.091715">
        <ele>414.730730</ele>
        <time>2021-11-21T23:18:43.470Z</time>
      </trkpt>
      <trkpt lat="47.492943" lon="8.091916">
        <ele>415.035629</ele>
        <time>2021-11-21T23:18:46.436Z</time>
      </trkpt>
      <trkpt lat="47.492908" lon="8.092021">
        <ele>415.197640</ele>
        <time>2021-11-21T23:18:48.095Z</time>
      </trkpt>
      <trkpt lat="47.492785" lon="8.092387">
        <ele>415.763274</ele>
        <time>2021-11-21T23:18:54.867Z</time>
      </trkpt>
      <trkpt lat="47.492561" lon="8.093030">
        <ele>416.705153</ele>
        <time>2021-11-21T23:19:05.990Z</time>
      </trkpt>
      <trkpt lat="47.492561" lon="8.093030">
        <ele>416.705153</ele>
        <time>2021-11-21T23:19:06.055Z</time>
      </trkpt>
      <trkpt lat="47.492222" lon="8.094030">
        <ele>418.132057</ele>
        <time>2021-11-21T23:19:23.857Z</time>
      </trkpt>
      <trkpt lat="47.491531" lon="8.095826">
        <ele>420.513815</ele>
        <time>2021-11-21T23:19:52.968Z</time>
      </trkpt>
      <trkpt lat="47.490966" lon="8.097142">
        <ele>422.131898</ele>
        <time>2021-11-21T23:20:14.552Z</time>
      </trkpt>
      <trkpt lat="47.490321" lon="8.098647">
        <ele>424.872944</ele>
        <time>2021-11-21T23:20:41.700Z</time>
      </trkpt>
      <trkpt lat="47.489995" lon="8.099422">
        <ele>426.285872</ele>
        <time>2021-11-21T23:20:57.684Z</time>
      </trkpt>
      <trkpt lat="47.489912" lon="8.099621">
        <ele>427.083516</ele>
        <time>2021-11-21T23:21:01.960Z</time>
      </trkpt>
      <trkpt lat="47.489698" lon="8.100128">
        <ele>429.122466</ele>
        <time>2021-11-21T23:21:13.590Z</time>
      </trkpt>
      <trkpt lat="47.489550" lon="8.100488">
        <ele>430.559774</ele>
        <time>2021-11-21T23:21:23.681Z</time>
      </trkpt>
      <trkpt lat="47.489497" lon="8.100620">
        <ele>431.083493</ele>
        <time>2021-11-21T23:21:27.695Z</time>
      </trkpt>
      <trkpt lat="47.489406" lon="8.100900">
        <ele>432.143256</ele>
        <time>2021-11-21T23:21:36.530Z</time>
      </trkpt>
      <trkpt lat="47.489218" lon="8.101622">
        <ele>434.782420</ele>
        <time>2021-11-21T23:22:00.615Z</time>
      </trkpt>
      <trkpt lat="47.489160" lon="8.101908">
        <ele>435.648357</ele>
        <time>2021-11-21T23:22:07.922Z</time>
      </trkpt>
      <trkpt lat="47.488961" lon="8.102990">
        <ele>438.136102</ele>
        <time>2021-11-21T23:22:28.515Z</time>
      </trkpt>
      <trkpt lat="47.488863" lon="8.103453">
        <ele>439.212484</ele>
        <time>2021-11-21T23:22:38.254Z</time>
      </trkpt>
      <trkpt lat="47.488766" lon="8.103832">
        <ele>440.111590</ele>
        <time>2021-11-21T23:22:43.091Z</time>
      </trkpt>
      <trkpt lat="47.488623" lon="8.104263">
        <ele>441.176813</ele>
        <time>2021-11-21T23:22:53.147Z</time>
      </trkpt>
      <trkpt lat="47.488025" lon="8.105557">
        <ele>444.513650</ele>
        <time>2021-11-21T23:23:12.511Z</time>
      </trkpt>
      <trkpt lat="47.487723" lon="8.106230">
        <ele>446.231260</ele>
        <time>2021-11-21T23:23:31.223Z</time>
      </trkpt>
      <trkpt lat="47.487526" lon="8.106968">
        <ele>449.329078</ele>
        <time>2021-11-21T23:23:52.388Z</time>
      </trkpt>
      <trkpt lat="47.487493" lon="8.107281">
        <ele>450.962764</ele>
        <time>2021-11-21T23:24:01.797Z</time>
      </trkpt>
      <trkpt lat="47.487488" lon="8.107690">
        <ele>453.072344</ele>
        <time>2021-11-21T23:24:13.841Z</time>
      </trkpt>
      <trkpt lat="47.487522" lon="8.108181">
        <ele>455.617717</ele>
        <time>2021-11-21T23:24:29.002Z</time>
      </trkpt>
      <trkpt lat="47.487592" lon="8.108945">
        <ele>459.593752</ele>
        <time>2021-11-21T23:24:54.379Z</time>
      </trkpt>
      <trkpt lat="47.487704" lon="8.110209">
        <ele>467.745624</ele>
        <time>2021-11-21T23:25:40.825Z</time>
      </trkpt>
      <trkpt lat="47.487750" lon="8.110724">
        <ele>471.191219</ele>
        <time>2021-11-21T23:26:00.032Z</time>
      </trkpt>
      <trkpt lat="47.487784" lon="8.111079">
        <ele>473.569388</ele>
        <time>2021-11-21T23:26:13.473Z</time>
      </trkpt>
      <trkpt lat="47.487816" lon="8.111427">
        <ele>475.898866</ele>
        <time>2021-11-21T23:26:26.583Z</time>
      </trkpt>
      <trkpt lat="47.487873" lon="8.112054">
        <ele>480.220982</ele>
        <time>2021-11-21T23:26:50.390Z</time>
      </trkpt>
      <trkpt lat="47.487928" lon="8.112601">
        <ele>484.147722</ele>
        <time>2021-11-21T23:27:10.869Z</time>
      </trkpt>
      <trkpt lat="47.487946" lon="8.113698">
        <ele>491.939273</ele>
        <time>2021-11-21T23:27:52.049Z</time>
      </trkpt>
      <trkpt lat="47.487880" lon="8.114431">
        <ele>497.189946</ele>
        <time>2021-11-21T23:28:21.242Z</time>
      </trkpt>
      <trkpt lat="47.487657" lon="8.115463">
        <ele>506.198544</ele>
        <time>2021-11-21T23:29:07.609Z</time>
      </trkpt>
      <trkpt lat="47.487583" lon="8.115667">
        <ele>508.124348</ele>
        <time>2021-11-21T23:29:18.960Z</time>
      </trkpt>
      <trkpt lat="47.486845" lon="8.117095">
        <ele>522.019404</ele>
        <time>2021-11-21T23:30:38.243Z</time>
      </trkpt>
      <trkpt lat="47.486571" lon="8.117656">
        <ele>526.143448</ele>
        <time>2021-11-21T23:31:06.650Z</time>
      </trkpt>
      <trkpt lat="47.486268" lon="8.118191">
        <ele>530.302419</ele>
        <time>2021-11-21T23:31:30.235Z</time>
      </trkpt>
      <trkpt lat="47.485564" lon="8.119205">
        <ele>535.883181</ele>
        <time>2021-11-21T23:32:04.329Z</time>
      </trkpt>
      <trkpt lat="47.485363" lon="8.119586">
        <ele>536.401935</ele>
        <time>2021-11-21T23:32:10.785Z</time>
      </trkpt>
      <trkpt lat="47.485011" lon="8.120456">
        <ele>537.490220</ele>
        <time>2021-11-21T23:32:21.724Z</time>
      </trkpt>
      <trkpt lat="47.484889" lon="8.120748">
        <ele>537.858669</ele>
        <time>2021-11-21T23:32:24.660Z</time>
      </trkpt>
      <trkpt lat="47.484812" lon="8.120917">
        <ele>538.060872</ele>
        <time>2021-11-21T23:32:27.272Z</time>
      </trkpt>
      <trkpt lat="47.484688" lon="8.121120">
        <ele>538.022045</ele>
        <time>2021-11-21T23:32:29.525Z</time>
      </trkpt>
      <trkpt lat="47.484520" lon="8.121330">
        <ele>537.975870</ele>
        <time>2021-11-21T23:32:32.759Z</time>
      </trkpt>
      <trkpt lat="47.484367" lon="8.121479">
        <ele>537.937413</ele>
        <time>2021-11-21T23:32:34.959Z</time>
      </trkpt>
      <trkpt lat="47.484058" lon="8.121717">
        <ele>537.864271</ele>
        <time>2021-11-21T23:32:39.769Z</time>
      </trkpt>
      <trkpt lat="47.484027" lon="8.121739">
        <ele>537.857052</ele>
        <time>2021-11-21T23:32:40.460Z</time>
      </trkpt>
      <trkpt lat="47.483946" lon="8.121799">
        <ele>537.838033</ele>
        <time>2021-11-21T23:32:41.992Z</time>
      </trkpt>
      <trkpt lat="47.483830" lon="8.121913">
        <ele>537.808795</ele>
        <time>2021-11-21T23:32:43.666Z</time>
      </trkpt>
      <trkpt lat="47.483747" lon="8.122015">
        <ele>537.786142</ele>
        <time>2021-11-21T23:32:44.932Z</time>
      </trkpt>
      <trkpt lat="47.483715" lon="8.122061">
        <ele>537.776774</ele>
        <time>2021-11-21T23:32:46.018Z</time>
      </trkpt>
      <trkpt lat="47.483395" lon="8.122774">
        <ele>537.670385</ele>
        <time>2021-11-21T23:32:54.800Z</time>
      </trkpt>
      <trkpt lat="47.483204" lon="8.123277">
        <ele>537.629850</ele>
        <time>2021-11-21T23:33:00.650Z</time>
      </trkpt>
      <trkpt lat="47.482968" lon="8.123897">
        <ele>537.579857</ele>
        <time>2021-11-21T23:33:08.192Z</time>
      </trkpt>
      <trkpt lat="47.482747" lon="8.124448">
        <ele>537.534842</ele>
        <time>2021-11-21T23:33:14.123Z</time>
      </trkpt>
      <trkpt lat="47.482507" lon="8.124964">
        <ele>537.533239</ele>
        <time>2021-11-21T23:33:19.772Z</time>
      </trkpt>
      <trkpt lat="47.481997" lon="8.125997">
        <ele>537.962904</ele>
        <time>2021-11-21T23:33:31.961Z</time>
      </trkpt>
      <trkpt lat="47.481879" lon="8.126325">
        <ele>538.087705</ele>
        <time>2021-11-21T23:33:37.676Z</time>
      </trkpt>
      <trkpt lat="47.481779" lon="8.126701">
        <ele>538.223417</ele>
        <time>2021-11-21T23:33:42.657Z</time>
      </trkpt>
      <trkpt lat="47.481722" lon="8.127177">
        <ele>538.385780</ele>
        <time>2021-11-21T23:33:48.269Z</time>
      </trkpt>
      <trkpt lat="47.481690" lon="8.127694">
        <ele>539.209951</ele>
        <time>2021-11-21T23:33:55.413Z</time>
      </trkpt>
      <trkpt lat="47.481655" lon="8.128429">
        <ele>540.414033</ele>
        <time>2021-11-21T23:34:06.683Z</time>
      </trkpt>
      <trkpt lat="47.481607" lon="8.129456">
        <ele>542.096321</ele>
        <time>2021-11-21T23:34:25.738Z</time>
      </trkpt>
      <trkpt lat="47.481589" lon="8.129851">
        <ele>542.744679</ele>
        <time>2021-11-21T23:34:33.699Z</time>
      </trkpt>
      <trkpt lat="47.481509" lon="8.130687">
        <ele>545.048159</ele>
        <time>2021-11-21T23:34:49.714Z</time>
      </trkpt>
      <trkpt lat="47.481421" lon="8.131045">
        <ele>546.087434</ele>
        <time>2021-11-21T23:34:55.993Z</time>
      </trkpt>
      <trkpt lat="47.481323" lon="8.131382">
        <ele>547.088321</ele>
        <time>2021-11-21T23:35:03.160Z</time>
      </trkpt>
      <trkpt lat="47.480899" lon="8.132641">
        <ele>551.457152</ele>
        <time>2021-11-21T23:35:35.963Z</time>
      </trkpt>
      <trkpt lat="47.480724" lon="8.133367">
        <ele>554.768962</ele>
        <time>2021-11-21T23:35:57.633Z</time>
      </trkpt>
      <trkpt lat="47.480608" lon="8.134090">
        <ele>557.961760</ele>
        <time>2021-11-21T23:36:18.989Z</time>
      </trkpt>
      <trkpt lat="47.480460" lon="8.135036">
        <ele>561.941961</ele>
        <time>2021-11-21T23:36:46.866Z</time>
      </trkpt>
      <trkpt lat="47.480431" lon="8.135333">
        <ele>562.876414</ele>
        <time>2021-11-21T23:36:53.923Z</time>
      </trkpt>
      <trkpt lat="47.480428" lon="8.135495">
        <ele>563.381068</ele>
        <time>2021-11-21T23:36:59.528Z</time>
      </trkpt>
      <trkpt lat="47.480445" lon="8.135745">
        <ele>564.163492</ele>
        <time>2021-11-21T23:37:05.438Z</time>
      </trkpt>
      <trkpt lat="47.480497" lon="8.136071">
        <ele>565.206538</ele>
        <time>2021-11-21T23:37:14.387Z</time>
      </trkpt>
      <trkpt lat="47.480611" lon="8.136738">
        <ele>567.348942</ele>
        <time>2021-11-21T23:37:29.234Z</time>
      </trkpt>
      <trkpt lat="47.480729" lon="8.137479">
        <ele>569.719575</ele>
        <time>2021-11-21T23:37:44.601Z</time>
      </trkpt>
      <trkpt lat="47.480849" lon="8.138227">
        <ele>570.462599</ele>
        <time>2021-11-21T23:37:52.882Z</time>
      </trkpt>
      <trkpt lat="47.480926" lon="8.138706">
        <ele>570.936496</ele>
        <time>2021-11-21T23:37:58.151Z</time>
      </trkpt>
      <trkpt lat="47.480931" lon="8.138738">
        <ele>570.968108</ele>
        <time>2021-11-21T23:37:58.341Z</time>
      </trkpt>
      <trkpt lat="47.480997" lon="8.139156">
        <ele>571.381263</ele>
        <time>2021-11-21T23:38:05.300Z</time>
      </trkpt>
      <trkpt lat="47.481047" lon="8.139151">
        <ele>571.452633</ele>
        <time>2021-11-21T23:38:05.814Z</time>
      </trkpt>
      <trkpt lat="47.481211" lon="8.139188">
        <ele>571.688894</ele>
        <time>2021-11-21T23:38:08.510Z</time>
      </trkpt>
      <trkpt lat="47.481334" lon="8.139233">
        <ele>571.869339</ele>
        <time>2021-11-21T23:38:12.304Z</time>
      </trkpt>
      <trkpt lat="47.481570" lon="8.139330">
        <ele>572.218165</ele>
        <time>2021-11-21T23:38:16.138Z</time>
      </trkpt>
      <trkpt lat="47.481795" lon="8.139350">
        <ele>572.824287</ele>
        <time>2021-11-21T23:38:22.531Z</time>
      </trkpt>
      <trkpt lat="47.481930" lon="8.139364">
        <ele>573.233686</ele>
        <time>2021-11-21T23:38:26.018Z</time>
      </trkpt>
      <trkpt lat="47.482269" lon="8.139354">
        <ele>574.259421</ele>
        <time>2021-11-21T23:38:35.529Z</time>
      </trkpt>
      <trkpt lat="47.482314" lon="8.139339">
        <ele>574.398965</ele>
        <time>2021-11-21T23:38:36.795Z</time>
      </trkpt>
      <trkpt lat="47.482382" lon="8.139311">
        <ele>574.612493</ele>
        <time>2021-11-21T23:38:40.985Z</time>
      </trkpt>
      <trkpt lat="47.482938" lon="8.138763">
        <ele>576.633457</ele>
        <time>2021-11-21T23:38:56.798Z</time>
      </trkpt>
      <trkpt lat="47.482993" lon="8.138736">
        <ele>576.808759</ele>
        <time>2021-11-21T23:39:00.149Z</time>
      </trkpt>
      <trkpt lat="47.483055" lon="8.138704">
        <ele>577.007402</ele>
        <time>2021-11-21T23:39:01.579Z</time>
      </trkpt>
      <trkpt lat="47.483799" lon="8.138672">
        <ele>578.465724</ele>
        <time>2021-11-21T23:39:22.475Z</time>
      </trkpt>
      <trkpt lat="47.483932" lon="8.138672">
        <ele>578.659758</ele>
        <time>2021-11-21T23:39:25.093Z</time>
      </trkpt>
      <trkpt lat="47.484101" lon="8.138667">
        <ele>578.906362</ele>
        <time>2021-11-21T23:39:28.905Z</time>
      </trkpt>
      <trkpt lat="47.484611" lon="8.138600">
        <ele>579.653327</ele>
        <time>2021-11-21T23:39:38.870Z</time>
      </trkpt>
      <trkpt lat="47.485087" lon="8.139024">
        <ele>580.321909</ele>
        <time>2021-11-21T23:39:46.486Z</time>
      </trkpt>
      <trkpt lat="47.485614" lon="8.139130">
        <ele>580.123684</ele>
        <time>2021-11-21T23:39:53.696Z</time>
      </trkpt>
      <trkpt lat="47.485679" lon="8.139129">
        <ele>580.099456</ele>
        <time>2021-11-21T23:39:54.452Z</time>
      </trkpt>
      <trkpt lat="47.485769" lon="8.139093">
        <ele>580.064708</ele>
        <time>2021-11-21T23:39:58.244Z</time>
      </trkpt>
      <trkpt lat="47.485914" lon="8.138973">
        <ele>580.002787</ele>
        <time>2021-11-21T23:40:04.078Z</time>
      </trkpt>
      <trkpt lat="47.486150" lon="8.138614">
        <ele>579.876641</ele>
        <time>2021-11-21T23:40:16.085Z</time>
      </trkpt>
      <trkpt lat="47.486244" lon="8.138406">
        <ele>579.813617</ele>
        <time>2021-11-21T23:40:22.016Z</time>
      </trkpt>
      <trkpt lat="47.486385" lon="8.138090">
        <ele>579.718243</ele>
        <time>2021-11-21T23:40:30.892Z</time>
      </trkpt>
      <trkpt lat="47.486480" lon="8.137926">
        <ele>579.630949</ele>
        <time>2021-11-21T23:40:36.446Z</time>
      </trkpt>
      <trkpt lat="47.486500" lon="8.137887">
        <ele>579.594162</ele>
        <time>2021-11-21T23:40:37.618Z</time>
      </trkpt>
      <trkpt lat="47.486625" lon="8.137748">
        <ele>579.420304</ele>
        <time>2021-11-21T23:40:39.670Z</time>
      </trkpt>
      <trkpt lat="47.486647" lon="8.137734">
        <ele>579.393676</ele>
        <time>2021-11-21T23:40:39.906Z</time>
      </trkpt>
      <trkpt lat="47.487220" lon="8.137494">
        <ele>578.731519</ele>
        <time>2021-11-21T23:40:47.907Z</time>
      </trkpt>
      <trkpt lat="47.487735" lon="8.137374">
        <ele>578.151827</ele>
        <time>2021-11-21T23:40:53.860Z</time>
      </trkpt>
      <trkpt lat="47.488213" lon="8.137151">
        <ele>577.593980</ele>
        <time>2021-11-21T23:40:59.436Z</time>
      </trkpt>
      <trkpt lat="47.488465" lon="8.137151">
        <ele>577.311938</ele>
        <time>2021-11-21T23:41:02.290Z</time>
      </trkpt>
      <trkpt lat="47.488649" lon="8.137254">
        <ele>577.091761</ele>
        <time>2021-11-21T23:41:04.566Z</time>
      </trkpt>
      <trkpt lat="47.488837" lon="8.137371">
        <ele>576.863500</ele>
        <time>2021-11-21T23:41:06.879Z</time>
      </trkpt>
      <trkpt lat="47.488954" lon="8.137431">
        <ele>576.724912</ele>
        <time>2021-11-21T23:41:08.351Z</time>
      </trkpt>
      <trkpt lat="47.489423" lon="8.137655">
        <ele>576.173339</ele>
        <time>2021-11-21T23:41:14.324Z</time>
      </trkpt>
      <trkpt lat="47.489880" lon="8.137807">
        <ele>575.676545</ele>
        <time>2021-11-21T23:41:20.347Z</time>
      </trkpt>
      <trkpt lat="47.490265" lon="8.137935">
        <ele>575.896937</ele>
        <time>2021-11-21T23:41:25.898Z</time>
      </trkpt>
      <trkpt lat="47.490479" lon="8.137973">
        <ele>576.017319</ele>
        <time>2021-11-21T23:41:29.333Z</time>
      </trkpt>
      <trkpt lat="47.490906" lon="8.138091">
        <ele>576.259932</ele>
        <time>2021-11-21T23:41:37.282Z</time>
      </trkpt>
      <trkpt lat="47.491438" lon="8.138230">
        <ele>576.561662</ele>
        <time>2021-11-21T23:41:48.108Z</time>
      </trkpt>
      <trkpt lat="47.491600" lon="8.138244">
        <ele>576.652298</ele>
        <time>2021-11-21T23:41:51.186Z</time>
      </trkpt>
      <trkpt lat="47.492088" lon="8.138269">
        <ele>576.586433</ele>
        <time>2021-11-21T23:42:00.408Z</time>
      </trkpt>
      <trkpt lat="47.492211" lon="8.138284">
        <ele>576.563124</ele>
        <time>2021-11-21T23:42:02.759Z</time>
      </trkpt>
      <trkpt lat="47.492313" lon="8.138377">
        <ele>576.540496</ele>
        <time>2021-11-21T23:42:04.844Z</time>
      </trkpt>
      <trkpt lat="47.492359" lon="8.138479">
        <ele>576.524846</ele>
        <time>2021-11-21T23:42:06.234Z</time>
      </trkpt>
      <trkpt lat="47.492379" lon="8.138603">
        <ele>576.508577</ele>
        <time>2021-11-21T23:42:07.924Z</time>
      </trkpt>
      <trkpt lat="47.492448" lon="8.139204">
        <ele>576.430779</ele>
        <time>2021-11-21T23:42:13.310Z</time>
      </trkpt>
      <trkpt lat="47.492651" lon="8.141002">
        <ele>573.767124</ele>
        <time>2021-11-21T23:42:27.200Z</time>
      </trkpt>
      <trkpt lat="47.492634" lon="8.141132">
        <ele>573.443989</ele>
        <time>2021-11-21T23:42:28.046Z</time>
      </trkpt>
      <trkpt lat="47.492604" lon="8.141229">
        <ele>573.183654</ele>
        <time>2021-11-21T23:42:28.733Z</time>
      </trkpt>
      <trkpt lat="47.492178" lon="8.141991">
        <ele>570.770097</ele>
        <time>2021-11-21T23:42:35.153Z</time>
      </trkpt>
      <trkpt lat="47.492091" lon="8.142144">
        <ele>570.282095</ele>
        <time>2021-11-21T23:42:36.412Z</time>
      </trkpt>
      <trkpt lat="47.492031" lon="8.142263">
        <ele>569.919746</ele>
        <time>2021-11-21T23:42:37.356Z</time>
      </trkpt>
      <trkpt lat="47.491977" lon="8.142556">
        <ele>568.831384</ele>
        <time>2021-11-21T23:42:39.233Z</time>
      </trkpt>
      <trkpt lat="47.491957" lon="8.142795">
        <ele>567.933336</ele>
        <time>2021-11-21T23:42:40.750Z</time>
      </trkpt>
      <trkpt lat="47.491953" lon="8.143034">
        <ele>567.041823</ele>
        <time>2021-11-21T23:42:42.205Z</time>
      </trkpt>
      <trkpt lat="47.491965" lon="8.143321">
        <ele>565.969543</ele>
        <time>2021-11-21T23:42:43.993Z</time>
      </trkpt>
      <trkpt lat="47.492011" lon="8.143597">
        <ele>564.909484</ele>
        <time>2021-11-21T23:42:45.801Z</time>
      </trkpt>
      <trkpt lat="47.492053" lon="8.143800">
        <ele>564.117799</ele>
        <time>2021-11-21T23:42:47.106Z</time>
      </trkpt>
      <trkpt lat="47.492087" lon="8.143971">
        <ele>563.453101</ele>
        <time>2021-11-21T23:42:48.255Z</time>
      </trkpt>
      <trkpt lat="47.492087" lon="8.144186">
        <ele>562.651360</ele>
        <time>2021-11-21T23:42:49.597Z</time>
      </trkpt>
      <trkpt lat="47.492088" lon="8.144557">
        <ele>561.267881</ele>
        <time>2021-11-21T23:42:51.903Z</time>
      </trkpt>
      <trkpt lat="47.492088" lon="8.145158">
        <ele>559.361744</ele>
        <time>2021-11-21T23:42:55.668Z</time>
      </trkpt>
      <trkpt lat="47.492088" lon="8.145254">
        <ele>559.139578</ele>
        <time>2021-11-21T23:42:56.286Z</time>
      </trkpt>
      <trkpt lat="47.492082" lon="8.145838">
        <ele>557.787913</ele>
        <time>2021-11-21T23:43:00.067Z</time>
      </trkpt>
      <trkpt lat="47.492079" lon="8.146009">
        <ele>557.392047</ele>
        <time>2021-11-21T23:43:01.225Z</time>
      </trkpt>
      <trkpt lat="47.492088" lon="8.146482">
        <ele>556.296983</ele>
        <time>2021-11-21T23:43:04.404Z</time>
      </trkpt>
      <trkpt lat="47.492125" lon="8.146571">
        <ele>556.055154</ele>
        <time>2021-11-21T23:43:05.132Z</time>
      </trkpt>
      <trkpt lat="47.492241" lon="8.146624">
        <ele>555.639355</ele>
        <time>2021-11-21T23:43:06.317Z</time>
      </trkpt>
      <trkpt lat="47.492464" lon="8.146635">
        <ele>554.875162</ele>
        <time>2021-11-21T23:43:08.718Z</time>
      </trkpt>
      <trkpt lat="47.494351" lon="8.146113">
        <ele>552.165901</ele>
        <time>2021-11-21T23:43:31.665Z</time>
      </trkpt>
      <trkpt lat="47.494476" lon="8.146116">
        <ele>552.041472</ele>
        <time>2021-11-21T23:43:33.630Z</time>
      </trkpt>
      <trkpt lat="47.494550" lon="8.146113">
        <ele>551.967792</ele>
        <time>2021-11-21T23:43:34.819Z</time>
      </trkpt>
      <trkpt lat="47.494812" lon="8.146134">
        <ele>551.981505</ele>
        <time>2021-11-21T23:43:38.686Z</time>
      </trkpt>
      <trkpt lat="47.495167" lon="8.146162">
        <ele>552.012714</ele>
        <time>2021-11-21T23:43:44.446Z</time>
      </trkpt>
      <trkpt lat="47.495291" lon="8.146216">
        <ele>552.024061</ele>
        <time>2021-11-21T23:43:46.731Z</time>
      </trkpt>
      <trkpt lat="47.495330" lon="8.146238">
        <ele>552.027725</ele>
        <time>2021-11-21T23:43:47.376Z</time>
      </trkpt>
      <trkpt lat="47.495531" lon="8.146431">
        <ele>552.048759</ele>
        <time>2021-11-21T23:43:51.703Z</time>
      </trkpt>
      <trkpt lat="47.495811" lon="8.147525">
        <ele>552.103499</ele>
        <time>2021-11-21T23:44:04.145Z</time>
      </trkpt>
      <trkpt lat="47.496048" lon="8.148514">
        <ele>551.273311</ele>
        <time>2021-11-21T23:44:12.838Z</time>
      </trkpt>
      <trkpt lat="47.496081" lon="8.148674">
        <ele>551.140964</ele>
        <time>2021-11-21T23:44:14.136Z</time>
      </trkpt>
      <trkpt lat="47.496114" lon="8.148836">
        <ele>551.007102</ele>
        <time>2021-11-21T23:44:15.493Z</time>
      </trkpt>
      <trkpt lat="47.496100" lon="8.148965">
        <ele>550.903738</ele>
        <time>2021-11-21T23:44:16.475Z</time>
      </trkpt>
      <trkpt lat="47.496064" lon="8.149222">
        <ele>550.696093</ele>
        <time>2021-11-21T23:44:18.465Z</time>
      </trkpt>
      <trkpt lat="47.495916" lon="8.150228">
        <ele>549.903809</ele>
        <time>2021-11-21T23:44:26.361Z</time>
      </trkpt>
      <trkpt lat="47.495907" lon="8.150548">
        <ele>549.693964</ele>
        <time>2021-11-21T23:44:28.940Z</time>
      </trkpt>
      <trkpt lat="47.495926" lon="8.150795">
        <ele>549.531085</ele>
        <time>2021-11-21T23:44:30.813Z</time>
      </trkpt>
      <trkpt lat="47.495980" lon="8.151500">
        <ele>549.066211</ele>
        <time>2021-11-21T23:44:36.636Z</time>
      </trkpt>
      <trkpt lat="47.496013" lon="8.152224">
        <ele>548.590770</ele>
        <time>2021-11-21T23:44:42.795Z</time>
      </trkpt>
      <trkpt lat="47.496031" lon="8.152401">
        <ele>548.473493</ele>
        <time>2021-11-21T23:44:44.493Z</time>
      </trkpt>
      <trkpt lat="47.496043" lon="8.152517">
        <ele>548.396605</ele>
        <time>2021-11-21T23:44:45.902Z</time>
      </trkpt>
      <trkpt lat="47.496252" lon="8.153481">
        <ele>547.389620</ele>
        <time>2021-11-21T23:44:55.146Z</time>
      </trkpt>
      <trkpt lat="47.496295" lon="8.153600">
        <ele>547.244251</ele>
        <time>2021-11-21T23:44:56.829Z</time>
      </trkpt>
      <trkpt lat="47.496354" lon="8.153743">
        <ele>547.063760</ele>
        <time>2021-11-21T23:44:58.079Z</time>
      </trkpt>
      <trkpt lat="47.496607" lon="8.154090">
        <ele>546.513825</ele>
        <time>2021-11-21T23:45:02.195Z</time>
      </trkpt>
      <trkpt lat="47.496673" lon="8.154171">
        <ele>546.377129</ele>
        <time>2021-11-21T23:45:03.195Z</time>
      </trkpt>
      <trkpt lat="47.496872" lon="8.154444">
        <ele>545.944527</ele>
        <time>2021-11-21T23:45:06.068Z</time>
      </trkpt>
      <trkpt lat="47.496927" lon="8.154519">
        <ele>545.825294</ele>
        <time>2021-11-21T23:45:06.845Z</time>
      </trkpt>
      <trkpt lat="47.497011" lon="8.154633">
        <ele>545.643591</ele>
        <time>2021-11-21T23:45:08.003Z</time>
      </trkpt>
      <trkpt lat="47.497059" lon="8.154725">
        <ele>545.518380</ele>
        <time>2021-11-21T23:45:08.806Z</time>
      </trkpt>
      <trkpt lat="47.497215" lon="8.155097">
        <ele>544.644788</ele>
        <time>2021-11-21T23:45:11.715Z</time>
      </trkpt>
      <trkpt lat="47.497351" lon="8.155541">
        <ele>543.520645</ele>
        <time>2021-11-21T23:45:14.958Z</time>
      </trkpt>
      <trkpt lat="47.497376" lon="8.155653">
        <ele>543.248651</ele>
        <time>2021-11-21T23:45:15.721Z</time>
      </trkpt>
      <trkpt lat="47.497382" lon="8.155739">
        <ele>543.049286</ele>
        <time>2021-11-21T23:45:16.277Z</time>
      </trkpt>
      <trkpt lat="47.497390" lon="8.155891">
        <ele>542.697723</ele>
        <time>2021-11-21T23:45:17.408Z</time>
      </trkpt>
      <trkpt lat="47.497388" lon="8.155994">
        <ele>542.460114</ele>
        <time>2021-11-21T23:45:18.057Z</time>
      </trkpt>
      <trkpt lat="47.497386" lon="8.156131">
        <ele>542.144127</ele>
        <time>2021-11-21T23:45:18.962Z</time>
      </trkpt>
      <trkpt lat="47.497390" lon="8.156282">
        <ele>541.795664</ele>
        <time>2021-11-21T23:45:19.950Z</time>
      </trkpt>
      <trkpt lat="47.497395" lon="8.156369">
        <ele>541.594324</ele>
        <time>2021-11-21T23:45:20.598Z</time>
      </trkpt>
      <trkpt lat="47.497401" lon="8.156439">
        <ele>541.431615</ele>
        <time>2021-11-21T23:45:21.096Z</time>
      </trkpt>
      <trkpt lat="47.497410" lon="8.156510">
        <ele>541.265037</ele>
        <time>2021-11-21T23:45:21.550Z</time>
      </trkpt>
      <trkpt lat="47.497515" lon="8.156974">
        <ele>540.136665</ele>
        <time>2021-11-21T23:45:24.905Z</time>
      </trkpt>
      <trkpt lat="47.497556" lon="8.157098">
        <ele>539.818325</ele>
        <time>2021-11-21T23:45:25.806Z</time>
      </trkpt>
      <trkpt lat="47.497620" lon="8.157313">
        <ele>539.276564</ele>
        <time>2021-11-21T23:45:27.423Z</time>
      </trkpt>
      <trkpt lat="47.497677" lon="8.157483">
        <ele>539.024142</ele>
        <time>2021-11-21T23:45:28.786Z</time>
      </trkpt>
      <trkpt lat="47.497717" lon="8.157596">
        <ele>538.859274</ele>
        <time>2021-11-21T23:45:29.659Z</time>
      </trkpt>
      <trkpt lat="47.497827" lon="8.157898">
        <ele>538.415875</ele>
        <time>2021-11-21T23:45:32.160Z</time>
      </trkpt>
      <trkpt lat="47.497875" lon="8.158014">
        <ele>538.240078</ele>
        <time>2021-11-21T23:45:33.058Z</time>
      </trkpt>
      <trkpt lat="47.498196" lon="8.158878">
        <ele>536.965787</ele>
        <time>2021-11-21T23:45:40.914Z</time>
      </trkpt>
      <trkpt lat="47.498560" lon="8.159790">
        <ele>535.583498</ele>
        <time>2021-11-21T23:45:49.281Z</time>
      </trkpt>
      <trkpt lat="47.498722" lon="8.160237">
        <ele>534.888643</ele>
        <time>2021-11-21T23:45:53.102Z</time>
      </trkpt>
      <trkpt lat="47.498784" lon="8.160412">
        <ele>534.617960</ele>
        <time>2021-11-21T23:45:54.602Z</time>
      </trkpt>
      <trkpt lat="47.498832" lon="8.160548">
        <ele>534.407773</ele>
        <time>2021-11-21T23:45:55.673Z</time>
      </trkpt>
      <trkpt lat="47.498881" lon="8.160699">
        <ele>534.178306</ele>
        <time>2021-11-21T23:45:56.934Z</time>
      </trkpt>
      <trkpt lat="47.498981" lon="8.161060">
        <ele>533.643844</ele>
        <time>2021-11-21T23:45:59.744Z</time>
      </trkpt>
      <trkpt lat="47.499088" lon="8.161438">
        <ele>533.082436</ele>
        <time>2021-11-21T23:46:04.176Z</time>
      </trkpt>
      <trkpt lat="47.499203" lon="8.161843">
        <ele>532.480648</ele>
        <time>2021-11-21T23:46:08.796Z</time>
      </trkpt>
      <trkpt lat="47.499263" lon="8.162040">
        <ele>532.184639</ele>
        <time>2021-11-21T23:46:10.939Z</time>
      </trkpt>
      <trkpt lat="47.499391" lon="8.162488">
        <ele>531.226831</ele>
        <time>2021-11-21T23:46:16.108Z</time>
      </trkpt>
      <trkpt lat="47.499404" lon="8.162533">
        <ele>531.129933</ele>
        <time>2021-11-21T23:46:16.559Z</time>
      </trkpt>
      <trkpt lat="47.499421" lon="8.162591">
        <ele>531.004759</ele>
        <time>2021-11-21T23:46:17.259Z</time>
      </trkpt>
      <trkpt lat="47.499529" lon="8.163016">
        <ele>530.105754</ele>
        <time>2021-11-21T23:46:21.765Z</time>
      </trkpt>
      <trkpt lat="47.499561" lon="8.163178">
        <ele>529.771585</ele>
        <time>2021-11-21T23:46:23.550Z</time>
      </trkpt>
      <trkpt lat="47.499570" lon="8.163256">
        <ele>529.614919</ele>
        <time>2021-11-21T23:46:24.391Z</time>
      </trkpt>
      <trkpt lat="47.499593" lon="8.163439">
        <ele>529.246385</ele>
        <time>2021-11-21T23:46:26.198Z</time>
      </trkpt>
      <trkpt lat="47.499606" lon="8.163585">
        <ele>528.954824</ele>
        <time>2021-11-21T23:46:27.586Z</time>
      </trkpt>
      <trkpt lat="47.499674" lon="8.164221">
        <ele>527.679953</ele>
        <time>2021-11-21T23:46:34.038Z</time>
      </trkpt>
      <trkpt lat="47.499702" lon="8.164369">
        <ele>527.375659</ele>
        <time>2021-11-21T23:46:35.645Z</time>
      </trkpt>
      <trkpt lat="47.499759" lon="8.164579">
        <ele>526.927585</ele>
        <time>2021-11-21T23:46:37.758Z</time>
      </trkpt>
      <trkpt lat="47.499842" lon="8.164848">
        <ele>526.017063</ele>
        <time>2021-11-21T23:46:40.783Z</time>
      </trkpt>
      <trkpt lat="47.499926" lon="8.165012">
        <ele>525.373002</ele>
        <time>2021-11-21T23:46:42.693Z</time>
      </trkpt>
      <trkpt lat="47.500134" lon="8.165378">
        <ele>523.876257</ele>
        <time>2021-11-21T23:46:47.286Z</time>
      </trkpt>
      <trkpt lat="47.502034" lon="8.167757">
        <ele>511.190816</ele>
        <time>2021-11-21T23:47:20.618Z</time>
      </trkpt>
      <trkpt lat="47.502350" lon="8.168167">
        <ele>508.882106</ele>
        <time>2021-11-21T23:47:26.137Z</time>
      </trkpt>
      <trkpt lat="47.502442" lon="8.168297">
        <ele>508.110056</ele>
        <time>2021-11-21T23:47:27.783Z</time>
      </trkpt>
      <trkpt lat="47.502592" lon="8.168598">
        <ele>506.520271</ele>
        <time>2021-11-21T23:47:31.191Z</time>
      </trkpt>
      <trkpt lat="47.502673" lon="8.169021">
        <ele>504.651540</ele>
        <time>2021-11-21T23:47:35.005Z</time>
      </trkpt>
      <trkpt lat="47.502683" lon="8.169092">
        <ele>504.343276</ele>
        <time>2021-11-21T23:47:35.612Z</time>
      </trkpt>
      <trkpt lat="47.502671" lon="8.169362">
        <ele>503.193200</ele>
        <time>2021-11-21T23:47:37.921Z</time>
      </trkpt>
      <trkpt lat="47.502484" lon="8.170679">
        <ele>497.473171</ele>
        <time>2021-11-21T23:47:49.748Z</time>
      </trkpt>
      <trkpt lat="47.502485" lon="8.170923">
        <ele>496.920858</ele>
        <time>2021-11-21T23:47:51.896Z</time>
      </trkpt>
      <trkpt lat="47.502508" lon="8.171201">
        <ele>496.347312</ele>
        <time>2021-11-21T23:47:54.446Z</time>
      </trkpt>
      <trkpt lat="47.502619" lon="8.171809">
        <ele>495.057578</ele>
        <time>2021-11-21T23:48:00.302Z</time>
      </trkpt>
      <trkpt lat="47.502811" lon="8.172326">
        <ele>493.849434</ele>
        <time>2021-11-21T23:48:06.176Z</time>
      </trkpt>
      <trkpt lat="47.503046" lon="8.172726">
        <ele>492.763890</ele>
        <time>2021-11-21T23:48:11.778Z</time>
      </trkpt>
      <trkpt lat="47.503241" lon="8.173095">
        <ele>492.015002</ele>
        <time>2021-11-21T23:48:17.384Z</time>
      </trkpt>
      <trkpt lat="47.503578" lon="8.174407">
        <ele>494.408023</ele>
        <time>2021-11-21T23:48:45.297Z</time>
      </trkpt>
      <trkpt lat="47.504359" lon="8.176727">
        <ele>496.854822</ele>
        <time>2021-11-21T23:49:47.948Z</time>
      </trkpt>
      <trkpt lat="47.504903" lon="8.177799">
        <ele>496.835446</ele>
        <time>2021-11-21T23:50:02.070Z</time>
      </trkpt>
      <trkpt lat="47.505251" lon="8.178301">
        <ele>492.762324</ele>
        <time>2021-11-21T23:50:08.345Z</time>
      </trkpt>
      <trkpt lat="47.505832" lon="8.179262">
        <ele>485.459430</ele>
        <time>2021-11-21T23:50:19.106Z</time>
      </trkpt>
      <trkpt lat="47.506131" lon="8.179709">
        <ele>481.800882</ele>
        <time>2021-11-21T23:50:24.255Z</time>
      </trkpt>
      <trkpt lat="47.506365" lon="8.179981">
        <ele>478.318821</ele>
        <time>2021-11-21T23:50:27.753Z</time>
      </trkpt>
      <trkpt lat="47.507430" lon="8.180615">
        <ele>464.884248</ele>
        <time>2021-11-21T23:50:41.457Z</time>
      </trkpt>
      <trkpt lat="47.507553" lon="8.180721">
        <ele>463.218530</ele>
        <time>2021-11-21T23:50:43.200Z</time>
      </trkpt>
      <trkpt lat="47.507652" lon="8.180805">
        <ele>461.883039</ele>
        <time>2021-11-21T23:50:44.551Z</time>
      </trkpt>
      <trkpt lat="47.508201" lon="8.181335">
        <ele>454.825098</ele>
        <time>2021-11-21T23:50:52.515Z</time>
      </trkpt>
      <trkpt lat="47.508585" lon="8.181852">
        <ele>449.291620</ele>
        <time>2021-11-21T23:50:58.741Z</time>
      </trkpt>
      <trkpt lat="47.509183" lon="8.183139">
        <ele>438.770120</ele>
        <time>2021-11-21T23:51:11.599Z</time>
      </trkpt>
      <trkpt lat="47.509381" lon="8.183901">
        <ele>433.995193</ele>
        <time>2021-11-21T23:51:18.435Z</time>
      </trkpt>
      <trkpt lat="47.509617" lon="8.184928">
        <ele>427.650744</ele>
        <time>2021-11-21T23:51:27.605Z</time>
      </trkpt>
      <trkpt lat="47.509786" lon="8.185474">
        <ele>424.599732</ele>
        <time>2021-11-21T23:51:32.757Z</time>
      </trkpt>
      <trkpt lat="47.509919" lon="8.185768">
        <ele>422.963796</ele>
        <time>2021-11-21T23:51:35.858Z</time>
      </trkpt>
      <trkpt lat="47.510052" lon="8.186096">
        <ele>421.195093</ele>
        <time>2021-11-21T23:51:39.266Z</time>
      </trkpt>
      <trkpt lat="47.510128" lon="8.186327">
        <ele>420.007161</ele>
        <time>2021-11-21T23:51:41.509Z</time>
      </trkpt>
      <trkpt lat="47.510377" lon="8.187197">
        <ele>415.638730</ele>
        <time>2021-11-21T23:51:49.733Z</time>
      </trkpt>
      <trkpt lat="47.510603" lon="8.188275">
        <ele>410.697162</ele>
        <time>2021-11-21T23:51:59.563Z</time>
      </trkpt>
      <trkpt lat="47.510767" lon="8.188976">
        <ele>407.530396</ele>
        <time>2021-11-21T23:52:06.030Z</time>
      </trkpt>
      <trkpt lat="47.510882" lon="8.189435">
        <ele>405.440620</ele>
        <time>2021-11-21T23:52:10.372Z</time>
      </trkpt>
      <trkpt lat="47.511047" lon="8.190214">
        <ele>402.184864</ele>
        <time>2021-11-21T23:52:17.635Z</time>
      </trkpt>
      <trkpt lat="47.511107" lon="8.190519">
        <ele>401.267989</ele>
        <time>2021-11-21T23:52:20.455Z</time>
      </trkpt>
      <trkpt lat="47.511107" lon="8.190519">
        <ele>401.267989</ele>
        <time>2021-11-21T23:52:20.463Z</time>
      </trkpt>
      <trkpt lat="47.511195" lon="8.190842">
        <ele>400.262757</ele>
        <time>2021-11-21T23:52:23.633Z</time>
      </trkpt>
      <trkpt lat="47.511480" lon="8.191489">
        <ele>398.033361</ele>
        <time>2021-11-21T23:52:30.846Z</time>
      </trkpt>
      <trkpt lat="47.511503" lon="8.191538">
        <ele>397.861141</ele>
        <time>2021-11-21T23:52:31.394Z</time>
      </trkpt>
      <trkpt lat="47.511548" lon="8.191673">
        <ele>397.426639</ele>
        <time>2021-11-21T23:52:32.952Z</time>
      </trkpt>
      <trkpt lat="47.511548" lon="8.191673">
        <ele>397.426639</ele>
        <time>2021-11-21T23:52:32.958Z</time>
      </trkpt>
      <trkpt lat="47.511473" lon="8.191711">
        <ele>397.087912</ele>
        <time>2021-11-21T23:52:33.757Z</time>
      </trkpt>
      <trkpt lat="47.511365" lon="8.191770">
        <ele>396.596006</ele>
        <time>2021-11-21T23:52:34.895Z</time>
      </trkpt>
      <trkpt lat="47.510861" lon="8.191928">
        <ele>394.717626</ele>
        <time>2021-11-21T23:52:40.141Z</time>
      </trkpt>
      <trkpt lat="47.510696" lon="8.191960">
        <ele>394.400466</ele>
        <time>2021-11-21T23:52:41.952Z</time>
      </trkpt>
      <trkpt lat="47.510685" lon="8.192072">
        <ele>394.254767</ele>
        <time>2021-11-21T23:52:43.122Z</time>
      </trkpt>
      <trkpt lat="47.510331" lon="8.194861">
        <ele>391.094062</ele>
        <time>2021-11-21T23:53:14.353Z</time>
      </trkpt>
      <trkpt lat="47.510011" lon="8.197478">
        <ele>389.423252</ele>
        <time>2021-11-21T23:53:47.048Z</time>
      </trkpt>
      <trkpt lat="47.509922" lon="8.198171">
        <ele>388.962202</ele>
        <time>2021-11-21T23:53:55.727Z</time>
      </trkpt>
      <trkpt lat="47.509914" lon="8.198214">
        <ele>388.933051</ele>
        <time>2021-11-21T23:53:56.230Z</time>
      </trkpt>
      <trkpt lat="47.509681" lon="8.200064">
        <ele>387.346139</ele>
        <time>2021-11-21T23:54:17.441Z</time>
      </trkpt>
      <trkpt lat="47.509592" lon="8.200917">
        <ele>386.343324</ele>
        <time>2021-11-21T23:54:26.879Z</time>
      </trkpt>
      <trkpt lat="47.509353" lon="8.202637">
        <ele>383.716102</ele>
        <time>2021-11-21T23:54:45.632Z</time>
      </trkpt>
      <trkpt lat="47.509269" lon="8.202990">
        <ele>382.947681</ele>
        <time>2021-11-21T23:54:49.473Z</time>
      </trkpt>
      <trkpt lat="47.509150" lon="8.203272">
        <ele>382.264993</ele>
        <time>2021-11-21T23:54:52.763Z</time>
      </trkpt>
      <trkpt lat="47.508866" lon="8.203850">
        <ele>380.797509</ele>
        <time>2021-11-21T23:54:59.837Z</time>
      </trkpt>
      <trkpt lat="47.508829" lon="8.203955">
        <ele>380.554355</ele>
        <time>2021-11-21T23:55:01.006Z</time>
      </trkpt>
      <trkpt lat="47.508821" lon="8.204282">
        <ele>379.882528</ele>
        <time>2021-11-21T23:55:04.004Z</time>
      </trkpt>
      <trkpt lat="47.508917" lon="8.204543">
        <ele>379.095495</ele>
        <time>2021-11-21T23:55:06.941Z</time>
      </trkpt>
      <trkpt lat="47.508985" lon="8.204741">
        <ele>378.394109</ele>
        <time>2021-11-21T23:55:08.904Z</time>
      </trkpt>
      <trkpt lat="47.509021" lon="8.204884">
        <ele>377.912224</ele>
        <time>2021-11-21T23:55:10.425Z</time>
      </trkpt>
      <trkpt lat="47.509032" lon="8.205060">
        <ele>377.354104</ele>
        <time>2021-11-21T23:55:12.051Z</time>
      </trkpt>
      <trkpt lat="47.509149" lon="8.205132">
        <ele>376.761793</ele>
        <time>2021-11-21T23:55:13.202Z</time>
      </trkpt>
      <trkpt lat="47.509289" lon="8.205248">
        <ele>376.011804</ele>
        <time>2021-11-21T23:55:14.825Z</time>
      </trkpt>
      <trkpt lat="47.509425" lon="8.205362">
        <ele>375.281208</ele>
        <time>2021-11-21T23:55:16.277Z</time>
      </trkpt>
      <trkpt lat="47.509425" lon="8.205362">
        <ele>375.281208</ele>
        <time>2021-11-21T23:55:16.283Z</time>
      </trkpt>
      <trkpt lat="47.509576" lon="8.205502">
        <ele>374.448326</ele>
        <time>2021-11-21T23:55:17.995Z</time>
      </trkpt>
      <trkpt lat="47.509781" lon="8.205702">
        <ele>373.300638</ele>
        <time>2021-11-21T23:55:20.252Z</time>
      </trkpt>
      <trkpt lat="47.509957" lon="8.205884">
        <ele>372.297056</ele>
        <time>2021-11-21T23:55:22.331Z</time>
      </trkpt>
      <trkpt lat="47.510110" lon="8.206036">
        <ele>371.435713</ele>
        <time>2021-11-21T23:55:24.052Z</time>
      </trkpt>
      <trkpt lat="47.510310" lon="8.206228">
        <ele>370.683076</ele>
        <time>2021-11-21T23:55:26.322Z</time>
      </trkpt>
      <trkpt lat="47.510696" lon="8.206660">
        <ele>369.359699</ele>
        <time>2021-11-21T23:55:31.084Z</time>
      </trkpt>
      <trkpt lat="47.510746" lon="8.206745">
        <ele>369.151481</ele>
        <time>2021-11-21T23:55:31.851Z</time>
      </trkpt>
      <trkpt lat="47.510799" lon="8.206834">
        <ele>368.932297</ele>
        <time>2021-11-21T23:55:32.710Z</time>
      </trkpt>
      <trkpt lat="47.510868" lon="8.206975">
        <ele>368.610652</ele>
        <time>2021-11-21T23:55:33.884Z</time>
      </trkpt>
      <trkpt lat="47.511087" lon="8.207326">
        <ele>367.727949</ele>
        <time>2021-11-21T23:55:37.392Z</time>
      </trkpt>
      <trkpt lat="47.511287" lon="8.207539">
        <ele>367.054145</ele>
        <time>2021-11-21T23:55:40.140Z</time>
      </trkpt>
      <trkpt lat="47.511545" lon="8.207730">
        <ele>366.272165</ele>
        <time>2021-11-21T23:55:43.679Z</time>
      </trkpt>
      <trkpt lat="47.511830" lon="8.207951">
        <ele>366.100869</ele>
        <time>2021-11-21T23:55:47.972Z</time>
      </trkpt>
      <trkpt lat="47.512289" lon="8.208244">
        <ele>365.834736</ele>
        <time>2021-11-21T23:55:54.995Z</time>
      </trkpt>
      <trkpt lat="47.512464" lon="8.208323">
        <ele>365.737326</ele>
        <time>2021-11-21T23:55:57.506Z</time>
      </trkpt>
      <trkpt lat="47.513508" lon="8.208805">
        <ele>365.097775</ele>
        <time>2021-11-21T23:56:12.036Z</time>
      </trkpt>
      <trkpt lat="47.513709" lon="8.208886">
        <ele>364.947423</ele>
        <time>2021-11-21T23:56:14.787Z</time>
      </trkpt>
      <trkpt lat="47.513775" lon="8.209324">
        <ele>364.728654</ele>
        <time>2021-11-21T23:56:18.621Z</time>
      </trkpt>
      <trkpt lat="47.513828" lon="8.209683">
        <ele>364.549513</ele>
        <time>2021-11-21T23:56:21.790Z</time>
      </trkpt>
      <trkpt lat="47.513875" lon="8.210161">
        <ele>364.314038</ele>
        <time>2021-11-21T23:56:25.920Z</time>
      </trkpt>
      <trkpt lat="47.513886" lon="8.210522">
        <ele>364.137876</ele>
        <time>2021-11-21T23:56:28.956Z</time>
      </trkpt>
      <trkpt lat="47.513892" lon="8.210732">
        <ele>364.035412</ele>
        <time>2021-11-21T23:56:30.700Z</time>
      </trkpt>
      <trkpt lat="47.513892" lon="8.211277">
        <ele>363.829527</ele>
        <time>2021-11-21T23:56:35.138Z</time>
      </trkpt>
      <trkpt lat="47.513868" lon="8.212369">
        <ele>363.425195</ele>
        <time>2021-11-21T23:56:44.755Z</time>
      </trkpt>
      <trkpt lat="47.514119" lon="8.212384">
        <ele>363.287555</ele>
        <time>2021-11-21T23:56:49.623Z</time>
      </trkpt>
      <trkpt lat="47.514469" lon="8.212440">
        <ele>363.094666</ele>
        <time>2021-11-21T23:56:56.420Z</time>
      </trkpt>
      <trkpt lat="47.514567" lon="8.212469">
        <ele>363.039908</ele>
        <time>2021-11-21T23:56:58.236Z</time>
      </trkpt>
      <trkpt lat="47.515044" lon="8.212902">
        <ele>362.763482</ele>
        <time>2021-11-21T23:57:09.212Z</time>
      </trkpt>
      <trkpt lat="47.515199" lon="8.213043">
        <ele>362.673849</ele>
        <time>2021-11-21T23:57:12.640Z</time>
      </trkpt>
      <trkpt lat="47.515439" lon="8.213200">
        <ele>362.544572</ele>
        <time>2021-11-21T23:57:17.509Z</time>
      </trkpt>
      <trkpt lat="47.516357" lon="8.213867">
        <ele>361.958614</ele>
        <time>2021-11-21T23:57:35.892Z</time>
      </trkpt>
      <trkpt lat="47.516450" lon="8.213978">
        <ele>361.853957</ele>
        <time>2021-11-21T23:57:38.026Z</time>
      </trkpt>
      <trkpt lat="47.516592" lon="8.214194">
        <ele>361.675591</ele>
        <time>2021-11-21T23:57:41.788Z</time>
      </trkpt>
      <trkpt lat="47.516853" lon="8.214613">
        <ele>361.338306</ele>
        <time>2021-11-21T23:57:48.696Z</time>
      </trkpt>
      <trkpt lat="47.516927" lon="8.214681">
        <ele>361.262000</ele>
        <time>2021-11-21T23:57:50.138Z</time>
      </trkpt>
      <trkpt lat="47.517061" lon="8.214737">
        <ele>361.140011</ele>
        <time>2021-11-21T23:57:52.616Z</time>
      </trkpt>
      <trkpt lat="47.517598" lon="8.214691">
        <ele>360.668737</ele>
        <time>2021-11-21T23:58:01.823Z</time>
      </trkpt>
      <trkpt lat="47.517727" lon="8.214690">
        <ele>360.558918</ele>
        <time>2021-11-21T23:58:04.013Z</time>
      </trkpt>
      <trkpt lat="47.517865" lon="8.214707">
        <ele>360.464047</ele>
        <time>2021-11-21T23:58:06.393Z</time>
      </trkpt>
      <trkpt lat="47.517918" lon="8.214716">
        <ele>360.427499</ele>
        <time>2021-11-21T23:58:07.321Z</time>
      </trkpt>
      <trkpt lat="47.518033" lon="8.214737">
        <ele>360.348116</ele>
        <time>2021-11-21T23:58:09.192Z</time>
      </trkpt>
      <trkpt lat="47.518146" lon="8.214775">
        <ele>360.268728</ele>
        <time>2021-11-21T23:58:11.311Z</time>
      </trkpt>
      <trkpt lat="47.518581" lon="8.214863">
        <ele>359.967941</ele>
        <time>2021-11-21T23:58:19.362Z</time>
      </trkpt>
      <trkpt lat="47.518727" lon="8.214908">
        <ele>359.865773</ele>
        <time>2021-11-21T23:58:22.147Z</time>
      </trkpt>
      <trkpt lat="47.518955" lon="8.215007">
        <ele>359.702992</ele>
        <time>2021-11-21T23:58:26.672Z</time>
      </trkpt>
      <trkpt lat="47.519148" lon="8.215131">
        <ele>359.558858</ele>
        <time>2021-11-21T23:58:30.613Z</time>
      </trkpt>
      <trkpt lat="47.519391" lon="8.215293">
        <ele>359.376283</ele>
        <time>2021-11-21T23:58:35.567Z</time>
      </trkpt>
      <trkpt lat="47.519670" lon="8.215440">
        <ele>359.173743</ele>
        <time>2021-11-21T23:58:40.948Z</time>
      </trkpt>
      <trkpt lat="47.519944" lon="8.215530">
        <ele>358.981862</ele>
        <time>2021-11-21T23:58:46.091Z</time>
      </trkpt>
      <trkpt lat="47.520124" lon="8.215569">
        <ele>358.857490</ele>
        <time>2021-11-21T23:58:49.424Z</time>
      </trkpt>
      <trkpt lat="47.520146" lon="8.215572">
        <ele>358.842386</ele>
        <time>2021-11-21T23:58:49.872Z</time>
      </trkpt>
      <trkpt lat="47.520315" lon="8.215590">
        <ele>358.726546</ele>
        <time>2021-11-21T23:58:52.826Z</time>
      </trkpt>
      <trkpt lat="47.520540" lon="8.215681">
        <ele>358.567084</ele>
        <time>2021-11-21T23:58:57.188Z</time>
      </trkpt>
      <trkpt lat="47.520786" lon="8.215911">
        <ele>358.368181</ele>
        <time>2021-11-21T23:59:02.397Z</time>
      </trkpt>
      <trkpt lat="47.521086" lon="8.216135">
        <ele>358.138479</ele>
        <time>2021-11-21T23:59:08.259Z</time>
      </trkpt>
      <trkpt lat="47.521196" lon="8.216177">
        <ele>358.076889</ele>
        <time>2021-11-21T23:59:10.301Z</time>
      </trkpt>
      <trkpt lat="47.521239" lon="8.216193">
        <ele>358.056802</ele>
        <time>2021-11-21T23:59:10.975Z</time>
      </trkpt>
      <trkpt lat="47.521527" lon="8.216269">
        <ele>357.924264</ele>
        <time>2021-11-21T23:59:16.291Z</time>
      </trkpt>
      <trkpt lat="47.521586" lon="8.216258">
        <ele>357.897322</ele>
        <time>2021-11-21T23:59:17.230Z</time>
      </trkpt>
      <trkpt lat="47.521761" lon="8.216165">
        <ele>357.813085</ele>
        <time>2021-11-21T23:59:20.545Z</time>
      </trkpt>
      <trkpt lat="47.521839" lon="8.216142">
        <ele>357.777052</ele>
        <time>2021-11-21T23:59:22.062Z</time>
      </trkpt>
      <trkpt lat="47.522226" lon="8.216299">
        <ele>357.595256</ele>
        <time>2021-11-21T23:59:29.385Z</time>
      </trkpt>
      <trkpt lat="47.522326" lon="8.216356">
        <ele>357.546709</ele>
        <time>2021-11-21T23:59:31.164Z</time>
      </trkpt>
      <trkpt lat="47.522426" lon="8.216233">
        <ele>357.487812</ele>
        <time>2021-11-21T23:59:33.002Z</time>
      </trkpt>
      <trkpt lat="47.522589" lon="8.216064">
        <ele>357.397661</ele>
        <time>2021-11-21T23:59:35.683Z</time>
      </trkpt>
      <trkpt lat="47.522953" lon="8.215700">
        <ele>357.587804</ele>
        <time>2021-11-21T23:59:42.938Z</time>
      </trkpt>
      <trkpt lat="47.523040" lon="8.215616">
        <ele>357.733688</ele>
        <time>2021-11-21T23:59:45.016Z</time>
      </trkpt>
      <trkpt lat="47.523184" lon="8.215512">
        <ele>357.958728</ele>
        <time>2021-11-21T23:59:47.971Z</time>
      </trkpt>
      <trkpt lat="47.523252" lon="8.215477">
        <ele>358.059847</ele>
        <time>2021-11-21T23:59:49.290Z</time>
      </trkpt>
      <trkpt lat="47.523295" lon="8.215459">
        <ele>358.122613</ele>
        <time>2021-11-21T23:59:50.220Z</time>
      </trkpt>
      <trkpt lat="47.523322" lon="8.215449">
        <ele>358.161706</ele>
        <time>2021-11-21T23:59:50.788Z</time>
      </trkpt>
      <trkpt lat="47.523463" lon="8.215416">
        <ele>358.362217</ele>
        <time>2021-11-21T23:59:53.850Z</time>
      </trkpt>
      <trkpt lat="47.523628" lon="8.215398">
        <ele>358.594609</ele>
        <time>2021-11-21T23:59:56.917Z</time>
      </trkpt>
      <trkpt lat="47.523967" lon="8.215368">
        <ele>359.071627</ele>
        <time>2021-11-22T00:00:04.256Z</time>
      </trkpt>
      <trkpt lat="47.524496" lon="8.215283">
        <ele>359.819036</ele>
        <time>2021-11-22T00:00:16.756Z</time>
      </trkpt>
      <trkpt lat="47.525397" lon="8.215170">
        <ele>361.986903</ele>
        <time>2021-11-22T00:00:39.404Z</time>
      </trkpt>
      <trkpt lat="47.525630" lon="8.215165">
        <ele>362.545750</ele>
        <time>2021-11-22T00:00:45.588Z</time>
      </trkpt>
      <trkpt lat="47.525749" lon="8.215166">
        <ele>362.831145</ele>
        <time>2021-11-22T00:00:48.617Z</time>
      </trkpt>
      <trkpt lat="47.525837" lon="8.215146">
        <ele>363.044660</ele>
        <time>2021-11-22T00:00:50.696Z</time>
      </trkpt>
      <trkpt lat="47.525912" lon="8.215115">
        <ele>363.231403</ele>
        <time>2021-11-22T00:00:52.552Z</time>
      </trkpt>
      <trkpt lat="47.525955" lon="8.215079">
        <ele>363.349865</ele>
        <time>2021-11-22T00:00:53.939Z</time>
      </trkpt>
      <trkpt lat="47.526002" lon="8.215031">
        <ele>363.486786</ele>
        <time>2021-11-22T00:00:55.301Z</time>
      </trkpt>
      <trkpt lat="47.526053" lon="8.214977">
        <ele>363.637143</ele>
        <time>2021-11-22T00:00:56.825Z</time>
      </trkpt>
      <trkpt lat="47.526124" lon="8.214905">
        <ele>363.843513</ele>
        <time>2021-11-22T00:00:58.733Z</time>
      </trkpt>
      <trkpt lat="47.526245" lon="8.214785">
        <ele>364.151709</ele>
        <time>2021-11-22T00:01:02.026Z</time>
      </trkpt>
      <trkpt lat="47.526284" lon="8.214762">
        <ele>364.182571</ele>
        <time>2021-11-22T00:01:03.136Z</time>
      </trkpt>
      <trkpt lat="47.526502" lon="8.214733">
        <ele>364.343485</ele>
        <time>2021-11-22T00:01:07.774Z</time>
      </trkpt>
      <trkpt lat="47.526641" lon="8.214751">
        <ele>364.446064</ele>
        <time>2021-11-22T00:01:11.087Z</time>
      </trkpt>
      <trkpt lat="47.526739" lon="8.214765">
        <ele>364.518446</ele>
        <time>2021-11-22T00:01:13.302Z</time>
      </trkpt>
      <trkpt lat="47.526916" lon="8.214741">
        <ele>364.649116</ele>
        <time>2021-11-22T00:01:16.495Z</time>
      </trkpt>
      <trkpt lat="47.527002" lon="8.214709">
        <ele>364.714307</ele>
        <time>2021-11-22T00:01:18.611Z</time>
      </trkpt>
      <trkpt lat="47.527076" lon="8.214681">
        <ele>364.770457</ele>
        <time>2021-11-22T00:01:20.280Z</time>
      </trkpt>
      <trkpt lat="47.527165" lon="8.214656">
        <ele>364.837055</ele>
        <time>2021-11-22T00:01:21.681Z</time>
      </trkpt>
      <trkpt lat="47.527726" lon="8.214669">
        <ele>365.249539</ele>
        <time>2021-11-22T00:01:30.512Z</time>
      </trkpt>
      <trkpt lat="47.527783" lon="8.214687">
        <ele>365.292386</ele>
        <time>2021-11-22T00:01:31.539Z</time>
      </trkpt>
      <trkpt lat="47.527842" lon="8.214703">
        <ele>365.336483</ele>
        <time>2021-11-22T00:01:32.248Z</time>
      </trkpt>
      <trkpt lat="47.528167" lon="8.214795">
        <ele>365.135684</ele>
        <time>2021-11-22T00:01:36.395Z</time>
      </trkpt>
      <trkpt lat="47.528300" lon="8.214825">
        <ele>364.879990</ele>
        <time>2021-11-22T00:01:37.912Z</time>
      </trkpt>
      <trkpt lat="47.528576" lon="8.214879">
        <ele>364.350869</ele>
        <time>2021-11-22T00:01:41.168Z</time>
      </trkpt>
      <trkpt lat="47.528709" lon="8.214919">
        <ele>364.092930</ele>
        <time>2021-11-22T00:01:42.688Z</time>
      </trkpt>
      <trkpt lat="47.528765" lon="8.214954">
        <ele>363.977408</ele>
        <time>2021-11-22T00:01:43.333Z</time>
      </trkpt>
      <trkpt lat="47.528804" lon="8.214984">
        <ele>363.893882</ele>
        <time>2021-11-22T00:01:43.857Z</time>
      </trkpt>
      <trkpt lat="47.528920" lon="8.215103">
        <ele>363.625688</ele>
        <time>2021-11-22T00:01:45.412Z</time>
      </trkpt>
      <trkpt lat="47.529070" lon="8.215245">
        <ele>363.287334</ele>
        <time>2021-11-22T00:01:47.320Z</time>
      </trkpt>
      <trkpt lat="47.529574" lon="8.215766">
        <ele>362.119173</ele>
        <time>2021-11-22T00:01:53.836Z</time>
      </trkpt>
      <trkpt lat="47.529546" lon="8.215816">
        <ele>362.034923</ele>
        <time>2021-11-22T00:01:54.502Z</time>
      </trkpt>
      <trkpt lat="47.529647" lon="8.215927">
        <ele>361.661678</ele>
        <time>2021-11-22T00:01:55.787Z</time>
      </trkpt>
      <trkpt lat="47.529917" lon="8.216206">
        <ele>360.684654</ele>
        <time>2021-11-22T00:01:59.160Z</time>
      </trkpt>
      <trkpt lat="47.530335" lon="8.216643">
        <ele>359.166246</ele>
        <time>2021-11-22T00:02:04.323Z</time>
      </trkpt>
      <trkpt lat="47.531079" lon="8.217387">
        <ele>356.518537</ele>
        <time>2021-11-22T00:02:13.593Z</time>
      </trkpt>
      <trkpt lat="47.531191" lon="8.217513">
        <ele>356.135804</ele>
        <time>2021-11-22T00:02:14.989Z</time>
      </trkpt>
      <trkpt lat="47.531434" lon="8.217769">
        <ele>355.324324</ele>
        <time>2021-11-22T00:02:18.070Z</time>
      </trkpt>
      <trkpt lat="47.531589" lon="8.217911">
        <ele>354.828363</ele>
        <time>2021-11-22T00:02:19.986Z</time>
      </trkpt>
      <trkpt lat="47.531757" lon="8.218076">
        <ele>354.279813</ele>
        <time>2021-11-22T00:02:22.016Z</time>
      </trkpt>
      <trkpt lat="47.532241" lon="8.218452">
        <ele>352.792556</ele>
        <time>2021-11-22T00:02:27.739Z</time>
      </trkpt>
      <trkpt lat="47.532276" lon="8.218479">
        <ele>352.685168</ele>
        <time>2021-11-22T00:02:28.138Z</time>
      </trkpt>
      <trkpt lat="47.533201" lon="8.219133">
        <ele>350.403253</ele>
        <time>2021-11-22T00:02:39.156Z</time>
      </trkpt>
      <trkpt lat="47.533898" lon="8.219625">
        <ele>348.860480</ele>
        <time>2021-11-22T00:02:47.637Z</time>
      </trkpt>
      <trkpt lat="47.535135" lon="8.220489">
        <ele>347.214419</ele>
        <time>2021-11-22T00:03:03.552Z</time>
      </trkpt>
      <trkpt lat="47.535590" lon="8.220736">
        <ele>346.751168</ele>
        <time>2021-11-22T00:03:09.958Z</time>
      </trkpt>
      <trkpt lat="47.536145" lon="8.220920">
        <ele>346.410467</ele>
        <time>2021-11-22T00:03:18.045Z</time>
      </trkpt>
      <trkpt lat="47.537169" lon="8.221092">
        <ele>346.128745</ele>
        <time>2021-11-22T00:03:33.192Z</time>
      </trkpt>
      <trkpt lat="47.537894" lon="8.221353">
        <ele>345.740059</ele>
        <time>2021-11-22T00:03:43.063Z</time>
      </trkpt>
      <trkpt lat="47.538091" lon="8.221429">
        <ele>345.547861</ele>
        <time>2021-11-22T00:03:45.719Z</time>
      </trkpt>
      <trkpt lat="47.538335" lon="8.221582">
        <ele>345.297702</ele>
        <time>2021-11-22T00:03:48.924Z</time>
      </trkpt>
      <trkpt lat="47.538836" lon="8.221915">
        <ele>344.779256</ele>
        <time>2021-11-22T00:03:55.579Z</time>
      </trkpt>
      <trkpt lat="47.539553" lon="8.222532">
        <ele>343.991876</ele>
        <time>2021-11-22T00:04:05.252Z</time>
      </trkpt>
      <trkpt lat="47.540369" lon="8.223287">
        <ele>343.070154</ele>
        <time>2021-11-22T00:04:17.231Z</time>
      </trkpt>
      <trkpt lat="47.540702" lon="8.223598">
        <ele>342.693016</ele>
        <time>2021-11-22T00:04:22.171Z</time>
      </trkpt>
      <trkpt lat="47.540939" lon="8.223830">
        <ele>342.484958</ele>
        <time>2021-11-22T00:04:25.742Z</time>
      </trkpt>
      <trkpt lat="47.541106" lon="8.224007">
        <ele>342.368092</ele>
        <time>2021-11-22T00:04:28.398Z</time>
      </trkpt>
      <trkpt lat="47.541314" lon="8.224262">
        <ele>342.214433</ele>
        <time>2021-11-22T00:04:31.846Z</time>
      </trkpt>
      <trkpt lat="47.541615" lon="8.224683">
        <ele>341.978833</ele>
        <time>2021-11-22T00:04:37.274Z</time>
      </trkpt>
      <trkpt lat="47.541905" lon="8.225076">
        <ele>341.755144</ele>
        <time>2021-11-22T00:04:42.525Z</time>
      </trkpt>
      <trkpt lat="47.542339" lon="8.225556">
        <ele>341.547987</ele>
        <time>2021-11-22T00:04:49.742Z</time>
      </trkpt>
      <trkpt lat="47.542675" lon="8.225835">
        <ele>341.533575</ele>
        <time>2021-11-22T00:04:55.056Z</time>
      </trkpt>
      <trkpt lat="47.543224" lon="8.226123">
        <ele>341.511783</ele>
        <time>2021-11-22T00:05:04.045Z</time>
      </trkpt>
      <trkpt lat="47.543628" lon="8.226150">
        <ele>341.496652</ele>
        <time>2021-11-22T00:05:09.910Z</time>
      </trkpt>
      <trkpt lat="47.544359" lon="8.225854">
        <ele>342.436939</ele>
        <time>2021-11-22T00:05:21.862Z</time>
      </trkpt>
      <trkpt lat="47.544597" lon="8.225751">
        <ele>342.888384</ele>
        <time>2021-11-22T00:05:26.890Z</time>
      </trkpt>
      <trkpt lat="47.544717" lon="8.225708">
        <ele>343.113172</ele>
        <time>2021-11-22T00:05:28.314Z</time>
      </trkpt>
      <trkpt lat="47.544977" lon="8.225652">
        <ele>343.591539</ele>
        <time>2021-11-22T00:05:33.664Z</time>
      </trkpt>
      <trkpt lat="47.546165" lon="8.225392">
        <ele>348.579550</ele>
        <time>2021-11-22T00:06:10.258Z</time>
      </trkpt>
      <trkpt lat="47.546613" lon="8.225127">
        <ele>351.881111</ele>
        <time>2021-11-22T00:06:31.281Z</time>
      </trkpt>
      <trkpt lat="47.546772" lon="8.224974">
        <ele>353.178736</ele>
        <time>2021-11-22T00:06:39.742Z</time>
      </trkpt>
      <trkpt lat="47.546859" lon="8.224856">
        <ele>353.986027</ele>
        <time>2021-11-22T00:06:46.205Z</time>
      </trkpt>
      <trkpt lat="47.547338" lon="8.224029">
        <ele>359.356674</ele>
        <time>2021-11-22T00:07:24.216Z</time>
      </trkpt>
      <trkpt lat="47.547445" lon="8.223876">
        <ele>360.550259</ele>
        <time>2021-11-22T00:07:32.213Z</time>
      </trkpt>
      <trkpt lat="47.547732" lon="8.223468">
        <ele>363.742787</ele>
        <time>2021-11-22T00:07:54.324Z</time>
      </trkpt>
      <trkpt lat="47.548334" lon="8.222834">
        <ele>369.671061</ele>
        <time>2021-11-22T00:08:28.879Z</time>
      </trkpt>
      <trkpt lat="47.548684" lon="8.222552">
        <ele>371.760781</ele>
        <time>2021-11-22T00:08:43.066Z</time>
      </trkpt>
      <trkpt lat="47.548970" lon="8.222338">
        <ele>372.236244</ele>
        <time>2021-11-22T00:08:52.365Z</time>
      </trkpt>
      <trkpt lat="47.549193" lon="8.222263">
        <ele>372.575583</ele>
        <time>2021-11-22T00:08:57.804Z</time>
      </trkpt>
      <trkpt lat="47.549562" lon="8.222437">
        <ele>373.150222</ele>
        <time>2021-11-22T00:09:05.445Z</time>
      </trkpt>
      <trkpt lat="47.549713" lon="8.222604">
        <ele>373.429843</ele>
        <time>2021-11-22T00:09:08.108Z</time>
      </trkpt>
      <trkpt lat="47.549968" lon="8.222820">
        <ele>373.865727</ele>
        <time>2021-11-22T00:09:12.234Z</time>
      </trkpt>
      <trkpt lat="47.550016" lon="8.222861">
        <ele>373.947945</ele>
        <time>2021-11-22T00:09:13.860Z</time>
      </trkpt>
      <trkpt lat="47.550289" lon="8.222964">
        <ele>373.731395</ele>
        <time>2021-11-22T00:09:23.038Z</time>
      </trkpt>
      <trkpt lat="47.550503" lon="8.222940">
        <ele>372.971721</ele>
        <time>2021-11-22T00:09:29.325Z</time>
      </trkpt>
      <trkpt lat="47.550582" lon="8.222873">
        <ele>372.649507</ele>
        <time>2021-11-22T00:09:31.977Z</time>
      </trkpt>
      <trkpt lat="47.550663" lon="8.222846">
        <ele>372.355620</ele>
        <time>2021-11-22T00:09:32.881Z</time>
      </trkpt>
      <trkpt lat="47.551205" lon="8.222672">
        <ele>370.392554</ele>
        <time>2021-11-22T00:09:38.254Z</time>
      </trkpt>
      <trkpt lat="47.551523" lon="8.222612">
        <ele>369.257822</ele>
        <time>2021-11-22T00:09:41.343Z</time>
      </trkpt>
      <trkpt lat="47.551809" lon="8.222569">
        <ele>368.240254</ele>
        <time>2021-11-22T00:09:44.176Z</time>
      </trkpt>
      <trkpt lat="47.551881" lon="8.222551">
        <ele>367.981789</ele>
        <time>2021-11-22T00:09:44.857Z</time>
      </trkpt>
      <trkpt lat="47.552233" lon="8.222369">
        <ele>366.397630</ele>
        <time>2021-11-22T00:09:48.448Z</time>
      </trkpt>
      <trkpt lat="47.552683" lon="8.221984">
        <ele>364.135119</ele>
        <time>2021-11-22T00:09:53.519Z</time>
      </trkpt>
      <trkpt lat="47.553010" lon="8.221790">
        <ele>362.601450</ele>
        <time>2021-11-22T00:09:56.898Z</time>
      </trkpt>
      <trkpt lat="47.553130" lon="8.221748">
        <ele>362.064583</ele>
        <time>2021-11-22T00:09:58.025Z</time>
      </trkpt>
      <trkpt lat="47.553268" lon="8.221727">
        <ele>361.460563</ele>
        <time>2021-11-22T00:09:59.329Z</time>
      </trkpt>
      <trkpt lat="47.553377" lon="8.221719">
        <ele>360.985388</ele>
        <time>2021-11-22T00:10:00.405Z</time>
      </trkpt>
      <trkpt lat="47.553475" lon="8.221719">
        <ele>360.558690</ele>
        <time>2021-11-22T00:10:01.313Z</time>
      </trkpt>
      <trkpt lat="47.553815" lon="8.221828">
        <ele>359.462470</ele>
        <time>2021-11-22T00:10:04.709Z</time>
      </trkpt>
      <trkpt lat="47.553938" lon="8.221892">
        <ele>359.148505</ele>
        <time>2021-11-22T00:10:05.974Z</time>
      </trkpt>
      <trkpt lat="47.554094" lon="8.222019">
        <ele>358.719824</ele>
        <time>2021-11-22T00:10:07.725Z</time>
      </trkpt>
      <trkpt lat="47.554387" lon="8.222356">
        <ele>357.826523</ele>
        <time>2021-11-22T00:10:11.552Z</time>
      </trkpt>
      <trkpt lat="47.554538" lon="8.222570">
        <ele>357.323294</ele>
        <time>2021-11-22T00:10:13.673Z</time>
      </trkpt>
      <trkpt lat="47.554840" lon="8.222959">
        <ele>356.359563</ele>
        <time>2021-11-22T00:10:18.695Z</time>
      </trkpt>
      <trkpt lat="47.554956" lon="8.223063">
        <ele>356.033031</ele>
        <time>2021-11-22T00:10:20.753Z</time>
      </trkpt>
      <trkpt lat="47.555172" lon="8.223232">
        <ele>355.703554</ele>
        <time>2021-11-22T00:10:24.032Z</time>
      </trkpt>
      <trkpt lat="47.555201" lon="8.223251">
        <ele>355.724153</ele>
        <time>2021-11-22T00:10:24.353Z</time>
      </trkpt>
      <trkpt lat="47.555323" lon="8.223308">
        <ele>355.807256</ele>
        <time>2021-11-22T00:10:26.852Z</time>
      </trkpt>
      <trkpt lat="47.555417" lon="8.223335">
        <ele>355.869460</ele>
        <time>2021-11-22T00:10:27.970Z</time>
      </trkpt>
      <trkpt lat="47.555471" lon="8.223330">
        <ele>355.904609</ele>
        <time>2021-11-22T00:10:28.627Z</time>
      </trkpt>
      <trkpt lat="47.555524" lon="8.223302">
        <ele>355.941163</ele>
        <time>2021-11-22T00:10:30.006Z</time>
      </trkpt>
      <trkpt lat="47.555875" lon="8.222876">
        <ele>356.235914</ele>
        <time>2021-11-22T00:10:36.697Z</time>
      </trkpt>
      <trkpt lat="47.555913" lon="8.222849">
        <ele>356.263292</ele>
        <time>2021-11-22T00:10:38.272Z</time>
      </trkpt>
      <trkpt lat="47.555963" lon="8.222823">
        <ele>356.297716</ele>
        <time>2021-11-22T00:10:39.290Z</time>
      </trkpt>
      <trkpt lat="47.556243" lon="8.222800">
        <ele>356.479895</ele>
        <time>2021-11-22T00:10:44.465Z</time>
      </trkpt>
      <trkpt lat="47.556390" lon="8.222682">
        <ele>356.588505</ele>
        <time>2021-11-22T00:10:47.975Z</time>
      </trkpt>
      <trkpt lat="47.556644" lon="8.222472">
        <ele>356.777462</ele>
        <time>2021-11-22T00:10:54.633Z</time>
      </trkpt>
      <trkpt lat="47.556836" lon="8.222326">
        <ele>356.772216</ele>
        <time>2021-11-22T00:10:58.481Z</time>
      </trkpt>
      <trkpt lat="47.556961" lon="8.222247">
        <ele>356.732874</ele>
        <time>2021-11-22T00:11:02.287Z</time>
      </trkpt>
      <trkpt lat="47.557017" lon="8.222237">
        <ele>356.716544</ele>
        <time>2021-11-22T00:11:03.045Z</time>
      </trkpt>
      <trkpt lat="47.557089" lon="8.222244">
        <ele>356.695655</ele>
        <time>2021-11-22T00:11:04.022Z</time>
      </trkpt>
      <trkpt lat="47.557238" lon="8.222328">
        <ele>356.649503</ele>
        <time>2021-11-22T00:11:06.496Z</time>
      </trkpt>
      <trkpt lat="47.557362" lon="8.222428">
        <ele>356.608632</ele>
        <time>2021-11-22T00:11:08.995Z</time>
      </trkpt>
      <trkpt lat="47.557551" lon="8.222589">
        <ele>356.545519</ele>
        <time>2021-11-22T00:11:11.604Z</time>
      </trkpt>
      <trkpt lat="47.557611" lon="8.222641">
        <ele>356.525396</ele>
        <time>2021-11-22T00:11:12.790Z</time>
      </trkpt>
      <trkpt lat="47.557649" lon="8.222676">
        <ele>356.512442</ele>
        <time>2021-11-22T00:11:13.389Z</time>
      </trkpt>
      <trkpt lat="47.557741" lon="8.222766">
        <ele>356.480527</ele>
        <time>2021-11-22T00:11:14.705Z</time>
      </trkpt>
      <trkpt lat="47.557806" lon="8.222827">
        <ele>356.458253</ele>
        <time>2021-11-22T00:11:15.543Z</time>
      </trkpt>
      <trkpt lat="47.557951" lon="8.222967">
        <ele>356.408151</ele>
        <time>2021-11-22T00:11:17.812Z</time>
      </trkpt>
      <trkpt lat="47.558086" lon="8.223096">
        <ele>356.361646</ele>
        <time>2021-11-22T00:11:19.632Z</time>
      </trkpt>
      <trkpt lat="47.558342" lon="8.223366">
        <ele>356.095501</ele>
        <time>2021-11-22T00:11:23.180Z</time>
      </trkpt>
      <trkpt lat="47.558455" lon="8.223517">
        <ele>355.750698</ele>
        <time>2021-11-22T00:11:24.960Z</time>
      </trkpt>
      <trkpt lat="47.558756" lon="8.224149">
        <ele>354.567784</ele>
        <time>2021-11-22T00:11:30.838Z</time>
      </trkpt>
      <trkpt lat="47.559013" lon="8.224942">
        <ele>353.222532</ele>
        <time>2021-11-22T00:11:37.158Z</time>
      </trkpt>
      <trkpt lat="47.559066" lon="8.225051">
        <ele>353.017088</ele>
        <time>2021-11-22T00:11:38.058Z</time>
      </trkpt>
      <trkpt lat="47.559100" lon="8.225120">
        <ele>352.886438</ele>
        <time>2021-11-22T00:11:38.640Z</time>
      </trkpt>
      <trkpt lat="47.559381" lon="8.225532">
        <ele>351.960414</ele>
        <time>2021-11-22T00:11:42.657Z</time>
      </trkpt>
      <trkpt lat="47.559612" lon="8.225773">
        <ele>351.235966</ele>
        <time>2021-11-22T00:11:45.561Z</time>
      </trkpt>
      <trkpt lat="47.559719" lon="8.225858">
        <ele>350.924642</ele>
        <time>2021-11-22T00:11:46.832Z</time>
      </trkpt>
      <trkpt lat="47.559831" lon="8.225939">
        <ele>350.605056</ele>
        <time>2021-11-22T00:11:48.176Z</time>
      </trkpt>
      <trkpt lat="47.560246" lon="8.226265">
        <ele>349.400573</ele>
        <time>2021-11-22T00:11:52.923Z</time>
      </trkpt>
      <trkpt lat="47.561803" lon="8.227488">
        <ele>346.913095</ele>
        <time>2021-11-22T00:12:12.464Z</time>
      </trkpt>
      <trkpt lat="47.561980" lon="8.227564">
        <ele>346.792624</ele>
        <time>2021-11-22T00:12:14.645Z</time>
      </trkpt>
      <trkpt lat="47.562173" lon="8.227636">
        <ele>346.662516</ele>
        <time>2021-11-22T00:12:17.787Z</time>
      </trkpt>
      <trkpt lat="47.564056" lon="8.227896">
        <ele>350.594356</ele>
        <time>2021-11-22T00:13:02.925Z</time>
      </trkpt>
      <trkpt lat="47.564427" lon="8.227929">
        <ele>351.797339</ele>
        <time>2021-11-22T00:13:15.644Z</time>
      </trkpt>
      <trkpt lat="47.564821" lon="8.227936">
        <ele>353.558672</ele>
        <time>2021-11-22T00:13:29.559Z</time>
      </trkpt>
      <trkpt lat="47.565547" lon="8.227959">
        <ele>356.804683</ele>
        <time>2021-11-22T00:13:55.411Z</time>
      </trkpt>
      <trkpt lat="47.565897" lon="8.227898">
        <ele>358.379988</ele>
        <time>2021-11-22T00:14:08.196Z</time>
      </trkpt>
      <trkpt lat="47.567395" lon="8.227469">
        <ele>361.506125</ele>
        <time>2021-11-22T00:14:45.893Z</time>
      </trkpt>
      <trkpt lat="47.567723" lon="8.227319">
        <ele>362.073890</ele>
        <time>2021-11-22T00:14:50.516Z</time>
      </trkpt>
      <trkpt lat="47.568142" lon="8.227099">
        <ele>361.857057</ele>
        <time>2021-11-22T00:14:55.797Z</time>
      </trkpt>
      <trkpt lat="47.568786" lon="8.226794">
        <ele>360.835921</ele>
        <time>2021-11-22T00:15:03.619Z</time>
      </trkpt>
      <trkpt lat="47.568840" lon="8.226770">
        <ele>360.750772</ele>
        <time>2021-11-22T00:15:04.153Z</time>
      </trkpt>
      <trkpt lat="47.569205" lon="8.226629">
        <ele>360.181067</ele>
        <time>2021-11-22T00:15:08.237Z</time>
      </trkpt>
      <trkpt lat="47.570313" lon="8.226377">
        <ele>359.057945</ele>
        <time>2021-11-22T00:15:20.890Z</time>
      </trkpt>
      <trkpt lat="47.571654" lon="8.226459">
        <ele>358.264100</ele>
        <time>2021-11-22T00:15:40.383Z</time>
      </trkpt>
      <trkpt lat="47.572540" lon="8.226584">
        <ele>358.222217</ele>
        <time>2021-11-22T00:15:55.169Z</time>
      </trkpt>
      <trkpt lat="47.572682" lon="8.226620">
        <ele>358.215437</ele>
        <time>2021-11-22T00:15:57.598Z</time>
      </trkpt>
      <trkpt lat="47.572682" lon="8.226620">
        <ele>358.215437</ele>
        <time>2021-11-22T00:15:57.671Z</time>
      </trkpt>
      <trkpt lat="47.572794" lon="8.226672">
        <ele>358.209914</ele>
        <time>2021-11-22T00:15:59.483Z</time>
      </trkpt>
      <trkpt lat="47.573165" lon="8.226847">
        <ele>358.136174</ele>
        <time>2021-11-22T00:16:05.021Z</time>
      </trkpt>
      <trkpt lat="47.573662" lon="8.226881">
        <ele>356.619606</ele>
        <time>2021-11-22T00:16:10.480Z</time>
      </trkpt>
      <trkpt lat="47.573809" lon="8.226846">
        <ele>356.165777</ele>
        <time>2021-11-22T00:16:12.136Z</time>
      </trkpt>
      <trkpt lat="47.573926" lon="8.226774">
        <ele>355.779624</ele>
        <time>2021-11-22T00:16:13.331Z</time>
      </trkpt>
      <trkpt lat="47.574096" lon="8.226598">
        <ele>355.147548</ele>
        <time>2021-11-22T00:16:15.544Z</time>
      </trkpt>
      <trkpt lat="47.574233" lon="8.226456">
        <ele>354.637976</ele>
        <time>2021-11-22T00:16:17.123Z</time>
      </trkpt>
      <trkpt lat="47.574394" lon="8.226147">
        <ele>353.835094</ele>
        <time>2021-11-22T00:16:19.743Z</time>
      </trkpt>
      <trkpt lat="47.574508" lon="8.225888">
        <ele>353.199148</ele>
        <time>2021-11-22T00:16:21.738Z</time>
      </trkpt>
      <trkpt lat="47.574646" lon="8.225512">
        <ele>352.234292</ele>
        <time>2021-11-22T00:16:24.474Z</time>
      </trkpt>
      <trkpt lat="47.574788" lon="8.225091">
        <ele>351.056829</ele>
        <time>2021-11-22T00:16:27.476Z</time>
      </trkpt>
      <trkpt lat="47.575363" lon="8.223281">
        <ele>346.052084</ele>
        <time>2021-11-22T00:16:40.781Z</time>
      </trkpt>
      <trkpt lat="47.575426" lon="8.223078">
        <ele>345.828004</ele>
        <time>2021-11-22T00:16:42.466Z</time>
      </trkpt>
      <trkpt lat="47.575544" lon="8.222709">
        <ele>345.431688</ele>
        <time>2021-11-22T00:16:45.823Z</time>
      </trkpt>
      <trkpt lat="47.576213" lon="8.220385">
        <ele>342.697917</ele>
        <time>2021-11-22T00:17:06.652Z</time>
      </trkpt>
      <trkpt lat="47.576323" lon="8.220079">
        <ele>342.161217</ele>
        <time>2021-11-22T00:17:09.319Z</time>
      </trkpt>
      <trkpt lat="47.576424" lon="8.219818">
        <ele>341.695474</ele>
        <time>2021-11-22T00:17:11.488Z</time>
      </trkpt>
      <trkpt lat="47.576584" lon="8.219480">
        <ele>341.056340</ele>
        <time>2021-11-22T00:17:14.463Z</time>
      </trkpt>
      <trkpt lat="47.576741" lon="8.219164">
        <ele>340.448876</ele>
        <time>2021-11-22T00:17:17.231Z</time>
      </trkpt>
      <trkpt lat="47.576976" lon="8.218778">
        <ele>339.644069</ele>
        <time>2021-11-22T00:17:20.750Z</time>
      </trkpt>
      <trkpt lat="47.577232" lon="8.218662">
        <ele>339.107283</ele>
        <time>2021-11-22T00:17:23.418Z</time>
      </trkpt>
      <trkpt lat="47.577342" lon="8.218672">
        <ele>338.920577</ele>
        <time>2021-11-22T00:17:24.569Z</time>
      </trkpt>
      <trkpt lat="47.577559" lon="8.218772">
        <ele>338.535594</ele>
        <time>2021-11-22T00:17:26.810Z</time>
      </trkpt>
      <trkpt lat="47.577807" lon="8.218916">
        <ele>338.084366</ele>
        <time>2021-11-22T00:17:29.522Z</time>
      </trkpt>
      <trkpt lat="47.578068" lon="8.218947">
        <ele>337.640778</ele>
        <time>2021-11-22T00:17:32.747Z</time>
      </trkpt>
      <trkpt lat="47.578149" lon="8.218933">
        <ele>337.502623</ele>
        <time>2021-11-22T00:17:33.529Z</time>
      </trkpt>
      <trkpt lat="47.578236" lon="8.218883">
        <ele>337.344544</ele>
        <time>2021-11-22T00:17:34.703Z</time>
      </trkpt>
      <trkpt lat="47.578469" lon="8.218692">
        <ele>336.893475</ele>
        <time>2021-11-22T00:17:38.084Z</time>
      </trkpt>
      <trkpt lat="47.578858" lon="8.218196">
        <ele>336.573413</ele>
        <time>2021-11-22T00:17:45.653Z</time>
      </trkpt>
      <trkpt lat="47.578991" lon="8.218127">
        <ele>336.849997</ele>
        <time>2021-11-22T00:17:48.693Z</time>
      </trkpt>
      <trkpt lat="47.579045" lon="8.218135">
        <ele>336.956518</ele>
        <time>2021-11-22T00:17:49.310Z</time>
      </trkpt>
      <trkpt lat="47.579089" lon="8.217820">
        <ele>337.382451</ele>
        <time>2021-11-22T00:17:54.016Z</time>
      </trkpt>
      <trkpt lat="47.579114" lon="8.217670">
        <ele>337.587035</ele>
        <time>2021-11-22T00:17:56.314Z</time>
      </trkpt>
      <trkpt lat="47.579150" lon="8.217459">
        <ele>337.875213</ele>
        <time>2021-11-22T00:17:58.932Z</time>
      </trkpt>
      <trkpt lat="47.579191" lon="8.217246">
        <ele>338.168499</ele>
        <time>2021-11-22T00:18:02.682Z</time>
      </trkpt>
      <trkpt lat="47.579213" lon="8.217091">
        <ele>338.378225</ele>
        <time>2021-11-22T00:18:05.414Z</time>
      </trkpt>
      <trkpt lat="47.579229" lon="8.216889">
        <ele>338.647525</ele>
        <time>2021-11-22T00:18:08.816Z</time>
      </trkpt>
      <trkpt lat="47.579519" lon="8.215809">
        <ele>340.170445</ele>
        <time>2021-11-22T00:18:31.323Z</time>
      </trkpt>
      <trkpt lat="47.579728" lon="8.215640">
        <ele>340.617680</ele>
        <time>2021-11-22T00:18:37.812Z</time>
      </trkpt>
      <trkpt lat="47.580146" lon="8.215605">
        <ele>341.404181</ele>
        <time>2021-11-22T00:18:47.589Z</time>
      </trkpt>
      <trkpt lat="47.580221" lon="8.215602">
        <ele>341.545126</ele>
        <time>2021-11-22T00:18:49.553Z</time>
      </trkpt>
      <trkpt lat="47.580288" lon="8.215598">
        <ele>341.671093</ele>
        <time>2021-11-22T00:18:51.019Z</time>
      </trkpt>
      <trkpt lat="47.580386" lon="8.215586">
        <ele>341.855822</ele>
        <time>2021-11-22T00:18:52.863Z</time>
      </trkpt>
      <trkpt lat="47.580801" lon="8.215519">
        <ele>342.640045</ele>
        <time>2021-11-22T00:19:00.839Z</time>
      </trkpt>
      <trkpt lat="47.580935" lon="8.215432">
        <ele>342.914859</ele>
        <time>2021-11-22T00:19:03.639Z</time>
      </trkpt>
      <trkpt lat="47.581007" lon="8.215317">
        <ele>343.113683</ele>
        <time>2021-11-22T00:19:05.646Z</time>
      </trkpt>
      <trkpt lat="47.581096" lon="8.215411">
        <ele>343.185841</ele>
        <time>2021-11-22T00:19:07.942Z</time>
      </trkpt>
      <trkpt lat="47.581192" lon="8.215499">
        <ele>343.182349</ele>
        <time>2021-11-22T00:19:10.570Z</time>
      </trkpt>
      <trkpt lat="47.581257" lon="8.215547">
        <ele>343.180101</ele>
        <time>2021-11-22T00:19:12.432Z</time>
      </trkpt>
      <trkpt lat="47.581351" lon="8.215607">
        <ele>343.176935</ele>
        <time>2021-11-22T00:19:14.675Z</time>
      </trkpt>
      <trkpt lat="47.582072" lon="8.216089">
        <ele>343.152461</ele>
        <time>2021-11-22T00:19:30.032Z</time>
      </trkpt>
      <trkpt lat="47.582203" lon="8.216177">
        <ele>343.148010</ele>
        <time>2021-11-22T00:19:32.482Z</time>
      </trkpt>
      <trkpt lat="47.582280" lon="8.216227">
        <ele>343.145409</ele>
        <time>2021-11-22T00:19:33.993Z</time>
      </trkpt>
      <trkpt lat="47.582583" lon="8.216426">
        <ele>343.135154</ele>
        <time>2021-11-22T00:19:39.958Z</time>
      </trkpt>
      <trkpt lat="47.582854" lon="8.216603">
        <ele>343.016875</ele>
        <time>2021-11-22T00:19:45.779Z</time>
      </trkpt>
      <trkpt lat="47.583075" lon="8.216748">
        <ele>342.880911</ele>
        <time>2021-11-22T00:19:51.334Z</time>
      </trkpt>
      <trkpt lat="47.583563" lon="8.217066">
        <ele>342.581016</ele>
        <time>2021-11-22T00:20:03.191Z</time>
      </trkpt>
      <trkpt lat="47.583834" lon="8.217251">
        <ele>342.413167</ele>
        <time>2021-11-22T00:20:08.698Z</time>
      </trkpt>
      <trkpt lat="47.583911" lon="8.217303">
        <ele>342.365565</ele>
        <time>2021-11-22T00:20:10.355Z</time>
      </trkpt>
      <trkpt lat="47.584040" lon="8.217388">
        <ele>342.286146</ele>
        <time>2021-11-22T00:20:12.799Z</time>
      </trkpt>
      <trkpt lat="47.584305" lon="8.217628">
        <ele>342.034154</ele>
        <time>2021-11-22T00:20:17.978Z</time>
      </trkpt>
      <trkpt lat="47.584592" lon="8.217911">
        <ele>340.174550</ele>
        <time>2021-11-22T00:20:23.149Z</time>
      </trkpt>
      <trkpt lat="47.584818" lon="8.218131">
        <ele>338.715912</ele>
        <time>2021-11-22T00:20:26.920Z</time>
      </trkpt>
      <trkpt lat="47.584953" lon="8.218224">
        <ele>337.912784</ele>
        <time>2021-11-22T00:20:28.916Z</time>
      </trkpt>
      <trkpt lat="47.585154" lon="8.218362">
        <ele>336.717730</ele>
        <time>2021-11-22T00:20:31.919Z</time>
      </trkpt>
      <trkpt lat="47.585493" lon="8.218577">
        <ele>334.728467</ele>
        <time>2021-11-22T00:20:36.640Z</time>
      </trkpt>
      <trkpt lat="47.585929" lon="8.218897">
        <ele>332.023400</ele>
        <time>2021-11-22T00:20:42.744Z</time>
      </trkpt>
      <trkpt lat="47.586136" lon="8.219048">
        <ele>330.459045</ele>
        <time>2021-11-22T00:20:45.595Z</time>
      </trkpt>
      <trkpt lat="47.586357" lon="8.219164">
        <ele>328.869315</ele>
        <time>2021-11-22T00:20:48.512Z</time>
      </trkpt>
      <trkpt lat="47.586597" lon="8.219268">
        <ele>327.173801</ele>
        <time>2021-11-22T00:20:51.721Z</time>
      </trkpt>
      <trkpt lat="47.586664" lon="8.219292">
        <ele>326.706405</ele>
        <time>2021-11-22T00:20:52.579Z</time>
      </trkpt>
      <trkpt lat="47.586689" lon="8.219301">
        <ele>326.531956</ele>
        <time>2021-11-22T00:20:52.889Z</time>
      </trkpt>
      <trkpt lat="47.586810" lon="8.219366">
        <ele>325.659266</ele>
        <time>2021-11-22T00:20:54.538Z</time>
      </trkpt>
      <trkpt lat="47.587071" lon="8.219582">
        <ele>323.632393</ele>
        <time>2021-11-22T00:20:58.379Z</time>
      </trkpt>
      <trkpt lat="47.587122" lon="8.219675">
        <ele>323.084205</ele>
        <time>2021-11-22T00:20:59.409Z</time>
      </trkpt>
      <trkpt lat="47.587160" lon="8.219764">
        <ele>322.602456</ele>
        <time>2021-11-22T00:21:00.416Z</time>
      </trkpt>
      <trkpt lat="47.587197" lon="8.219938">
        <ele>321.768048</ele>
        <time>2021-11-22T00:21:02.021Z</time>
      </trkpt>
      <trkpt lat="47.587303" lon="8.219893">
        <ele>321.020383</ele>
        <time>2021-11-22T00:21:03.039Z</time>
      </trkpt>
      <trkpt lat="47.587630" lon="8.219920">
        <ele>319.853663</ele>
        <time>2021-11-22T00:21:06.221Z</time>
      </trkpt>
      <trkpt lat="47.587735" lon="8.219964">
        <ele>319.662832</ele>
        <time>2021-11-22T00:21:07.350Z</time>
      </trkpt>
      <trkpt lat="47.587857" lon="8.219999">
        <ele>319.445505</ele>
        <time>2021-11-22T00:21:08.749Z</time>
      </trkpt>
      <trkpt lat="47.588236" lon="8.219978">
        <ele>318.782199</ele>
        <time>2021-11-22T00:21:12.869Z</time>
      </trkpt>
      <trkpt lat="47.588862" lon="8.219811">
        <ele>317.669789</ele>
        <time>2021-11-22T00:21:21.292Z</time>
      </trkpt>
      <trkpt lat="47.588944" lon="8.219789">
        <ele>317.524048</ele>
        <time>2021-11-22T00:21:22.355Z</time>
      </trkpt>
      <trkpt lat="47.590216" lon="8.219440">
        <ele>317.338263</ele>
        <time>2021-11-22T00:21:41.423Z</time>
      </trkpt>
      <trkpt lat="47.590245" lon="8.219433">
        <ele>317.345745</ele>
        <time>2021-11-22T00:21:42.040Z</time>
      </trkpt>
      <trkpt lat="47.590295" lon="8.219420">
        <ele>317.358672</ele>
        <time>2021-11-22T00:21:42.841Z</time>
      </trkpt>
      <trkpt lat="47.590468" lon="8.219383">
        <ele>317.403184</ele>
        <time>2021-11-22T00:21:45.875Z</time>
      </trkpt>
      <trkpt lat="47.590723" lon="8.219244">
        <ele>317.472370</ele>
        <time>2021-11-22T00:21:50.638Z</time>
      </trkpt>
      <trkpt lat="47.590949" lon="8.218913">
        <ele>317.570086</ele>
        <time>2021-11-22T00:21:56.098Z</time>
      </trkpt>
      <trkpt lat="47.590966" lon="8.218869">
        <ele>317.585803</ele>
        <time>2021-11-22T00:21:56.836Z</time>
      </trkpt>
      <trkpt lat="47.590989" lon="8.218792">
        <ele>317.611905</ele>
        <time>2021-11-22T00:21:57.792Z</time>
      </trkpt>
      <trkpt lat="47.591057" lon="8.218413">
        <ele>317.733458</ele>
        <time>2021-11-22T00:22:02.338Z</time>
      </trkpt>
      <trkpt lat="47.591079" lon="8.218261">
        <ele>317.781642</ele>
        <time>2021-11-22T00:22:04.272Z</time>
      </trkpt>
      <trkpt lat="47.591120" lon="8.217989">
        <ele>317.868026</ele>
        <time>2021-11-22T00:22:07.507Z</time>
      </trkpt>
      <trkpt lat="47.591300" lon="8.217251">
        <ele>318.111261</ele>
        <time>2021-11-22T00:22:16.409Z</time>
      </trkpt>
      <trkpt lat="47.591377" lon="8.217040">
        <ele>318.185618</ele>
        <time>2021-11-22T00:22:18.950Z</time>
      </trkpt>
      <trkpt lat="47.591421" lon="8.216936">
        <ele>318.223670</ele>
        <time>2021-11-22T00:22:20.268Z</time>
      </trkpt>
      <trkpt lat="47.591777" lon="8.216287">
        <ele>318.450403</ele>
        <time>2021-11-22T00:22:29.068Z</time>
      </trkpt>
      <trkpt lat="47.592397" lon="8.215619">
        <ele>318.710148</ele>
        <time>2021-11-22T00:22:40.955Z</time>
      </trkpt>
      <trkpt lat="47.592576" lon="8.215444">
        <ele>318.782814</ele>
        <time>2021-11-22T00:22:44.415Z</time>
      </trkpt>
      <trkpt lat="47.592754" lon="8.215302">
        <ele>318.851318</ele>
        <time>2021-11-22T00:22:47.994Z</time>
      </trkpt>
      <trkpt lat="47.592838" lon="8.215235">
        <ele>318.883645</ele>
        <time>2021-11-22T00:22:49.569Z</time>
      </trkpt>
      <trkpt lat="47.593922" lon="8.214589">
        <ele>319.224663</ele>
        <time>2021-11-22T00:23:09.458Z</time>
      </trkpt>
      <trkpt lat="47.594011" lon="8.214568">
        <ele>319.249812</ele>
        <time>2021-11-22T00:23:11.240Z</time>
      </trkpt>
      <trkpt lat="47.594112" lon="8.214552">
        <ele>319.278158</ele>
        <time>2021-11-22T00:23:12.928Z</time>
      </trkpt>
      <trkpt lat="47.594281" lon="8.214592">
        <ele>319.325917</ele>
        <time>2021-11-22T00:23:15.702Z</time>
      </trkpt>
      <trkpt lat="47.594464" lon="8.214637">
        <ele>319.377683</ele>
        <time>2021-11-22T00:23:19.008Z</time>
      </trkpt>
      <trkpt lat="47.595197" lon="8.215204">
        <ele>318.856486</ele>
        <time>2021-11-22T00:23:29.734Z</time>
      </trkpt>
      <trkpt lat="47.595696" lon="8.215627">
        <ele>318.142302</ele>
        <time>2021-11-22T00:23:36.561Z</time>
      </trkpt>
      <trkpt lat="47.595952" lon="8.215853">
        <ele>317.772111</ele>
        <time>2021-11-22T00:23:39.756Z</time>
      </trkpt>
      <trkpt lat="47.596915" lon="8.216670">
        <ele>316.498471</ele>
        <time>2021-11-22T00:23:52.383Z</time>
      </trkpt>
      <trkpt lat="47.597125" lon="8.216893">
        <ele>316.217520</ele>
        <time>2021-11-22T00:23:55.270Z</time>
      </trkpt>
      <trkpt lat="47.597510" lon="8.217375">
        <ele>315.669459</ele>
        <time>2021-11-22T00:24:01.791Z</time>
      </trkpt>
      <trkpt lat="47.598013" lon="8.218107">
        <ele>315.222401</ele>
        <time>2021-11-22T00:24:11.344Z</time>
      </trkpt>
      <trkpt lat="47.598361" lon="8.218513">
        <ele>315.149742</ele>
        <time>2021-11-22T00:24:17.636Z</time>
      </trkpt>
      <trkpt lat="47.598437" lon="8.218577">
        <ele>315.135400</ele>
        <time>2021-11-22T00:24:19.010Z</time>
      </trkpt>
      <trkpt lat="47.599142" lon="8.219174">
        <ele>315.002180</ele>
        <time>2021-11-22T00:24:31.036Z</time>
      </trkpt>
      <trkpt lat="47.599267" lon="8.219252">
        <ele>314.992224</ele>
        <time>2021-11-22T00:24:32.881Z</time>
      </trkpt>
      <trkpt lat="47.599533" lon="8.219407">
        <ele>315.086344</ele>
        <time>2021-11-22T00:24:37.043Z</time>
      </trkpt>
      <trkpt lat="47.599721" lon="8.219495">
        <ele>315.151268</ele>
        <time>2021-11-22T00:24:39.900Z</time>
      </trkpt>
      <trkpt lat="47.600088" lon="8.219631">
        <ele>315.275846</ele>
        <time>2021-11-22T00:24:45.772Z</time>
      </trkpt>
      <trkpt lat="47.600478" lon="8.219737">
        <ele>315.406421</ele>
        <time>2021-11-22T00:24:52.266Z</time>
      </trkpt>
      <trkpt lat="47.601230" lon="8.219944">
        <ele>315.737420</ele>
        <time>2021-11-22T00:25:05.717Z</time>
      </trkpt>
      <trkpt lat="47.601440" lon="8.220014">
        <ele>315.876736</ele>
        <time>2021-11-22T00:25:09.706Z</time>
      </trkpt>
      <trkpt lat="47.601580" lon="8.220060">
        <ele>315.969550</ele>
        <time>2021-11-22T00:25:12.416Z</time>
      </trkpt>
      <trkpt lat="47.601897" lon="8.220157">
        <ele>316.179054</ele>
        <time>2021-11-22T00:25:18.541Z</time>
      </trkpt>
      <trkpt lat="47.602352" lon="8.220318">
        <ele>316.481825</ele>
        <time>2021-11-22T00:25:27.124Z</time>
      </trkpt>
      <trkpt lat="47.605057" lon="8.221213">
        <ele>316.359988</ele>
        <time>2021-11-22T00:26:08.413Z</time>
      </trkpt>
      <trkpt lat="47.605217" lon="8.221275">
        <ele>316.240397</ele>
        <time>2021-11-22T00:26:10.527Z</time>
      </trkpt>
      <trkpt lat="47.605448" lon="8.221371">
        <ele>316.066911</ele>
        <time>2021-11-22T00:26:13.280Z</time>
      </trkpt>
      <trkpt lat="47.605712" lon="8.221500">
        <ele>315.865900</ele>
        <time>2021-11-22T00:26:16.886Z</time>
      </trkpt>
      <trkpt lat="47.605806" lon="8.221559">
        <ele>315.792086</ele>
        <time>2021-11-22T00:26:17.987Z</time>
      </trkpt>
      <trkpt lat="47.605967" lon="8.221680">
        <ele>315.661561</ele>
        <time>2021-11-22T00:26:20.393Z</time>
      </trkpt>
      <trkpt lat="47.606005" lon="8.221738">
        <ele>315.622129</ele>
        <time>2021-11-22T00:26:21.120Z</time>
      </trkpt>
      <trkpt lat="47.606051" lon="8.221847">
        <ele>315.559430</ele>
        <time>2021-11-22T00:26:22.033Z</time>
      </trkpt>
      <trkpt lat="47.606170" lon="8.221766">
        <ele>315.463226</ele>
        <time>2021-11-22T00:26:23.717Z</time>
      </trkpt>
      <trkpt lat="47.606313" lon="8.221699">
        <ele>315.336476</ele>
        <time>2021-11-22T00:26:25.576Z</time>
      </trkpt>
      <trkpt lat="47.606437" lon="8.221655">
        <ele>315.228714</ele>
        <time>2021-11-22T00:26:26.954Z</time>
      </trkpt>
      <trkpt lat="47.606920" lon="8.221521">
        <ele>314.813404</ele>
        <time>2021-11-22T00:26:32.763Z</time>
      </trkpt>
      <trkpt lat="47.607239" lon="8.221350">
        <ele>314.526718</ele>
        <time>2021-11-22T00:26:36.883Z</time>
      </trkpt>
      <trkpt lat="47.607397" lon="8.221215">
        <ele>314.372604</ele>
        <time>2021-11-22T00:26:39.314Z</time>
      </trkpt>
      <trkpt lat="47.607462" lon="8.221379">
        <ele>314.264199</ele>
        <time>2021-11-22T00:26:41.066Z</time>
      </trkpt>
      <trkpt lat="47.607611" lon="8.221470">
        <ele>314.128007</ele>
        <time>2021-11-22T00:26:43.479Z</time>
      </trkpt>
      <trkpt lat="47.607701" lon="8.221439">
        <ele>314.049915</ele>
        <time>2021-11-22T00:26:44.934Z</time>
      </trkpt>
      <trkpt lat="47.607864" lon="8.221364">
        <ele>313.920266</ele>
        <time>2021-11-22T00:26:47.224Z</time>
      </trkpt>
      <trkpt lat="47.608164" lon="8.221220">
        <ele>313.735028</ele>
        <time>2021-11-22T00:26:51.544Z</time>
      </trkpt>
      <trkpt lat="47.608754" lon="8.220970">
        <ele>313.374559</ele>
        <time>2021-11-22T00:26:59.598Z</time>
      </trkpt>
      <trkpt lat="47.609515" lon="8.220667">
        <ele>312.911673</ele>
        <time>2021-11-22T00:27:09.504Z</time>
      </trkpt>
      <trkpt lat="47.610223" lon="8.220395">
        <ele>312.396501</ele>
        <time>2021-11-22T00:27:18.893Z</time>
      </trkpt>
      <trkpt lat="47.610766" lon="8.220204">
        <ele>312.001079</ele>
        <time>2021-11-22T00:27:25.923Z</time>
      </trkpt>
      <trkpt lat="47.611085" lon="8.220090">
        <ele>311.768580</ele>
        <time>2021-11-22T00:27:30.118Z</time>
      </trkpt>
      <trkpt lat="47.612049" lon="8.219748">
        <ele>311.829442</ele>
        <time>2021-11-22T00:27:43.292Z</time>
      </trkpt>
      <trkpt lat="47.612151" lon="8.219709">
        <ele>311.857221</ele>
        <time>2021-11-22T00:27:44.717Z</time>
      </trkpt>
      <trkpt lat="47.613278" lon="8.219332">
        <ele>312.264813</ele>
        <time>2021-11-22T00:28:06.427Z</time>
      </trkpt>
      <trkpt lat="47.613648" lon="8.219208">
        <ele>312.522947</ele>
        <time>2021-11-22T00:28:13.976Z</time>
      </trkpt>
      <trkpt lat="47.614417" lon="8.219003">
        <ele>313.054639</ele>
        <time>2021-11-22T00:28:28.083Z</time>
      </trkpt>
      <trkpt lat="47.614515" lon="8.218983">
        <ele>313.121957</ele>
        <time>2021-11-22T00:28:30.645Z</time>
      </trkpt>
      <trkpt lat="47.615099" lon="8.218906">
        <ele>313.031141</ele>
        <time>2021-11-22T00:28:38.228Z</time>
      </trkpt>
      <trkpt lat="47.615746" lon="8.218800">
        <ele>312.390243</ele>
        <time>2021-11-22T00:28:47.037Z</time>
      </trkpt>
      <trkpt lat="47.615883" lon="8.218765">
        <ele>312.253370</ele>
        <time>2021-11-22T00:28:48.556Z</time>
      </trkpt>
      <trkpt lat="47.616035" lon="8.218707">
        <ele>312.098842</ele>
        <time>2021-11-22T00:28:50.636Z</time>
      </trkpt>
      <trkpt lat="47.616092" lon="8.218689">
        <ele>312.041463</ele>
        <time>2021-11-22T00:28:51.247Z</time>
      </trkpt>
      <trkpt lat="47.616167" lon="8.218700">
        <ele>311.967259</ele>
        <time>2021-11-22T00:28:51.983Z</time>
      </trkpt>
      <trkpt lat="47.616363" lon="8.218571">
        <ele>311.756141</ele>
        <time>2021-11-22T00:28:54.366Z</time>
      </trkpt>
      <trkpt lat="47.616431" lon="8.218493">
        <ele>311.671510</ele>
        <time>2021-11-22T00:28:55.288Z</time>
      </trkpt>
      <trkpt lat="47.616502" lon="8.218445">
        <ele>311.594687</ele>
        <time>2021-11-22T00:28:56.083Z</time>
      </trkpt>
      <trkpt lat="47.616876" lon="8.218132">
        <ele>311.269152</ele>
        <time>2021-11-22T00:29:00.995Z</time>
      </trkpt>
      <trkpt lat="47.617368" lon="8.217532">
        <ele>310.803428</ele>
        <time>2021-11-22T00:29:08.805Z</time>
      </trkpt>
      <trkpt lat="47.617661" lon="8.217053">
        <ele>310.484605</ele>
        <time>2021-11-22T00:29:15.441Z</time>
      </trkpt>
      <trkpt lat="47.618007" lon="8.216337">
        <ele>310.237987</ele>
        <time>2021-11-22T00:29:24.656Z</time>
      </trkpt>
      <trkpt lat="47.618176" lon="8.215931">
        <ele>310.242282</ele>
        <time>2021-11-22T00:29:29.470Z</time>
      </trkpt>
      <trkpt lat="47.618600" lon="8.214850">
        <ele>310.253538</ele>
        <time>2021-11-22T00:29:41.612Z</time>
      </trkpt>
      <trkpt lat="47.618669" lon="8.214675">
        <ele>310.255363</ele>
        <time>2021-11-22T00:29:43.880Z</time>
      </trkpt>
      <trkpt lat="47.618737" lon="8.214499">
        <ele>310.257189</ele>
        <time>2021-11-22T00:29:45.602Z</time>
      </trkpt>
      <trkpt lat="47.618848" lon="8.214229">
        <ele>310.274045</ele>
        <time>2021-11-22T00:29:49.222Z</time>
      </trkpt>
      <trkpt lat="47.618947" lon="8.213981">
        <ele>310.302659</ele>
        <time>2021-11-22T00:29:51.954Z</time>
      </trkpt>
      <trkpt lat="47.618982" lon="8.213859">
        <ele>310.315821</ele>
        <time>2021-11-22T00:29:53.483Z</time>
      </trkpt>
      <trkpt lat="47.618987" lon="8.213750">
        <ele>310.326667</ele>
        <time>2021-11-22T00:29:54.760Z</time>
      </trkpt>
      <trkpt lat="47.618987" lon="8.213750">
        <ele>310.326667</ele>
        <time>2021-11-22T00:29:54.762Z</time>
      </trkpt>
      <trkpt lat="47.618971" lon="8.213622">
        <ele>310.339591</ele>
        <time>2021-11-22T00:29:56.002Z</time>
      </trkpt>
      <trkpt lat="47.618891" lon="8.213435">
        <ele>310.361579</ele>
        <time>2021-11-22T00:29:58.168Z</time>
      </trkpt>
      <trkpt lat="47.618708" lon="8.213246">
        <ele>310.394418</ele>
        <time>2021-11-22T00:30:01.599Z</time>
      </trkpt>
      <trkpt lat="47.618604" lon="8.213165">
        <ele>310.411718</ele>
        <time>2021-11-22T00:30:03.271Z</time>
      </trkpt>
      <trkpt lat="47.618423" lon="8.212965">
        <ele>310.444957</ele>
        <time>2021-11-22T00:30:06.776Z</time>
      </trkpt>
      <trkpt lat="47.618357" lon="8.212893">
        <ele>310.457022</ele>
        <time>2021-11-22T00:30:07.838Z</time>
      </trkpt>
      <trkpt lat="47.618224" lon="8.212730">
        <ele>310.482430</ele>
        <time>2021-11-22T00:30:10.597Z</time>
      </trkpt>
      <trkpt lat="47.618153" lon="8.212621">
        <ele>310.497478</ele>
        <time>2021-11-22T00:30:12.567Z</time>
      </trkpt>
      <trkpt lat="47.617934" lon="8.212063">
        <ele>310.607281</ele>
        <time>2021-11-22T00:30:19.554Z</time>
      </trkpt>
      <trkpt lat="47.617629" lon="8.210798">
        <ele>310.900897</ele>
        <time>2021-11-22T00:30:34.458Z</time>
      </trkpt>
      <trkpt lat="47.617609" lon="8.210732">
        <ele>310.916711</ele>
        <time>2021-11-22T00:30:35.553Z</time>
      </trkpt>
      <trkpt lat="47.617583" lon="8.210652">
        <ele>310.936121</ele>
        <time>2021-11-22T00:30:36.577Z</time>
      </trkpt>
      <trkpt lat="47.617468" lon="8.210356">
        <ele>311.010787</ele>
        <time>2021-11-22T00:30:39.930Z</time>
      </trkpt>
      <trkpt lat="47.617390" lon="8.210189">
        <ele>311.055190</ele>
        <time>2021-11-22T00:30:42.272Z</time>
      </trkpt>
      <trkpt lat="47.617333" lon="8.210080">
        <ele>311.085340</ele>
        <time>2021-11-22T00:30:43.340Z</time>
      </trkpt>
      <trkpt lat="47.617152" lon="8.209764">
        <ele>311.157595</ele>
        <time>2021-11-22T00:30:48.182Z</time>
      </trkpt>
      <trkpt lat="47.616887" lon="8.209383">
        <ele>311.245509</ele>
        <time>2021-11-22T00:30:53.708Z</time>
      </trkpt>
      <trkpt lat="47.616834" lon="8.209305">
        <ele>311.263294</ele>
        <time>2021-11-22T00:30:54.536Z</time>
      </trkpt>
      <trkpt lat="47.616752" lon="8.209195">
        <ele>311.289631</ele>
        <time>2021-11-22T00:30:56.645Z</time>
      </trkpt>
      <trkpt lat="47.616028" lon="8.208214">
        <ele>311.523227</ele>
        <time>2021-11-22T00:31:12.183Z</time>
      </trkpt>
      <trkpt lat="47.615840" lon="8.207809">
        <ele>311.728044</ele>
        <time>2021-11-22T00:31:17.761Z</time>
      </trkpt>
      <trkpt lat="47.615808" lon="8.207650">
        <ele>311.804737</ele>
        <time>2021-11-22T00:31:20.051Z</time>
      </trkpt>
      <trkpt lat="47.615782" lon="8.207494">
        <ele>311.879010</ele>
        <time>2021-11-22T00:31:21.941Z</time>
      </trkpt>
      <trkpt lat="47.615768" lon="8.207366">
        <ele>311.938943</ele>
        <time>2021-11-22T00:31:23.428Z</time>
      </trkpt>
      <trkpt lat="47.615758" lon="8.207229">
        <ele>312.002633</ele>
        <time>2021-11-22T00:31:25.138Z</time>
      </trkpt>
      <trkpt lat="47.615784" lon="8.206929">
        <ele>312.142431</ele>
        <time>2021-11-22T00:31:28.652Z</time>
      </trkpt>
      <trkpt lat="47.615816" lon="8.206769">
        <ele>312.219567</ele>
        <time>2021-11-22T00:31:30.638Z</time>
      </trkpt>
      <trkpt lat="47.615902" lon="8.206463">
        <ele>312.372795</ele>
        <time>2021-11-22T00:31:34.615Z</time>
      </trkpt>
      <trkpt lat="47.616152" lon="8.205832">
        <ele>312.711077</ele>
        <time>2021-11-22T00:31:43.405Z</time>
      </trkpt>
      <trkpt lat="47.616209" lon="8.205698">
        <ele>312.778469</ele>
        <time>2021-11-22T00:31:45.401Z</time>
      </trkpt>
      <trkpt lat="47.616398" lon="8.205283">
        <ele>312.924957</ele>
        <time>2021-11-22T00:31:51.576Z</time>
      </trkpt>
      <trkpt lat="47.616566" lon="8.204594">
        <ele>313.139259</ele>
        <time>2021-11-22T00:32:00.066Z</time>
      </trkpt>
      <trkpt lat="47.616553" lon="8.203692">
        <ele>313.403141</ele>
        <time>2021-11-22T00:32:09.810Z</time>
      </trkpt>
      <trkpt lat="47.616546" lon="8.203564">
        <ele>313.440703</ele>
        <time>2021-11-22T00:32:11.170Z</time>
      </trkpt>
      <trkpt lat="47.616537" lon="8.203417">
        <ele>313.483875</ele>
        <time>2021-11-22T00:32:12.787Z</time>
      </trkpt>
      <trkpt lat="47.616499" lon="8.202929">
        <ele>313.504234</ele>
        <time>2021-11-22T00:32:17.651Z</time>
      </trkpt>
      <trkpt lat="47.616478" lon="8.202635">
        <ele>313.455252</ele>
        <time>2021-11-22T00:32:20.500Z</time>
      </trkpt>
      <trkpt lat="47.616425" lon="8.202188">
        <ele>313.380057</ele>
        <time>2021-11-22T00:32:25.011Z</time>
      </trkpt>
      <trkpt lat="47.616302" lon="8.201572">
        <ele>313.273616</ele>
        <time>2021-11-22T00:32:31.116Z</time>
      </trkpt>
      <trkpt lat="47.616106" lon="8.201239">
        <ele>313.200373</ele>
        <time>2021-11-22T00:32:35.240Z</time>
      </trkpt>
      <trkpt lat="47.616024" lon="8.201155">
        <ele>313.175880</ele>
        <time>2021-11-22T00:32:36.489Z</time>
      </trkpt>
      <trkpt lat="47.615899" lon="8.201069">
        <ele>313.142015</ele>
        <time>2021-11-22T00:32:38.289Z</time>
      </trkpt>
      <trkpt lat="47.615803" lon="8.201034">
        <ele>313.117717</ele>
        <time>2021-11-22T00:32:39.576Z</time>
      </trkpt>
      <trkpt lat="47.615732" lon="8.201021">
        <ele>313.115391</ele>
        <time>2021-11-22T00:32:40.473Z</time>
      </trkpt>
      <trkpt lat="47.615644" lon="8.201013">
        <ele>313.143638</ele>
        <time>2021-11-22T00:32:41.607Z</time>
      </trkpt>
      <trkpt lat="47.615447" lon="8.201054">
        <ele>313.207374</ele>
        <time>2021-11-22T00:32:44.208Z</time>
      </trkpt>
      <trkpt lat="47.615429" lon="8.201062">
        <ele>313.213394</ele>
        <time>2021-11-22T00:32:44.436Z</time>
      </trkpt>
      <trkpt lat="47.615128" lon="8.201183">
        <ele>313.313310</ele>
        <time>2021-11-22T00:32:48.531Z</time>
      </trkpt>
      <trkpt lat="47.614863" lon="8.201322">
        <ele>313.403365</ele>
        <time>2021-11-22T00:32:52.186Z</time>
      </trkpt>
      <trkpt lat="47.614397" lon="8.201585">
        <ele>313.563108</ele>
        <time>2021-11-22T00:32:59.944Z</time>
      </trkpt>
      <trkpt lat="47.613932" lon="8.201854">
        <ele>314.472863</ele>
        <time>2021-11-22T00:33:09.683Z</time>
      </trkpt>
      <trkpt lat="47.613531" lon="8.202104">
        <ele>317.225384</ele>
        <time>2021-11-22T00:33:22.690Z</time>
      </trkpt>
      <trkpt lat="47.613155" lon="8.202350">
        <ele>319.825853</ele>
        <time>2021-11-22T00:33:38.515Z</time>
      </trkpt>
      <trkpt lat="47.613016" lon="8.202430">
        <ele>320.769329</ele>
        <time>2021-11-22T00:33:46.058Z</time>
      </trkpt>
      <trkpt lat="47.612548" lon="8.202534">
        <ele>323.763875</ele>
        <time>2021-11-22T00:34:07.847Z</time>
      </trkpt>
      <trkpt lat="47.612424" lon="8.202529">
        <ele>324.548836</ele>
        <time>2021-11-22T00:34:14.908Z</time>
      </trkpt>
      <trkpt lat="47.612378" lon="8.202527">
        <ele>324.840048</ele>
        <time>2021-11-22T00:34:18.228Z</time>
      </trkpt>
      <trkpt lat="47.612176" lon="8.202502">
        <ele>326.907297</ele>
        <time>2021-11-22T00:34:28.308Z</time>
      </trkpt>
      <trkpt lat="47.612016" lon="8.202435">
        <ele>328.739544</ele>
        <time>2021-11-22T00:34:40.371Z</time>
      </trkpt>
      <trkpt lat="47.611542" lon="8.202029">
        <ele>334.771775</ele>
        <time>2021-11-22T00:35:13.010Z</time>
      </trkpt>
      <trkpt lat="47.611474" lon="8.201942">
        <ele>335.761441</ele>
        <time>2021-11-22T00:35:19.412Z</time>
      </trkpt>
      <trkpt lat="47.611413" lon="8.201844">
        <ele>336.752450</ele>
        <time>2021-11-22T00:35:25.803Z</time>
      </trkpt>
      <trkpt lat="47.611347" lon="8.201735">
        <ele>337.840989</ele>
        <time>2021-11-22T00:35:30.374Z</time>
      </trkpt>
      <trkpt lat="47.611112" lon="8.201340">
        <ele>341.755112</ele>
        <time>2021-11-22T00:35:52.624Z</time>
      </trkpt>
      <trkpt lat="47.610970" lon="8.201066">
        <ele>344.322879</ele>
        <time>2021-11-22T00:36:06.760Z</time>
      </trkpt>
      <trkpt lat="47.610504" lon="8.200470">
        <ele>350.008223</ele>
        <time>2021-11-22T00:36:39.433Z</time>
      </trkpt>
      <trkpt lat="47.609841" lon="8.199880">
        <ele>357.027136</ele>
        <time>2021-11-22T00:37:20.177Z</time>
      </trkpt>
      <trkpt lat="47.609266" lon="8.199444">
        <ele>362.219749</ele>
        <time>2021-11-22T00:37:48.657Z</time>
      </trkpt>
      <trkpt lat="47.609213" lon="8.199486">
        <ele>362.546953</ele>
        <time>2021-11-22T00:37:52.198Z</time>
      </trkpt>
      <trkpt lat="47.608866" lon="8.199450">
        <ele>364.441073</ele>
        <time>2021-11-22T00:38:08.170Z</time>
      </trkpt>
      <trkpt lat="47.608818" lon="8.199504">
        <ele>364.769120</ele>
        <time>2021-11-22T00:38:11.605Z</time>
      </trkpt>
      <trkpt lat="47.608766" lon="8.199640">
        <ele>365.343097</ele>
        <time>2021-11-22T00:38:16.500Z</time>
      </trkpt>
      <trkpt lat="47.608747" lon="8.199681">
        <ele>365.525742</ele>
        <time>2021-11-22T00:38:17.794Z</time>
      </trkpt>
      <trkpt lat="47.608595" lon="8.199586">
        <ele>366.423898</ele>
        <time>2021-11-22T00:38:24.363Z</time>
      </trkpt>
      <trkpt lat="47.608496" lon="8.199444">
        <ele>367.173807</ele>
        <time>2021-11-22T00:38:30.786Z</time>
      </trkpt>
      <trkpt lat="47.608444" lon="8.199426">
        <ele>367.464569</ele>
        <time>2021-11-22T00:38:32.962Z</time>
      </trkpt>
      <trkpt lat="47.608382" lon="8.199409">
        <ele>367.807895</ele>
        <time>2021-11-22T00:38:35.005Z</time>
      </trkpt>
      <trkpt lat="47.607787" lon="8.199125">
        <ele>371.049731</ele>
        <time>2021-11-22T00:38:59.215Z</time>
      </trkpt>
      <trkpt lat="47.606094" lon="8.198320">
        <ele>372.940123</ele>
        <time>2021-11-22T00:39:40.481Z</time>
      </trkpt>
      <trkpt lat="47.605728" lon="8.198238">
        <ele>372.731063</ele>
        <time>2021-11-22T00:39:47.145Z</time>
      </trkpt>
      <trkpt lat="47.605678" lon="8.198198">
        <ele>372.698977</ele>
        <time>2021-11-22T00:39:48.043Z</time>
      </trkpt>
      <trkpt lat="47.605613" lon="8.198239">
        <ele>372.659083</ele>
        <time>2021-11-22T00:39:49.146Z</time>
      </trkpt>
      <trkpt lat="47.605445" lon="8.198219">
        <ele>372.563892</ele>
        <time>2021-11-22T00:39:51.108Z</time>
      </trkpt>
      <trkpt lat="47.605348" lon="8.198209">
        <ele>372.508974</ele>
        <time>2021-11-22T00:39:52.343Z</time>
      </trkpt>
      <trkpt lat="47.605268" lon="8.198182">
        <ele>372.462636</ele>
        <time>2021-11-22T00:39:53.382Z</time>
      </trkpt>
      <trkpt lat="47.605160" lon="8.198174">
        <ele>372.401561</ele>
        <time>2021-11-22T00:39:54.598Z</time>
      </trkpt>
      <trkpt lat="47.604332" lon="8.198260">
        <ele>371.936056</ele>
        <time>2021-11-22T00:40:04.714Z</time>
      </trkpt>
      <trkpt lat="47.603963" lon="8.198057">
        <ele>372.800748</ele>
        <time>2021-11-22T00:40:11.700Z</time>
      </trkpt>
      <trkpt lat="47.603697" lon="8.198017">
        <ele>373.388163</ele>
        <time>2021-11-22T00:40:16.906Z</time>
      </trkpt>
      <trkpt lat="47.603649" lon="8.198027">
        <ele>373.494657</ele>
        <time>2021-11-22T00:40:17.356Z</time>
      </trkpt>
      <trkpt lat="47.603585" lon="8.198080">
        <ele>373.655704</ele>
        <time>2021-11-22T00:40:19.921Z</time>
      </trkpt>
      <trkpt lat="47.603447" lon="8.198293">
        <ele>374.093299</ele>
        <time>2021-11-22T00:40:24.212Z</time>
      </trkpt>
      <trkpt lat="47.603159" lon="8.199376">
        <ele>375.817917</ele>
        <time>2021-11-22T00:40:46.174Z</time>
      </trkpt>
      <trkpt lat="47.603075" lon="8.199955">
        <ele>377.948175</ele>
        <time>2021-11-22T00:41:00.191Z</time>
      </trkpt>
      <trkpt lat="47.603097" lon="8.200673">
        <ele>380.659632</ele>
        <time>2021-11-22T00:41:21.627Z</time>
      </trkpt>
      <trkpt lat="47.603178" lon="8.201222">
        <ele>382.779741</ele>
        <time>2021-11-22T00:41:38.763Z</time>
      </trkpt>
      <trkpt lat="47.603194" lon="8.201391">
        <ele>383.423548</ele>
        <time>2021-11-22T00:41:41.511Z</time>
      </trkpt>
      <trkpt lat="47.603210" lon="8.201680">
        <ele>384.517470</ele>
        <time>2021-11-22T00:41:51.791Z</time>
      </trkpt>
      <trkpt lat="47.603169" lon="8.202319">
        <ele>386.133472</ele>
        <time>2021-11-22T00:42:03.822Z</time>
      </trkpt>
      <trkpt lat="47.603134" lon="8.202385">
        <ele>386.192601</ele>
        <time>2021-11-22T00:42:04.529Z</time>
      </trkpt>
      <trkpt lat="47.603101" lon="8.202428">
        <ele>386.238477</ele>
        <time>2021-11-22T00:42:05.163Z</time>
      </trkpt>
      <trkpt lat="47.603051" lon="8.202465">
        <ele>386.296836</ele>
        <time>2021-11-22T00:42:07.133Z</time>
      </trkpt>
      <trkpt lat="47.602958" lon="8.202469">
        <ele>386.394004</ele>
        <time>2021-11-22T00:42:12.445Z</time>
      </trkpt>
      <trkpt lat="47.602753" lon="8.202453">
        <ele>386.608398</ele>
        <time>2021-11-22T00:42:14.621Z</time>
      </trkpt>
      <trkpt lat="47.602578" lon="8.202424">
        <ele>386.792301</ele>
        <time>2021-11-22T00:42:22.055Z</time>
      </trkpt>
      <trkpt lat="47.602426" lon="8.202403">
        <ele>386.951734</ele>
        <time>2021-11-22T00:42:23.498Z</time>
      </trkpt>
      <trkpt lat="47.601900" lon="8.202285">
        <ele>387.507327</ele>
        <time>2021-11-22T00:42:33.241Z</time>
      </trkpt>
      <trkpt lat="47.601666" lon="8.202225">
        <ele>387.755337</ele>
        <time>2021-11-22T00:42:35.539Z</time>
      </trkpt>
      <trkpt lat="47.601456" lon="8.202150">
        <ele>387.691964</ele>
        <time>2021-11-22T00:42:39.959Z</time>
      </trkpt>
      <trkpt lat="47.601144" lon="8.202037">
        <ele>387.397421</ele>
        <time>2021-11-22T00:42:43.576Z</time>
      </trkpt>
      <trkpt lat="47.600790" lon="8.201887">
        <ele>387.059777</ele>
        <time>2021-11-22T00:42:47.232Z</time>
      </trkpt>
      <trkpt lat="47.600273" lon="8.201665">
        <ele>386.566162</ele>
        <time>2021-11-22T00:42:53.572Z</time>
      </trkpt>
      <trkpt lat="47.599932" lon="8.201507">
        <ele>386.238524</ele>
        <time>2021-11-22T00:42:59.959Z</time>
      </trkpt>
      <trkpt lat="47.599683" lon="8.201404">
        <ele>386.467389</ele>
        <time>2021-11-22T00:43:05.287Z</time>
      </trkpt>
      <trkpt lat="47.599373" lon="8.201295">
        <ele>386.948337</ele>
        <time>2021-11-22T00:43:12.599Z</time>
      </trkpt>
      <trkpt lat="47.599112" lon="8.201213">
        <ele>387.351085</ele>
        <time>2021-11-22T00:43:18.274Z</time>
      </trkpt>
      <trkpt lat="47.599057" lon="8.201195">
        <ele>387.436111</ele>
        <time>2021-11-22T00:43:19.911Z</time>
      </trkpt>
      <trkpt lat="47.598169" lon="8.200983">
        <ele>388.793890</ele>
        <time>2021-11-22T00:43:39.219Z</time>
      </trkpt>
      <trkpt lat="47.597945" lon="8.200935">
        <ele>388.999753</ele>
        <time>2021-11-22T00:43:44.095Z</time>
      </trkpt>
      <trkpt lat="47.597769" lon="8.200884">
        <ele>389.119051</ele>
        <time>2021-11-22T00:43:47.421Z</time>
      </trkpt>
      <trkpt lat="47.597197" lon="8.200726">
        <ele>389.506119</ele>
        <time>2021-11-22T00:43:58.514Z</time>
      </trkpt>
      <trkpt lat="47.596899" lon="8.200633">
        <ele>389.708707</ele>
        <time>2021-11-22T00:44:03.941Z</time>
      </trkpt>
      <trkpt lat="47.596813" lon="8.200609">
        <ele>389.766922</ele>
        <time>2021-11-22T00:44:05.397Z</time>
      </trkpt>
      <trkpt lat="47.595111" lon="8.199936">
        <ele>389.155947</ele>
        <time>2021-11-22T00:44:29.454Z</time>
      </trkpt>
      <trkpt lat="47.594900" lon="8.199877">
        <ele>388.998993</ele>
        <time>2021-11-22T00:44:32.293Z</time>
      </trkpt>
      <trkpt lat="47.594778" lon="8.199841">
        <ele>388.908065</ele>
        <time>2021-11-22T00:44:33.657Z</time>
      </trkpt>
      <trkpt lat="47.593054" lon="8.199545">
        <ele>385.329979</ele>
        <time>2021-11-22T00:44:52.586Z</time>
      </trkpt>
      <trkpt lat="47.592717" lon="8.199521">
        <ele>384.420093</ele>
        <time>2021-11-22T00:44:56.014Z</time>
      </trkpt>
      <trkpt lat="47.592621" lon="8.199519">
        <ele>384.037854</ele>
        <time>2021-11-22T00:44:57.069Z</time>
      </trkpt>
      <trkpt lat="47.592520" lon="8.199514">
        <ele>383.635521</ele>
        <time>2021-11-22T00:44:58.141Z</time>
      </trkpt>
      <trkpt lat="47.592521" lon="8.199660">
        <ele>383.243496</ele>
        <time>2021-11-22T00:44:59.046Z</time>
      </trkpt>
      <trkpt lat="47.592468" lon="8.200119">
        <ele>381.993164</ele>
        <time>2021-11-22T00:45:02.224Z</time>
      </trkpt>
      <trkpt lat="47.592377" lon="8.200421">
        <ele>381.105046</ele>
        <time>2021-11-22T00:45:04.455Z</time>
      </trkpt>
      <trkpt lat="47.592354" lon="8.200494">
        <ele>380.888708</ele>
        <time>2021-11-22T00:45:05.000Z</time>
      </trkpt>
      <trkpt lat="47.592030" lon="8.200989">
        <ele>379.036591</ele>
        <time>2021-11-22T00:45:09.464Z</time>
      </trkpt>
      <trkpt lat="47.591683" lon="8.201242">
        <ele>377.480382</ele>
        <time>2021-11-22T00:45:13.058Z</time>
      </trkpt>
      <trkpt lat="47.590598" lon="8.201738">
        <ele>372.363495</ele>
        <time>2021-11-22T00:45:23.781Z</time>
      </trkpt>
      <trkpt lat="47.590444" lon="8.201859">
        <ele>371.578043</ele>
        <time>2021-11-22T00:45:25.489Z</time>
      </trkpt>
      <trkpt lat="47.590356" lon="8.201937">
        <ele>371.115994</ele>
        <time>2021-11-22T00:45:26.437Z</time>
      </trkpt>
      <trkpt lat="47.589912" lon="8.202359">
        <ele>369.053692</ele>
        <time>2021-11-22T00:45:31.733Z</time>
      </trkpt>
      <trkpt lat="47.589702" lon="8.202598">
        <ele>368.342445</ele>
        <time>2021-11-22T00:45:34.362Z</time>
      </trkpt>
      <trkpt lat="47.589607" lon="8.202594">
        <ele>368.087107</ele>
        <time>2021-11-22T00:45:35.921Z</time>
      </trkpt>
      <trkpt lat="47.588345" lon="8.202845">
        <ele>364.674268</ele>
        <time>2021-11-22T00:45:55.258Z</time>
      </trkpt>
      <trkpt lat="47.588204" lon="8.202896">
        <ele>364.447728</ele>
        <time>2021-11-22T00:45:57.609Z</time>
      </trkpt>
      <trkpt lat="47.587806" lon="8.203077">
        <ele>363.797928</ele>
        <time>2021-11-22T00:46:04.310Z</time>
      </trkpt>
      <trkpt lat="47.587395" lon="8.203275">
        <ele>363.123387</ele>
        <time>2021-11-22T00:46:11.430Z</time>
      </trkpt>
      <trkpt lat="47.587223" lon="8.203331">
        <ele>362.848517</ele>
        <time>2021-11-22T00:46:14.203Z</time>
      </trkpt>
      <trkpt lat="47.587081" lon="8.203346">
        <ele>362.626309</ele>
        <time>2021-11-22T00:46:16.799Z</time>
      </trkpt>
      <trkpt lat="47.586697" lon="8.203308">
        <ele>362.025594</ele>
        <time>2021-11-22T00:46:23.412Z</time>
      </trkpt>
      <trkpt lat="47.586521" lon="8.203267">
        <ele>361.892279</ele>
        <time>2021-11-22T00:46:26.253Z</time>
      </trkpt>
      <trkpt lat="47.586081" lon="8.203166">
        <ele>361.968026</ele>
        <time>2021-11-22T00:46:33.878Z</time>
      </trkpt>
      <trkpt lat="47.586005" lon="8.203143">
        <ele>361.981222</ele>
        <time>2021-11-22T00:46:35.609Z</time>
      </trkpt>
      <trkpt lat="47.585408" lon="8.202985">
        <ele>362.084393</ele>
        <time>2021-11-22T00:46:47.167Z</time>
      </trkpt>
      <trkpt lat="47.584882" lon="8.202863">
        <ele>362.174967</ele>
        <time>2021-11-22T00:47:01.317Z</time>
      </trkpt>
      <trkpt lat="47.584595" lon="8.202784">
        <ele>362.744071</ele>
        <time>2021-11-22T00:47:09.820Z</time>
      </trkpt>
      <trkpt lat="47.584291" lon="8.202749">
        <ele>363.459926</ele>
        <time>2021-11-22T00:47:18.808Z</time>
      </trkpt>
      <trkpt lat="47.583574" lon="8.202741">
        <ele>365.143290</ele>
        <time>2021-11-22T00:47:41.121Z</time>
      </trkpt>
      <trkpt lat="47.582711" lon="8.202807">
        <ele>366.533482</ele>
        <time>2021-11-22T00:48:07.243Z</time>
      </trkpt>
      <trkpt lat="47.582534" lon="8.202872">
        <ele>366.604369</ele>
        <time>2021-11-22T00:48:12.813Z</time>
      </trkpt>
      <trkpt lat="47.581618" lon="8.203163">
        <ele>366.968547</ele>
        <time>2021-11-22T00:48:31.725Z</time>
      </trkpt>
      <trkpt lat="47.581549" lon="8.203215">
        <ele>366.998637</ele>
        <time>2021-11-22T00:48:32.935Z</time>
      </trkpt>
      <trkpt lat="47.580665" lon="8.203400">
        <ele>366.440630</ele>
        <time>2021-11-22T00:48:47.692Z</time>
      </trkpt>
      <trkpt lat="47.580554" lon="8.203421">
        <ele>366.319893</ele>
        <time>2021-11-22T00:48:49.692Z</time>
      </trkpt>
      <trkpt lat="47.580448" lon="8.203389">
        <ele>366.203175</ele>
        <time>2021-11-22T00:48:51.243Z</time>
      </trkpt>
      <trkpt lat="47.580394" lon="8.203348">
        <ele>366.137714</ele>
        <time>2021-11-22T00:48:52.466Z</time>
      </trkpt>
      <trkpt lat="47.579917" lon="8.202787">
        <ele>365.480750</ele>
        <time>2021-11-22T00:49:02.492Z</time>
      </trkpt>
      <trkpt lat="47.579735" lon="8.202470">
        <ele>365.177773</ele>
        <time>2021-11-22T00:49:07.705Z</time>
      </trkpt>
      <trkpt lat="47.579686" lon="8.202374">
        <ele>365.266714</ele>
        <time>2021-11-22T00:49:09.153Z</time>
      </trkpt>
      <trkpt lat="47.579612" lon="8.202233">
        <ele>365.442208</ele>
        <time>2021-11-22T00:49:11.635Z</time>
      </trkpt>
      <trkpt lat="47.579523" lon="8.202175">
        <ele>365.583787</ele>
        <time>2021-11-22T00:49:13.786Z</time>
      </trkpt>
      <trkpt lat="47.579408" lon="8.201917">
        <ele>365.887565</ele>
        <time>2021-11-22T00:49:17.474Z</time>
      </trkpt>
      <trkpt lat="47.579131" lon="8.201438">
        <ele>366.507352</ele>
        <time>2021-11-22T00:49:26.659Z</time>
      </trkpt>
      <trkpt lat="47.578817" lon="8.201076">
        <ele>367.086623</ele>
        <time>2021-11-22T00:49:35.812Z</time>
      </trkpt>
      <trkpt lat="47.578441" lon="8.200648">
        <ele>367.776984</ele>
        <time>2021-11-22T00:49:47.581Z</time>
      </trkpt>
      <trkpt lat="47.578334" lon="8.200508">
        <ele>368.139196</ele>
        <time>2021-11-22T00:49:51.366Z</time>
      </trkpt>
      <trkpt lat="47.577966" lon="8.199918">
        <ele>369.537240</ele>
        <time>2021-11-22T00:50:05.513Z</time>
      </trkpt>
      <trkpt lat="47.577833" lon="8.199696">
        <ele>370.053816</ele>
        <time>2021-11-22T00:50:09.849Z</time>
      </trkpt>
      <trkpt lat="47.577794" lon="8.199631">
        <ele>370.205166</ele>
        <time>2021-11-22T00:50:11.526Z</time>
      </trkpt>
      <trkpt lat="47.577488" lon="8.199356">
        <ele>371.128083</ele>
        <time>2021-11-22T00:50:20.671Z</time>
      </trkpt>
      <trkpt lat="47.577432" lon="8.199320">
        <ele>371.285510</ele>
        <time>2021-11-22T00:50:22.337Z</time>
      </trkpt>
      <trkpt lat="47.577283" lon="8.199241">
        <ele>371.693641</ele>
        <time>2021-11-22T00:50:25.785Z</time>
      </trkpt>
      <trkpt lat="47.577220" lon="8.199207">
        <ele>371.866559</ele>
        <time>2021-11-22T00:50:27.499Z</time>
      </trkpt>
      <trkpt lat="47.577129" lon="8.199176">
        <ele>372.107376</ele>
        <time>2021-11-22T00:50:29.824Z</time>
      </trkpt>
      <trkpt lat="47.576993" lon="8.199134">
        <ele>372.480729</ele>
        <time>2021-11-22T00:50:33.519Z</time>
      </trkpt>
      <trkpt lat="47.576952" lon="8.199107">
        <ele>372.637786</ele>
        <time>2021-11-22T00:50:34.298Z</time>
      </trkpt>
      <trkpt lat="47.576579" lon="8.198621">
        <ele>374.376280</ele>
        <time>2021-11-22T00:50:47.531Z</time>
      </trkpt>
      <trkpt lat="47.576517" lon="8.198560">
        <ele>374.636783</ele>
        <time>2021-11-22T00:50:50.025Z</time>
      </trkpt>
      <trkpt lat="47.576449" lon="8.198516">
        <ele>374.896525</ele>
        <time>2021-11-22T00:50:52.251Z</time>
      </trkpt>
      <trkpt lat="47.576404" lon="8.198504">
        <ele>375.056587</ele>
        <time>2021-11-22T00:50:53.195Z</time>
      </trkpt>
      <trkpt lat="47.576370" lon="8.198512">
        <ele>375.177102</ele>
        <time>2021-11-22T00:50:53.824Z</time>
      </trkpt>
      <trkpt lat="47.576353" lon="8.198518">
        <ele>375.238278</ele>
        <time>2021-11-22T00:50:54.739Z</time>
      </trkpt>
      <trkpt lat="47.576243" lon="8.198668">
        <ele>375.761515</ele>
        <time>2021-11-22T00:50:58.500Z</time>
      </trkpt>
      <trkpt lat="47.576040" lon="8.199164">
        <ele>377.131601</ele>
        <time>2021-11-22T00:51:09.119Z</time>
      </trkpt>
      <trkpt lat="47.575997" lon="8.199245">
        <ele>377.375020</ele>
        <time>2021-11-22T00:51:11.279Z</time>
      </trkpt>
      <trkpt lat="47.575939" lon="8.199309">
        <ele>377.628143</ele>
        <time>2021-11-22T00:51:12.798Z</time>
      </trkpt>
      <trkpt lat="47.575835" lon="8.199428">
        <ele>378.088071</ele>
        <time>2021-11-22T00:51:16.278Z</time>
      </trkpt>
      <trkpt lat="47.575594" lon="8.199685">
        <ele>379.529991</ele>
        <time>2021-11-22T00:51:26.766Z</time>
      </trkpt>
      <trkpt lat="47.575461" lon="8.199807">
        <ele>380.618779</ele>
        <time>2021-11-22T00:51:32.462Z</time>
      </trkpt>
      <trkpt lat="47.574616" lon="8.200755">
        <ele>387.995914</ele>
        <time>2021-11-22T00:52:21.285Z</time>
      </trkpt>
      <trkpt lat="47.574515" lon="8.200813">
        <ele>388.749923</ele>
        <time>2021-11-22T00:52:26.810Z</time>
      </trkpt>
      <trkpt lat="47.574450" lon="8.200829">
        <ele>389.208603</ele>
        <time>2021-11-22T00:52:30.749Z</time>
      </trkpt>
      <trkpt lat="47.574356" lon="8.200811">
        <ele>389.868403</ele>
        <time>2021-11-22T00:52:33.781Z</time>
      </trkpt>
      <trkpt lat="47.574247" lon="8.200781">
        <ele>390.640153</ele>
        <time>2021-11-22T00:52:38.925Z</time>
      </trkpt>
      <trkpt lat="47.574089" lon="8.200695">
        <ele>391.626149</ele>
        <time>2021-11-22T00:52:48.025Z</time>
      </trkpt>
      <trkpt lat="47.572804" lon="8.199969">
        <ele>398.085124</ele>
        <time>2021-11-22T00:53:39.906Z</time>
      </trkpt>
      <trkpt lat="47.572312" lon="8.199751">
        <ele>399.572547</ele>
        <time>2021-11-22T00:53:47.893Z</time>
      </trkpt>
      <trkpt lat="47.572250" lon="8.199723">
        <ele>399.528720</ele>
        <time>2021-11-22T00:53:48.660Z</time>
      </trkpt>
      <trkpt lat="47.571863" lon="8.199549">
        <ele>399.255259</ele>
        <time>2021-11-22T00:53:53.570Z</time>
      </trkpt>
      <trkpt lat="47.571416" lon="8.199356">
        <ele>398.940437</ele>
        <time>2021-11-22T00:53:58.915Z</time>
      </trkpt>
      <trkpt lat="47.571180" lon="8.199253">
        <ele>398.774081</ele>
        <time>2021-11-22T00:54:01.658Z</time>
      </trkpt>
      <trkpt lat="47.570594" lon="8.199059">
        <ele>398.859524</ele>
        <time>2021-11-22T00:54:08.846Z</time>
      </trkpt>
      <trkpt lat="47.570363" lon="8.199052">
        <ele>399.437409</ele>
        <time>2021-11-22T00:54:12.052Z</time>
      </trkpt>
      <trkpt lat="47.569934" lon="8.199154">
        <ele>400.524119</ele>
        <time>2021-11-22T00:54:20.138Z</time>
      </trkpt>
      <trkpt lat="47.569792" lon="8.199218">
        <ele>400.895340</ele>
        <time>2021-11-22T00:54:23.619Z</time>
      </trkpt>
      <trkpt lat="47.569710" lon="8.199256">
        <ele>401.110225</ele>
        <time>2021-11-22T00:54:25.590Z</time>
      </trkpt>
      <trkpt lat="47.569668" lon="8.199275">
        <ele>401.220057</ele>
        <time>2021-11-22T00:54:26.598Z</time>
      </trkpt>
      <trkpt lat="47.569431" lon="8.199372">
        <ele>401.835015</ele>
        <time>2021-11-22T00:54:33.429Z</time>
      </trkpt>
      <trkpt lat="47.568571" lon="8.199729">
        <ele>406.517821</ele>
        <time>2021-11-22T00:55:09.075Z</time>
      </trkpt>
      <trkpt lat="47.567931" lon="8.199770">
        <ele>411.695563</ele>
        <time>2021-11-22T00:55:40.953Z</time>
      </trkpt>
      <trkpt lat="47.567733" lon="8.199741">
        <ele>413.303728</ele>
        <time>2021-11-22T00:55:51.508Z</time>
      </trkpt>
      <trkpt lat="47.567549" lon="8.199701">
        <ele>414.806854</ele>
        <time>2021-11-22T00:56:00.225Z</time>
      </trkpt>
      <trkpt lat="47.567494" lon="8.199692">
        <ele>415.254102</ele>
        <time>2021-11-22T00:56:03.145Z</time>
      </trkpt>
      <trkpt lat="47.567182" lon="8.199624">
        <ele>417.844694</ele>
        <time>2021-11-22T00:56:18.625Z</time>
      </trkpt>
      <trkpt lat="47.566549" lon="8.199512">
        <ele>423.728181</ele>
        <time>2021-11-22T00:56:53.081Z</time>
      </trkpt>
      <trkpt lat="47.565402" lon="8.199270">
        <ele>434.222364</ele>
        <time>2021-11-22T00:57:56.255Z</time>
      </trkpt>
      <trkpt lat="47.565276" lon="8.199206">
        <ele>434.669538</ele>
        <time>2021-11-22T00:58:03.450Z</time>
      </trkpt>
      <trkpt lat="47.565203" lon="8.199174">
        <ele>434.925117</ele>
        <time>2021-11-22T00:58:06.825Z</time>
      </trkpt>
      <trkpt lat="47.565092" lon="8.199089">
        <ele>435.344584</ele>
        <time>2021-11-22T00:58:09.027Z</time>
      </trkpt>
      <trkpt lat="47.564963" lon="8.198970">
        <ele>435.854720</ele>
        <time>2021-11-22T00:58:15.758Z</time>
      </trkpt>
      <trkpt lat="47.564900" lon="8.198893">
        <ele>436.128878</ele>
        <time>2021-11-22T00:58:18.697Z</time>
      </trkpt>
      <trkpt lat="47.564786" lon="8.198730">
        <ele>436.660697</ele>
        <time>2021-11-22T00:58:20.893Z</time>
      </trkpt>
      <trkpt lat="47.564717" lon="8.198585">
        <ele>437.062643</ele>
        <time>2021-11-22T00:58:25.628Z</time>
      </trkpt>
      <trkpt lat="47.564682" lon="8.198489">
        <ele>437.309832</ele>
        <time>2021-11-22T00:58:27.354Z</time>
      </trkpt>
      <trkpt lat="47.564571" lon="8.198114">
        <ele>438.237487</ele>
        <time>2021-11-22T00:58:33.124Z</time>
      </trkpt>
      <trkpt lat="47.564411" lon="8.197395">
        <ele>439.952579</ele>
        <time>2021-11-22T00:58:43.332Z</time>
      </trkpt>
      <trkpt lat="47.564252" lon="8.196687">
        <ele>439.866314</ele>
        <time>2021-11-22T00:58:49.980Z</time>
      </trkpt>
      <trkpt lat="47.564213" lon="8.196452">
        <ele>439.763206</ele>
        <time>2021-11-22T00:58:51.544Z</time>
      </trkpt>
      <trkpt lat="47.564170" lon="8.196214">
        <ele>439.658230</ele>
        <time>2021-11-22T00:58:53.309Z</time>
      </trkpt>
      <trkpt lat="47.564110" lon="8.195703">
        <ele>439.437240</ele>
        <time>2021-11-22T00:58:56.943Z</time>
      </trkpt>
      <trkpt lat="47.564107" lon="8.195673">
        <ele>439.424318</ele>
        <time>2021-11-22T00:58:57.835Z</time>
      </trkpt>
      <trkpt lat="47.564079" lon="8.195206">
        <ele>439.224562</ele>
        <time>2021-11-22T00:59:01.485Z</time>
      </trkpt>
      <trkpt lat="47.564061" lon="8.194828">
        <ele>439.063109</ele>
        <time>2021-11-22T00:59:05.425Z</time>
      </trkpt>
      <trkpt lat="47.564028" lon="8.194134">
        <ele>440.255211</ele>
        <time>2021-11-22T00:59:17.024Z</time>
      </trkpt>
      <trkpt lat="47.564019" lon="8.193989">
        <ele>440.569849</ele>
        <time>2021-11-22T00:59:20.725Z</time>
      </trkpt>
      <trkpt lat="47.563969" lon="8.193666">
        <ele>441.285917</ele>
        <time>2021-11-22T00:59:27.937Z</time>
      </trkpt>
      <trkpt lat="47.563876" lon="8.193308">
        <ele>442.114830</ele>
        <time>2021-11-22T00:59:36.663Z</time>
      </trkpt>
      <trkpt lat="47.563699" lon="8.192817">
        <ele>443.317699</ele>
        <time>2021-11-22T00:59:47.827Z</time>
      </trkpt>
      <trkpt lat="47.563580" lon="8.192549">
        <ele>444.010930</ele>
        <time>2021-11-22T00:59:53.453Z</time>
      </trkpt>
      <trkpt lat="47.563443" lon="8.192289">
        <ele>444.723743</ele>
        <time>2021-11-22T00:59:59.948Z</time>
      </trkpt>
      <trkpt lat="47.563220" lon="8.191911">
        <ele>445.577630</ele>
        <time>2021-11-22T01:00:09.368Z</time>
      </trkpt>
      <trkpt lat="47.563121" lon="8.191765">
        <ele>445.925234</ele>
        <time>2021-11-22T01:00:12.850Z</time>
      </trkpt>
      <trkpt lat="47.562742" lon="8.191268">
        <ele>447.184762</ele>
        <time>2021-11-22T01:00:26.499Z</time>
      </trkpt>
      <trkpt lat="47.562600" lon="8.191109">
        <ele>447.627711</ele>
        <time>2021-11-22T01:00:30.753Z</time>
      </trkpt>
      <trkpt lat="47.562270" lon="8.190771">
        <ele>448.626095</ele>
        <time>2021-11-22T01:00:39.834Z</time>
      </trkpt>
      <trkpt lat="47.561339" lon="8.190034">
        <ele>450.921155</ele>
        <time>2021-11-22T01:01:01.347Z</time>
      </trkpt>
      <trkpt lat="47.560917" lon="8.189786">
        <ele>451.863969</ele>
        <time>2021-11-22T01:01:10.599Z</time>
      </trkpt>
      <trkpt lat="47.560801" lon="8.189726">
        <ele>452.119132</ele>
        <time>2021-11-22T01:01:14.743Z</time>
      </trkpt>
      <trkpt lat="47.560673" lon="8.189659">
        <ele>452.401060</ele>
        <time>2021-11-22T01:01:18.071Z</time>
      </trkpt>
      <trkpt lat="47.560109" lon="8.189498">
        <ele>454.328912</ele>
        <time>2021-11-22T01:01:34.172Z</time>
      </trkpt>
      <trkpt lat="47.559834" lon="8.189566">
        <ele>455.605201</ele>
        <time>2021-11-22T01:01:41.614Z</time>
      </trkpt>
      <trkpt lat="47.559559" lon="8.189740">
        <ele>456.974037</ele>
        <time>2021-11-22T01:01:51.353Z</time>
      </trkpt>
      <trkpt lat="47.559488" lon="8.189816">
        <ele>457.374985</ele>
        <time>2021-11-22T01:01:53.796Z</time>
      </trkpt>
      <trkpt lat="47.559378" lon="8.189953">
        <ele>458.032770</ele>
        <time>2021-11-22T01:01:59.883Z</time>
      </trkpt>
      <trkpt lat="47.558371" lon="8.192047">
        <ele>467.054226</ele>
        <time>2021-11-22T01:03:04.761Z</time>
      </trkpt>
      <trkpt lat="47.558109" lon="8.192336">
        <ele>468.888165</ele>
        <time>2021-11-22T01:03:16.679Z</time>
      </trkpt>
      <trkpt lat="47.557808" lon="8.192484">
        <ele>470.668866</ele>
        <time>2021-11-22T01:03:28.099Z</time>
      </trkpt>
      <trkpt lat="47.557714" lon="8.192494">
        <ele>471.198026</ele>
        <time>2021-11-22T01:03:32.943Z</time>
      </trkpt>
      <trkpt lat="47.557539" lon="8.192482">
        <ele>472.171615</ele>
        <time>2021-11-22T01:03:38.705Z</time>
      </trkpt>
      <trkpt lat="47.557188" lon="8.192350">
        <ele>474.181258</ele>
        <time>2021-11-22T01:03:52.432Z</time>
      </trkpt>
      <trkpt lat="47.556798" lon="8.191880">
        <ele>476.971001</ele>
        <time>2021-11-22T01:04:11.860Z</time>
      </trkpt>
      <trkpt lat="47.556132" lon="8.189993">
        <ele>484.202981</ele>
        <time>2021-11-22T01:05:03.316Z</time>
      </trkpt>
      <trkpt lat="47.555272" lon="8.187188">
        <ele>491.393855</ele>
        <time>2021-11-22T01:06:06.868Z</time>
      </trkpt>
      <trkpt lat="47.554972" lon="8.186525">
        <ele>492.627452</ele>
        <time>2021-11-22T01:06:17.830Z</time>
      </trkpt>
      <trkpt lat="47.554800" lon="8.186250">
        <ele>493.206889</ele>
        <time>2021-11-22T01:06:22.279Z</time>
      </trkpt>
      <trkpt lat="47.554367" lon="8.185749">
        <ele>492.164503</ele>
        <time>2021-11-22T01:06:29.306Z</time>
      </trkpt>
      <trkpt lat="47.553859" lon="8.185383">
        <ele>490.753199</ele>
        <time>2021-11-22T01:06:35.007Z</time>
      </trkpt>
      <trkpt lat="47.553316" lon="8.185187">
        <ele>489.356862</ele>
        <time>2021-11-22T01:06:40.623Z</time>
      </trkpt>
      <trkpt lat="47.553227" lon="8.185177">
        <ele>489.133861</ele>
        <time>2021-11-22T01:06:41.455Z</time>
      </trkpt>
      <trkpt lat="47.552981" lon="8.185161">
        <ele>488.432545</ele>
        <time>2021-11-22T01:06:43.961Z</time>
      </trkpt>
      <trkpt lat="47.552746" lon="8.185180">
        <ele>487.700830</ele>
        <time>2021-11-22T01:06:46.213Z</time>
      </trkpt>
      <trkpt lat="47.552101" lon="8.185355">
        <ele>485.662147</ele>
        <time>2021-11-22T01:06:52.650Z</time>
      </trkpt>
      <trkpt lat="47.550775" lon="8.185862">
        <ele>483.330895</ele>
        <time>2021-11-22T01:07:07.483Z</time>
      </trkpt>
      <trkpt lat="47.550661" lon="8.185911">
        <ele>483.341134</ele>
        <time>2021-11-22T01:07:09.115Z</time>
      </trkpt>
      <trkpt lat="47.550396" lon="8.185961">
        <ele>483.364177</ele>
        <time>2021-11-22T01:07:12.938Z</time>
      </trkpt>
      <trkpt lat="47.550243" lon="8.185976">
        <ele>483.377403</ele>
        <time>2021-11-22T01:07:15.529Z</time>
      </trkpt>
      <trkpt lat="47.550129" lon="8.185964">
        <ele>483.387261</ele>
        <time>2021-11-22T01:07:17.702Z</time>
      </trkpt>
      <trkpt lat="47.549993" lon="8.185950">
        <ele>483.399020</ele>
        <time>2021-11-22T01:07:20.921Z</time>
      </trkpt>
      <trkpt lat="47.549476" lon="8.185911">
        <ele>483.761644</ele>
        <time>2021-11-22T01:07:33.573Z</time>
      </trkpt>
      <trkpt lat="47.549047" lon="8.186089">
        <ele>485.068223</ele>
        <time>2021-11-22T01:07:45.237Z</time>
      </trkpt>
      <trkpt lat="47.548879" lon="8.186258">
        <ele>485.663773</ele>
        <time>2021-11-22T01:07:50.490Z</time>
      </trkpt>
      <trkpt lat="47.548674" lon="8.186493">
        <ele>486.423952</ele>
        <time>2021-11-22T01:07:57.687Z</time>
      </trkpt>
      <trkpt lat="47.548532" lon="8.186641">
        <ele>486.933137</ele>
        <time>2021-11-22T01:08:02.450Z</time>
      </trkpt>
      <trkpt lat="47.548282" lon="8.186836">
        <ele>487.761742</ele>
        <time>2021-11-22T01:08:09.262Z</time>
      </trkpt>
      <trkpt lat="47.548192" lon="8.186871">
        <ele>488.034636</ele>
        <time>2021-11-22T01:08:12.520Z</time>
      </trkpt>
      <trkpt lat="47.548052" lon="8.186907">
        <ele>488.451366</ele>
        <time>2021-11-22T01:08:16.328Z</time>
      </trkpt>
      <trkpt lat="47.547919" lon="8.186917">
        <ele>488.844955</ele>
        <time>2021-11-22T01:08:19.790Z</time>
      </trkpt>
      <trkpt lat="47.547833" lon="8.186908">
        <ele>489.103562</ele>
        <time>2021-11-22T01:08:22.993Z</time>
      </trkpt>
      <trkpt lat="47.547688" lon="8.186873">
        <ele>489.544235</ele>
        <time>2021-11-22T01:08:27.157Z</time>
      </trkpt>
      <trkpt lat="47.547662" lon="8.186864">
        <ele>489.624325</ele>
        <time>2021-11-22T01:08:27.887Z</time>
      </trkpt>
      <trkpt lat="47.547530" lon="8.186777">
        <ele>490.057682</ele>
        <time>2021-11-22T01:08:32.097Z</time>
      </trkpt>
      <trkpt lat="47.547458" lon="8.186711">
        <ele>490.311649</ele>
        <time>2021-11-22T01:08:34.773Z</time>
      </trkpt>
      <trkpt lat="47.547308" lon="8.186546">
        <ele>490.872046</ele>
        <time>2021-11-22T01:08:39.578Z</time>
      </trkpt>
      <trkpt lat="47.547190" lon="8.186389">
        <ele>491.347780</ele>
        <time>2021-11-22T01:08:43.889Z</time>
      </trkpt>
      <trkpt lat="47.547154" lon="8.186335">
        <ele>491.501449</ele>
        <time>2021-11-22T01:08:45.171Z</time>
      </trkpt>
      <trkpt lat="47.547016" lon="8.186095">
        <ele>492.139780</ele>
        <time>2021-11-22T01:08:49.400Z</time>
      </trkpt>
      <trkpt lat="47.546993" lon="8.186066">
        <ele>492.230373</ele>
        <time>2021-11-22T01:08:50.382Z</time>
      </trkpt>
      <trkpt lat="47.546914" lon="8.186002">
        <ele>492.500455</ele>
        <time>2021-11-22T01:08:52.635Z</time>
      </trkpt>
      <trkpt lat="47.546791" lon="8.185915">
        <ele>492.909295</ele>
        <time>2021-11-22T01:08:55.953Z</time>
      </trkpt>
      <trkpt lat="47.546751" lon="8.185869">
        <ele>493.061184</ele>
        <time>2021-11-22T01:08:56.979Z</time>
      </trkpt>
      <trkpt lat="47.546713" lon="8.185804">
        <ele>493.235287</ele>
        <time>2021-11-22T01:08:58.064Z</time>
      </trkpt>
      <trkpt lat="47.546702" lon="8.185736">
        <ele>493.376864</ele>
        <time>2021-11-22T01:08:59.573Z</time>
      </trkpt>
      <trkpt lat="47.546710" lon="8.185525">
        <ele>493.804745</ele>
        <time>2021-11-22T01:09:03.356Z</time>
      </trkpt>
      <trkpt lat="47.546754" lon="8.184671">
        <ele>496.660769</ele>
        <time>2021-11-22T01:09:20.089Z</time>
      </trkpt>
      <trkpt lat="47.546713" lon="8.184384">
        <ele>497.719226</ele>
        <time>2021-11-22T01:09:27.504Z</time>
      </trkpt>
      <trkpt lat="47.546597" lon="8.184061">
        <ele>499.039328</ele>
        <time>2021-11-22T01:09:36.399Z</time>
      </trkpt>
      <trkpt lat="47.546552" lon="8.183986">
        <ele>499.401390</ele>
        <time>2021-11-22T01:09:40.089Z</time>
      </trkpt>
      <trkpt lat="47.546484" lon="8.183925">
        <ele>499.826319</ele>
        <time>2021-11-22T01:09:42.803Z</time>
      </trkpt>
      <trkpt lat="47.546418" lon="8.183901">
        <ele>500.189587</ele>
        <time>2021-11-22T01:09:44.839Z</time>
      </trkpt>
      <trkpt lat="47.546327" lon="8.183903">
        <ele>500.676072</ele>
        <time>2021-11-22T01:09:48.384Z</time>
      </trkpt>
      <trkpt lat="47.546078" lon="8.183925">
        <ele>502.009441</ele>
        <time>2021-11-22T01:09:59.303Z</time>
      </trkpt>
      <trkpt lat="47.545985" lon="8.183902">
        <ele>502.513442</ele>
        <time>2021-11-22T01:10:02.747Z</time>
      </trkpt>
      <trkpt lat="47.545828" lon="8.183838">
        <ele>503.383859</ele>
        <time>2021-11-22T01:10:10.259Z</time>
      </trkpt>
      <trkpt lat="47.545667" lon="8.183774">
        <ele>504.466191</ele>
        <time>2021-11-22T01:10:16.462Z</time>
      </trkpt>
      <trkpt lat="47.545614" lon="8.183745">
        <ele>504.872071</ele>
        <time>2021-11-22T01:10:18.458Z</time>
      </trkpt>
      <trkpt lat="47.545545" lon="8.183735">
        <ele>505.370118</ele>
        <time>2021-11-22T01:10:22.015Z</time>
      </trkpt>
      <trkpt lat="47.545370" lon="8.183783">
        <ele>506.648646</ele>
        <time>2021-11-22T01:10:29.360Z</time>
      </trkpt>
      <trkpt lat="47.545233" lon="8.183913">
        <ele>507.817402</ele>
        <time>2021-11-22T01:10:35.746Z</time>
      </trkpt>
      <trkpt lat="47.545189" lon="8.183981">
        <ele>508.274172</ele>
        <time>2021-11-22T01:10:39.348Z</time>
      </trkpt>
      <trkpt lat="47.545131" lon="8.184113">
        <ele>509.037920</ele>
        <time>2021-11-22T01:10:44.097Z</time>
      </trkpt>
      <trkpt lat="47.545071" lon="8.184309">
        <ele>510.081519</ele>
        <time>2021-11-22T01:10:50.257Z</time>
      </trkpt>
      <trkpt lat="47.545020" lon="8.184519">
        <ele>511.163738</ele>
        <time>2021-11-22T01:10:58.265Z</time>
      </trkpt>
      <trkpt lat="47.545007" lon="8.184603">
        <ele>511.581634</ele>
        <time>2021-11-22T01:11:01.155Z</time>
      </trkpt>
      <trkpt lat="47.544872" lon="8.185362">
        <ele>515.387758</ele>
        <time>2021-11-22T01:11:23.748Z</time>
      </trkpt>
      <trkpt lat="47.544810" lon="8.186087">
        <ele>518.648485</ele>
        <time>2021-11-22T01:11:45.233Z</time>
      </trkpt>
      <trkpt lat="47.544725" lon="8.186193">
        <ele>519.348081</ele>
        <time>2021-11-22T01:11:49.943Z</time>
      </trkpt>
      <trkpt lat="47.544619" lon="8.186213">
        <ele>520.020917</ele>
        <time>2021-11-22T01:11:53.502Z</time>
      </trkpt>
      <trkpt lat="47.544507" lon="8.186163">
        <ele>520.757465</ele>
        <time>2021-11-22T01:11:58.410Z</time>
      </trkpt>
      <trkpt lat="47.544424" lon="8.186024">
        <ele>521.546246</ele>
        <time>2021-11-22T01:12:03.278Z</time>
      </trkpt>
      <trkpt lat="47.544353" lon="8.185471">
        <ele>523.938829</ele>
        <time>2021-11-22T01:12:16.301Z</time>
      </trkpt>
      <trkpt lat="47.544212" lon="8.184972">
        <ele>526.238085</ele>
        <time>2021-11-22T01:12:30.952Z</time>
      </trkpt>
      <trkpt lat="47.544138" lon="8.184789">
        <ele>527.144788</ele>
        <time>2021-11-22T01:12:37.558Z</time>
      </trkpt>
      <trkpt lat="47.544044" lon="8.184606">
        <ele>528.115949</ele>
        <time>2021-11-22T01:12:44.153Z</time>
      </trkpt>
      <trkpt lat="47.543634" lon="8.183625">
        <ele>532.824886</ele>
        <time>2021-11-22T01:13:15.756Z</time>
      </trkpt>
      <trkpt lat="47.543590" lon="8.183476">
        <ele>533.488631</ele>
        <time>2021-11-22T01:13:21.238Z</time>
      </trkpt>
      <trkpt lat="47.543565" lon="8.183342">
        <ele>534.056020</ele>
        <time>2021-11-22T01:13:24.999Z</time>
      </trkpt>
      <trkpt lat="47.543480" lon="8.182935">
        <ele>535.794763</ele>
        <time>2021-11-22T01:13:36.054Z</time>
      </trkpt>
      <trkpt lat="47.543406" lon="8.182573">
        <ele>537.338430</ele>
        <time>2021-11-22T01:13:44.794Z</time>
      </trkpt>
      <trkpt lat="47.543392" lon="8.182519">
        <ele>537.574513</ele>
        <time>2021-11-22T01:13:47.276Z</time>
      </trkpt>
      <trkpt lat="47.543096" lon="8.180990">
        <ele>540.457204</ele>
        <time>2021-11-22T01:14:22.342Z</time>
      </trkpt>
      <trkpt lat="47.543154" lon="8.180425">
        <ele>541.178998</ele>
        <time>2021-11-22T01:14:29.785Z</time>
      </trkpt>
      <trkpt lat="47.543305" lon="8.179775">
        <ele>542.047195</ele>
        <time>2021-11-22T01:14:35.279Z</time>
      </trkpt>
      <trkpt lat="47.543357" lon="8.179586">
        <ele>541.969581</ele>
        <time>2021-11-22T01:14:37.252Z</time>
      </trkpt>
      <trkpt lat="47.543396" lon="8.179405">
        <ele>541.403875</ele>
        <time>2021-11-22T01:14:38.529Z</time>
      </trkpt>
      <trkpt lat="47.543458" lon="8.179101">
        <ele>540.458322</ele>
        <time>2021-11-22T01:14:40.752Z</time>
      </trkpt>
      <trkpt lat="47.543472" lon="8.179027">
        <ele>540.229502</ele>
        <time>2021-11-22T01:14:44.386Z</time>
      </trkpt>
      <trkpt lat="47.543492" lon="8.178872">
        <ele>539.759643</ele>
        <time>2021-11-22T01:14:45.313Z</time>
      </trkpt>
      <trkpt lat="47.543620" lon="8.176594">
        <ele>532.095706</ele>
        <time>2021-11-22T01:14:59.703Z</time>
      </trkpt>
      <trkpt lat="47.543596" lon="8.176496">
        <ele>531.583269</ele>
        <time>2021-11-22T01:15:00.370Z</time>
      </trkpt>
      <trkpt lat="47.543542" lon="8.176433">
        <ele>531.082751</ele>
        <time>2021-11-22T01:15:00.938Z</time>
      </trkpt>
      <trkpt lat="47.543498" lon="8.176425">
        <ele>530.759946</ele>
        <time>2021-11-22T01:15:01.347Z</time>
      </trkpt>
      <trkpt lat="47.543322" lon="8.176586">
        <ele>529.253691</ele>
        <time>2021-11-22T01:15:03.357Z</time>
      </trkpt>
      <trkpt lat="47.543074" lon="8.177090">
        <ele>526.187945</ele>
        <time>2021-11-22T01:15:07.069Z</time>
      </trkpt>
      <trkpt lat="47.542588" lon="8.177199">
        <ele>522.608644</ele>
        <time>2021-11-22T01:15:11.410Z</time>
      </trkpt>
      <trkpt lat="47.542522" lon="8.177193">
        <ele>522.127139</ele>
        <time>2021-11-22T01:15:12.029Z</time>
      </trkpt>
      <trkpt lat="47.542435" lon="8.177076">
        <ele>521.271505</ele>
        <time>2021-11-22T01:15:13.038Z</time>
      </trkpt>
      <trkpt lat="47.542415" lon="8.176968">
        <ele>520.613223</ele>
        <time>2021-11-22T01:15:13.678Z</time>
      </trkpt>
      <trkpt lat="47.542461" lon="8.176828">
        <ele>519.665798</ele>
        <time>2021-11-22T01:15:14.608Z</time>
      </trkpt>
      <trkpt lat="47.542728" lon="8.176498">
        <ele>516.531427</ele>
        <time>2021-11-22T01:15:17.642Z</time>
      </trkpt>
      <trkpt lat="47.542789" lon="8.176356">
        <ele>515.507272</ele>
        <time>2021-11-22T01:15:18.657Z</time>
      </trkpt>
      <trkpt lat="47.542818" lon="8.176268">
        <ele>514.911412</ele>
        <time>2021-11-22T01:15:19.210Z</time>
      </trkpt>
      <trkpt lat="47.542897" lon="8.175386">
        <ele>509.497623</ele>
        <time>2021-11-22T01:15:24.436Z</time>
      </trkpt>
      <trkpt lat="47.542928" lon="8.174898">
        <ele>506.515147</ele>
        <time>2021-11-22T01:15:27.284Z</time>
      </trkpt>
      <trkpt lat="47.542958" lon="8.174430">
        <ele>504.145045</ele>
        <time>2021-11-22T01:15:30.021Z</time>
      </trkpt>
      <trkpt lat="47.543005" lon="8.173666">
        <ele>501.228913</ele>
        <time>2021-11-22T01:15:34.685Z</time>
      </trkpt>
      <trkpt lat="47.542942" lon="8.173427">
        <ele>500.253623</ele>
        <time>2021-11-22T01:15:36.266Z</time>
      </trkpt>
      <trkpt lat="47.542804" lon="8.173437">
        <ele>499.475607</ele>
        <time>2021-11-22T01:15:37.632Z</time>
      </trkpt>
      <trkpt lat="47.542515" lon="8.174031">
        <ele>496.692350</ele>
        <time>2021-11-22T01:15:42.724Z</time>
      </trkpt>
      <trkpt lat="47.542421" lon="8.174181">
        <ele>495.914349</ele>
        <time>2021-11-22T01:15:43.979Z</time>
      </trkpt>
      <trkpt lat="47.542299" lon="8.174319">
        <ele>495.049984</ele>
        <time>2021-11-22T01:15:45.870Z</time>
      </trkpt>
      <trkpt lat="47.541677" lon="8.174964">
        <ele>490.041262</ele>
        <time>2021-11-22T01:15:53.063Z</time>
      </trkpt>
      <trkpt lat="47.541506" lon="8.174915">
        <ele>488.883285</ele>
        <time>2021-11-22T01:15:54.568Z</time>
      </trkpt>
      <trkpt lat="47.541486" lon="8.174716">
        <ele>487.980300</ele>
        <time>2021-11-22T01:15:55.877Z</time>
      </trkpt>
      <trkpt lat="47.541498" lon="8.174644">
        <ele>487.647451</ele>
        <time>2021-11-22T01:15:56.749Z</time>
      </trkpt>
      <trkpt lat="47.541583" lon="8.174150">
        <ele>485.359420</ele>
        <time>2021-11-22T01:15:59.776Z</time>
      </trkpt>
      <trkpt lat="47.541630" lon="8.173624">
        <ele>482.978071</ele>
        <time>2021-11-22T01:16:02.921Z</time>
      </trkpt>
      <trkpt lat="47.541680" lon="8.173272">
        <ele>480.578231</ele>
        <time>2021-11-22T01:16:04.971Z</time>
      </trkpt>
      <trkpt lat="47.541911" lon="8.172517">
        <ele>474.924075</ele>
        <time>2021-11-22T01:16:09.785Z</time>
      </trkpt>
      <trkpt lat="47.542048" lon="8.172212">
        <ele>472.425191</ele>
        <time>2021-11-22T01:16:11.851Z</time>
      </trkpt>
      <trkpt lat="47.542269" lon="8.171821">
        <ele>468.946742</ele>
        <time>2021-11-22T01:16:14.785Z</time>
      </trkpt>
      <trkpt lat="47.542400" lon="8.171599">
        <ele>466.935496</ele>
        <time>2021-11-22T01:16:16.554Z</time>
      </trkpt>
      <trkpt lat="47.542454" lon="8.171478">
        <ele>465.946101</ele>
        <time>2021-11-22T01:16:17.376Z</time>
      </trkpt>
      <trkpt lat="47.542881" lon="8.169924">
        <ele>457.916223</ele>
        <time>2021-11-22T01:16:27.552Z</time>
      </trkpt>
      <trkpt lat="47.543071" lon="8.169745">
        <ele>456.402739</ele>
        <time>2021-11-22T01:16:29.657Z</time>
      </trkpt>
      <trkpt lat="47.544202" lon="8.169104">
        <ele>448.499457</ele>
        <time>2021-11-22T01:16:40.843Z</time>
      </trkpt>
      <trkpt lat="47.544678" lon="8.168690">
        <ele>444.990902</ele>
        <time>2021-11-22T01:16:45.803Z</time>
      </trkpt>
      <trkpt lat="47.544873" lon="8.168362">
        <ele>443.115547</ele>
        <time>2021-11-22T01:16:48.455Z</time>
      </trkpt>
      <trkpt lat="47.545042" lon="8.167672">
        <ele>439.976578</ele>
        <time>2021-11-22T01:16:53.000Z</time>
      </trkpt>
      <trkpt lat="47.545100" lon="8.167448">
        <ele>438.956066</ele>
        <time>2021-11-22T01:16:54.436Z</time>
      </trkpt>
      <trkpt lat="47.545201" lon="8.167129">
        <ele>437.457303</ele>
        <time>2021-11-22T01:16:56.620Z</time>
      </trkpt>
      <trkpt lat="47.545260" lon="8.166987">
        <ele>436.748031</ele>
        <time>2021-11-22T01:16:57.609Z</time>
      </trkpt>
      <trkpt lat="47.545348" lon="8.166786">
        <ele>435.728960</ele>
        <time>2021-11-22T01:16:59.127Z</time>
      </trkpt>
      <trkpt lat="47.545453" lon="8.166595">
        <ele>434.681169</ele>
        <time>2021-11-22T01:17:00.603Z</time>
      </trkpt>
      <trkpt lat="47.545577" lon="8.166399">
        <ele>433.538517</ele>
        <time>2021-11-22T01:17:02.267Z</time>
      </trkpt>
      <trkpt lat="47.545768" lon="8.166102">
        <ele>431.793627</ele>
        <time>2021-11-22T01:17:04.754Z</time>
      </trkpt>
      <trkpt lat="47.546032" lon="8.165642">
        <ele>429.387079</ele>
        <time>2021-11-22T01:17:08.508Z</time>
      </trkpt>
      <trkpt lat="47.546204" lon="8.165321">
        <ele>428.100034</ele>
        <time>2021-11-22T01:17:11.162Z</time>
      </trkpt>
      <trkpt lat="47.546387" lon="8.165022">
        <ele>426.832561</ele>
        <time>2021-11-22T01:17:13.830Z</time>
      </trkpt>
      <trkpt lat="47.546441" lon="8.164907">
        <ele>426.392636</ele>
        <time>2021-11-22T01:17:14.716Z</time>
      </trkpt>
      <trkpt lat="47.546613" lon="8.164573">
        <ele>425.073379</ele>
        <time>2021-11-22T01:17:17.463Z</time>
      </trkpt>
      <trkpt lat="47.546850" lon="8.164022">
        <ele>423.021627</ele>
        <time>2021-11-22T01:17:21.675Z</time>
      </trkpt>
      <trkpt lat="47.546862" lon="8.163567">
        <ele>421.591707</ele>
        <time>2021-11-22T01:17:24.632Z</time>
      </trkpt>
      <trkpt lat="47.546835" lon="8.163363">
        <ele>421.052763</ele>
        <time>2021-11-22T01:17:25.960Z</time>
      </trkpt>
      <trkpt lat="47.546797" lon="8.163081">
        <ele>420.341396</ele>
        <time>2021-11-22T01:17:27.893Z</time>
      </trkpt>
      <trkpt lat="47.546790" lon="8.163024">
        <ele>420.198076</ele>
        <time>2021-11-22T01:17:28.265Z</time>
      </trkpt>
      <trkpt lat="47.546769" lon="8.162896">
        <ele>419.872215</ele>
        <time>2021-11-22T01:17:29.097Z</time>
      </trkpt>
      <trkpt lat="47.546748" lon="8.162622">
        <ele>419.190047</ele>
        <time>2021-11-22T01:17:30.952Z</time>
      </trkpt>
      <trkpt lat="47.546819" lon="8.162125">
        <ele>417.933350</ele>
        <time>2021-11-22T01:17:34.322Z</time>
      </trkpt>
      <trkpt lat="47.546981" lon="8.161773">
        <ele>416.879440</ele>
        <time>2021-11-22T01:17:37.143Z</time>
      </trkpt>
      <trkpt lat="47.547108" lon="8.161617">
        <ele>416.274824</ele>
        <time>2021-11-22T01:17:38.784Z</time>
      </trkpt>
      <trkpt lat="47.547207" lon="8.161521">
        <ele>415.841189</ele>
        <time>2021-11-22T01:17:39.915Z</time>
      </trkpt>
      <trkpt lat="47.547349" lon="8.161424">
        <ele>415.268117</ele>
        <time>2021-11-22T01:17:41.619Z</time>
      </trkpt>
      <trkpt lat="47.547470" lon="8.161331">
        <ele>414.837767</ele>
        <time>2021-11-22T01:17:42.978Z</time>
      </trkpt>
      <trkpt lat="47.547496" lon="8.161301">
        <ele>414.789695</ele>
        <time>2021-11-22T01:17:43.320Z</time>
      </trkpt>
      <trkpt lat="47.547517" lon="8.161278">
        <ele>414.751599</ele>
        <time>2021-11-22T01:17:43.580Z</time>
      </trkpt>
      <trkpt lat="47.547553" lon="8.161213">
        <ele>414.668812</ele>
        <time>2021-11-22T01:17:44.279Z</time>
      </trkpt>
      <trkpt lat="47.547597" lon="8.161255">
        <ele>414.592459</ele>
        <time>2021-11-22T01:17:44.860Z</time>
      </trkpt>
      <trkpt lat="47.547713" lon="8.161271">
        <ele>414.422515</ele>
        <time>2021-11-22T01:17:46.102Z</time>
      </trkpt>
      <trkpt lat="47.547763" lon="8.161258">
        <ele>414.348464</ele>
        <time>2021-11-22T01:17:46.623Z</time>
      </trkpt>
      <trkpt lat="47.547978" lon="8.161155">
        <ele>414.018847</ele>
        <time>2021-11-22T01:17:49.272Z</time>
      </trkpt>
      <trkpt lat="47.548340" lon="8.161015">
        <ele>413.473092</ele>
        <time>2021-11-22T01:17:53.772Z</time>
      </trkpt>
      <trkpt lat="47.548497" lon="8.160960">
        <ele>413.237756</ele>
        <time>2021-11-22T01:17:55.605Z</time>
      </trkpt>
      <trkpt lat="47.548672" lon="8.160912">
        <ele>412.978140</ele>
        <time>2021-11-22T01:17:57.775Z</time>
      </trkpt>
      <trkpt lat="47.549490" lon="8.160957">
        <ele>411.682761</ele>
        <time>2021-11-22T01:18:08.266Z</time>
      </trkpt>
      <trkpt lat="47.549617" lon="8.160942">
        <ele>411.457335</ele>
        <time>2021-11-22T01:18:10.258Z</time>
      </trkpt>
      <trkpt lat="47.549617" lon="8.160942">
        <ele>411.457335</ele>
        <time>2021-11-22T01:18:10.371Z</time>
      </trkpt>
      <trkpt lat="47.549732" lon="8.160920">
        <ele>411.252166</ele>
        <time>2021-11-22T01:18:11.698Z</time>
      </trkpt>
      <trkpt lat="47.549905" lon="8.160854">
        <ele>410.936075</ele>
        <time>2021-11-22T01:18:13.969Z</time>
      </trkpt>
      <trkpt lat="47.549984" lon="8.160805">
        <ele>410.784539</ele>
        <time>2021-11-22T01:18:15.711Z</time>
      </trkpt>
      <trkpt lat="47.550099" lon="8.160724">
        <ele>410.559235</ele>
        <time>2021-11-22T01:18:17.035Z</time>
      </trkpt>
      <trkpt lat="47.550666" lon="8.160174">
        <ele>409.360099</ele>
        <time>2021-11-22T01:18:24.220Z</time>
      </trkpt>
      <trkpt lat="47.551164" lon="8.159529">
        <ele>407.281931</ele>
        <time>2021-11-22T01:18:30.749Z</time>
      </trkpt>
      <trkpt lat="47.551332" lon="8.159279">
        <ele>406.429719</ele>
        <time>2021-11-22T01:18:33.026Z</time>
      </trkpt>
      <trkpt lat="47.551447" lon="8.159096">
        <ele>405.825704</ele>
        <time>2021-11-22T01:18:34.716Z</time>
      </trkpt>
      <trkpt lat="47.551526" lon="8.158964">
        <ele>405.399531</ele>
        <time>2021-11-22T01:18:35.899Z</time>
      </trkpt>
      <trkpt lat="47.551653" lon="8.158711">
        <ele>404.637870</ele>
        <time>2021-11-22T01:18:38.028Z</time>
      </trkpt>
      <trkpt lat="47.551779" lon="8.158427">
        <ele>403.816880</ele>
        <time>2021-11-22T01:18:40.274Z</time>
      </trkpt>
      <trkpt lat="47.552174" lon="8.157599">
        <ele>401.816599</ele>
        <time>2021-11-22T01:18:47.111Z</time>
      </trkpt>
      <trkpt lat="47.552319" lon="8.157405">
        <ele>401.364171</ele>
        <time>2021-11-22T01:18:49.122Z</time>
      </trkpt>
      <trkpt lat="47.552683" lon="8.157162">
        <ele>400.439619</ele>
        <time>2021-11-22T01:18:53.446Z</time>
      </trkpt>
      <trkpt lat="47.552741" lon="8.157139">
        <ele>400.300577</ele>
        <time>2021-11-22T01:18:54.079Z</time>
      </trkpt>
      <trkpt lat="47.552966" lon="8.157085">
        <ele>399.772737</ele>
        <time>2021-11-22T01:18:56.646Z</time>
      </trkpt>
      <trkpt lat="47.553415" lon="8.156908">
        <ele>398.696784</ele>
        <time>2021-11-22T01:19:02.014Z</time>
      </trkpt>
      <trkpt lat="47.554024" lon="8.156353">
        <ele>397.111377</ele>
        <time>2021-11-22T01:19:10.226Z</time>
      </trkpt>
      <trkpt lat="47.555146" lon="8.156028">
        <ele>394.593743</ele>
        <time>2021-11-22T01:19:22.365Z</time>
      </trkpt>
      <trkpt lat="47.555483" lon="8.155879">
        <ele>393.290338</ele>
        <time>2021-11-22T01:19:25.998Z</time>
      </trkpt>
      <trkpt lat="47.555852" lon="8.155715">
        <ele>391.795608</ele>
        <time>2021-11-22T01:19:29.774Z</time>
      </trkpt>
      <trkpt lat="47.556361" lon="8.155432">
        <ele>389.686249</ele>
        <time>2021-11-22T01:19:35.090Z</time>
      </trkpt>
      <trkpt lat="47.556702" lon="8.155008">
        <ele>387.959076</ele>
        <time>2021-11-22T01:19:39.283Z</time>
      </trkpt>
      <trkpt lat="47.556982" lon="8.154756">
        <ele>386.767561</ele>
        <time>2021-11-22T01:19:42.455Z</time>
      </trkpt>
      <trkpt lat="47.557020" lon="8.154736">
        <ele>386.625798</ele>
        <time>2021-11-22T01:19:42.804Z</time>
      </trkpt>
      <trkpt lat="47.557234" lon="8.154662">
        <ele>385.853285</ele>
        <time>2021-11-22T01:19:45.018Z</time>
      </trkpt>
      <trkpt lat="47.557607" lon="8.154562">
        <ele>384.520745</ele>
        <time>2021-11-22T01:19:48.786Z</time>
      </trkpt>
      <trkpt lat="47.557909" lon="8.154469">
        <ele>383.436405</ele>
        <time>2021-11-22T01:19:51.903Z</time>
      </trkpt>
      <trkpt lat="47.557974" lon="8.154446">
        <ele>383.201478</ele>
        <time>2021-11-22T01:19:52.597Z</time>
      </trkpt>
      <trkpt lat="47.558498" lon="8.154242">
        <ele>381.296884</ele>
        <time>2021-11-22T01:19:58.117Z</time>
      </trkpt>
      <trkpt lat="47.558848" lon="8.154194">
        <ele>380.547643</ele>
        <time>2021-11-22T01:20:01.877Z</time>
      </trkpt>
      <trkpt lat="47.558924" lon="8.154185">
        <ele>380.392925</ele>
        <time>2021-11-22T01:20:02.658Z</time>
      </trkpt>
      <trkpt lat="47.558979" lon="8.154180">
        <ele>380.281105</ele>
        <time>2021-11-22T01:20:03.215Z</time>
      </trkpt>
      <trkpt lat="47.559032" lon="8.154178">
        <ele>380.173518</ele>
        <time>2021-11-22T01:20:03.774Z</time>
      </trkpt>
      <trkpt lat="47.559156" lon="8.154177">
        <ele>379.921883</ele>
        <time>2021-11-22T01:20:05.190Z</time>
      </trkpt>
      <trkpt lat="47.559284" lon="8.154179">
        <ele>379.662121</ele>
        <time>2021-11-22T01:20:06.516Z</time>
      </trkpt>
      <trkpt lat="47.559455" lon="8.154165">
        <ele>379.314584</ele>
        <time>2021-11-22T01:20:08.437Z</time>
      </trkpt>
      <trkpt lat="47.559591" lon="8.154124">
        <ele>379.032948</ele>
        <time>2021-11-22T01:20:10.040Z</time>
      </trkpt>
      <trkpt lat="47.559651" lon="8.154104">
        <ele>378.908149</ele>
        <time>2021-11-22T01:20:10.676Z</time>
      </trkpt>
      <trkpt lat="47.559698" lon="8.154088">
        <ele>378.810288</ele>
        <time>2021-11-22T01:20:11.212Z</time>
      </trkpt>
      <trkpt lat="47.559841" lon="8.154003">
        <ele>378.497626</ele>
        <time>2021-11-22T01:20:13.257Z</time>
      </trkpt>
      <trkpt lat="47.559905" lon="8.153956">
        <ele>378.352679</ele>
        <time>2021-11-22T01:20:14.127Z</time>
      </trkpt>
      <trkpt lat="47.559938" lon="8.153925">
        <ele>378.273391</ele>
        <time>2021-11-22T01:20:14.542Z</time>
      </trkpt>
      <trkpt lat="47.559990" lon="8.153866">
        <ele>378.140489</ele>
        <time>2021-11-22T01:20:15.227Z</time>
      </trkpt>
      <trkpt lat="47.560053" lon="8.153772">
        <ele>377.959067</ele>
        <time>2021-11-22T01:20:16.309Z</time>
      </trkpt>
      <trkpt lat="47.560153" lon="8.153582">
        <ele>377.629103</ele>
        <time>2021-11-22T01:20:18.332Z</time>
      </trkpt>
      <trkpt lat="47.560212" lon="8.153476">
        <ele>377.454592</ele>
        <time>2021-11-22T01:20:19.299Z</time>
      </trkpt>
      <trkpt lat="47.560330" lon="8.153256">
        <ele>377.113195</ele>
        <time>2021-11-22T01:20:25.521Z</time>
      </trkpt>
      <trkpt lat="47.560379" lon="8.153152">
        <ele>376.959107</ele>
        <time>2021-11-22T01:20:28.299Z</time>
      </trkpt>
      <trkpt lat="47.560422" lon="8.153030">
        <ele>376.791902</ele>
        <time>2021-11-22T01:20:31.090Z</time>
      </trkpt>
      <trkpt lat="47.560456" lon="8.152909">
        <ele>376.632675</ele>
        <time>2021-11-22T01:20:33.882Z</time>
      </trkpt>
      <trkpt lat="47.560547" lon="8.152508">
        <ele>376.118729</ele>
        <time>2021-11-22T01:20:42.827Z</time>
      </trkpt>
      <trkpt lat="47.560622" lon="8.152294">
        <ele>375.825790</ele>
        <time>2021-11-22T01:20:48.086Z</time>
      </trkpt>
      <trkpt lat="47.560668" lon="8.152171">
        <ele>375.654956</ele>
        <time>2021-11-22T01:20:51.123Z</time>
      </trkpt>
      <trkpt lat="47.560710" lon="8.152072">
        <ele>375.512898</ele>
        <time>2021-11-22T01:20:53.446Z</time>
      </trkpt>
      <trkpt lat="47.560747" lon="8.151985">
        <ele>375.387972</ele>
        <time>2021-11-22T01:20:55.569Z</time>
      </trkpt>
      <trkpt lat="47.560859" lon="8.151728">
        <ele>375.016322</ele>
        <time>2021-11-22T01:21:02.391Z</time>
      </trkpt>
      <trkpt lat="47.560916" lon="8.151600">
        <ele>374.830021</ele>
        <time>2021-11-22T01:21:05.490Z</time>
      </trkpt>
      <trkpt lat="47.561003" lon="8.151403">
        <ele>374.544012</ele>
        <time>2021-11-22T01:21:10.757Z</time>
      </trkpt>
      <trkpt lat="47.561109" lon="8.151163">
        <ele>374.233721</ele>
        <time>2021-11-22T01:21:16.932Z</time>
      </trkpt>
      <trkpt lat="47.561257" lon="8.150909">
        <ele>373.947242</ele>
        <time>2021-11-22T01:21:24.485Z</time>
      </trkpt>
      <trkpt lat="47.561352" lon="8.150768">
        <ele>373.777149</ele>
        <time>2021-11-22T01:21:28.746Z</time>
      </trkpt>
      <trkpt lat="47.561471" lon="8.150574">
        <ele>373.553342</ele>
        <time>2021-11-22T01:21:34.465Z</time>
      </trkpt>
      <trkpt lat="47.561512" lon="8.150470">
        <ele>373.450520</ele>
        <time>2021-11-22T01:21:37.174Z</time>
      </trkpt>
      <trkpt lat="47.561555" lon="8.150316">
        <ele>373.308247</ele>
        <time>2021-11-22T01:21:40.678Z</time>
      </trkpt>
      <trkpt lat="47.561767" lon="8.149503">
        <ele>372.564207</ele>
        <time>2021-11-22T01:22:00.189Z</time>
      </trkpt>
      <trkpt lat="47.561915" lon="8.148980">
        <ele>372.080076</ele>
        <time>2021-11-22T01:22:13.309Z</time>
      </trkpt>
      <trkpt lat="47.561943" lon="8.148889">
        <ele>372.020764</ele>
        <time>2021-11-22T01:22:15.535Z</time>
      </trkpt>
      <trkpt lat="47.561980" lon="8.148763">
        <ele>371.960262</ele>
        <time>2021-11-22T01:22:18.807Z</time>
      </trkpt>
      <trkpt lat="47.561998" lon="8.148673">
        <ele>371.918931</ele>
        <time>2021-11-22T01:22:21.095Z</time>
      </trkpt>
      <trkpt lat="47.562009" lon="8.148597">
        <ele>371.884708</ele>
        <time>2021-11-22T01:22:21.908Z</time>
      </trkpt>
      <trkpt lat="47.562009" lon="8.148365">
        <ele>371.782560</ele>
        <time>2021-11-22T01:22:23.881Z</time>
      </trkpt>
      <trkpt lat="47.561978" lon="8.148254">
        <ele>371.729667</ele>
        <time>2021-11-22T01:22:24.959Z</time>
      </trkpt>
      <trkpt lat="47.561913" lon="8.148081">
        <ele>371.642484</ele>
        <time>2021-11-22T01:22:26.894Z</time>
      </trkpt>
      <trkpt lat="47.561833" lon="8.147845">
        <ele>371.526200</ele>
        <time>2021-11-22T01:22:29.300Z</time>
      </trkpt>
      <trkpt lat="47.561822" lon="8.147813">
        <ele>371.510388</ele>
        <time>2021-11-22T01:22:29.704Z</time>
      </trkpt>
      <trkpt lat="47.561781" lon="8.147568">
        <ele>371.399248</ele>
        <time>2021-11-22T01:22:32.131Z</time>
      </trkpt>
      <trkpt lat="47.561778" lon="8.147534">
        <ele>371.384151</ele>
        <time>2021-11-22T01:22:32.429Z</time>
      </trkpt>
      <trkpt lat="47.561759" lon="8.147209">
        <ele>371.240518</ele>
        <time>2021-11-22T01:22:35.287Z</time>
      </trkpt>
      <trkpt lat="47.561783" lon="8.146574">
        <ele>370.960492</ele>
        <time>2021-11-22T01:22:40.768Z</time>
      </trkpt>
      <trkpt lat="47.561789" lon="8.146405">
        <ele>370.885979</ele>
        <time>2021-11-22T01:22:42.144Z</time>
      </trkpt>
      <trkpt lat="47.561811" lon="8.145912">
        <ele>370.330893</ele>
        <time>2021-11-22T01:22:46.239Z</time>
      </trkpt>
      <trkpt lat="47.561827" lon="8.145709">
        <ele>370.093808</ele>
        <time>2021-11-22T01:22:47.905Z</time>
      </trkpt>
      <trkpt lat="47.561842" lon="8.145448">
        <ele>369.789945</ele>
        <time>2021-11-22T01:22:49.932Z</time>
      </trkpt>
      <trkpt lat="47.561847" lon="8.145230">
        <ele>369.536914</ele>
        <time>2021-11-22T01:22:51.552Z</time>
      </trkpt>
      <trkpt lat="47.561843" lon="8.145077">
        <ele>369.359298</ele>
        <time>2021-11-22T01:22:52.694Z</time>
      </trkpt>
      <trkpt lat="47.561830" lon="8.144934">
        <ele>369.191916</ele>
        <time>2021-11-22T01:22:53.751Z</time>
      </trkpt>
      <trkpt lat="47.561764" lon="8.144413">
        <ele>368.576985</ele>
        <time>2021-11-22T01:22:57.613Z</time>
      </trkpt>
      <trkpt lat="47.561737" lon="8.144240">
        <ele>368.371003</ele>
        <time>2021-11-22T01:22:58.874Z</time>
      </trkpt>
      <trkpt lat="47.561693" lon="8.143892">
        <ele>367.960289</ele>
        <time>2021-11-22T01:23:01.501Z</time>
      </trkpt>
      <trkpt lat="47.561629" lon="8.143405">
        <ele>367.504260</ele>
        <time>2021-11-22T01:23:05.179Z</time>
      </trkpt>
      <trkpt lat="47.561569" lon="8.142863">
        <ele>367.058362</ele>
        <time>2021-11-22T01:23:09.250Z</time>
      </trkpt>
      <trkpt lat="47.561548" lon="8.142491">
        <ele>366.755303</ele>
        <time>2021-11-22T01:23:12.130Z</time>
      </trkpt>
      <trkpt lat="47.561542" lon="8.142165">
        <ele>366.490545</ele>
        <time>2021-11-22T01:23:14.625Z</time>
      </trkpt>
      <trkpt lat="47.561548" lon="8.141908">
        <ele>366.281778</ele>
        <time>2021-11-22T01:23:16.869Z</time>
      </trkpt>
      <trkpt lat="47.561563" lon="8.141574">
        <ele>366.010024</ele>
        <time>2021-11-22T01:23:19.669Z</time>
      </trkpt>
      <trkpt lat="47.561574" lon="8.141379">
        <ele>365.851163</ele>
        <time>2021-11-22T01:23:21.530Z</time>
      </trkpt>
      <trkpt lat="47.561660" lon="8.140164">
        <ele>366.282746</ele>
        <time>2021-11-22T01:23:34.003Z</time>
      </trkpt>
      <trkpt lat="47.561507" lon="8.138771">
        <ele>367.283875</ele>
        <time>2021-11-22T01:23:55.147Z</time>
      </trkpt>
      <trkpt lat="47.561504" lon="8.138613">
        <ele>367.395997</ele>
        <time>2021-11-22T01:23:57.333Z</time>
      </trkpt>
      <trkpt lat="47.561520" lon="8.138020">
        <ele>367.406544</ele>
        <time>2021-11-22T01:24:06.042Z</time>
      </trkpt>
      <trkpt lat="47.561531" lon="8.137825">
        <ele>367.359916</ele>
        <time>2021-11-22T01:24:08.876Z</time>
      </trkpt>
      <trkpt lat="47.561548" lon="8.137622">
        <ele>367.311173</ele>
        <time>2021-11-22T01:24:10.997Z</time>
      </trkpt>
      <trkpt lat="47.561574" lon="8.137322">
        <ele>367.239100</ele>
        <time>2021-11-22T01:24:14.113Z</time>
      </trkpt>
      <trkpt lat="47.561604" lon="8.136996">
        <ele>367.160700</ele>
        <time>2021-11-22T01:24:17.370Z</time>
      </trkpt>
      <trkpt lat="47.561651" lon="8.136422">
        <ele>367.022920</ele>
        <time>2021-11-22T01:24:22.752Z</time>
      </trkpt>
      <trkpt lat="47.561673" lon="8.136111">
        <ele>366.948407</ele>
        <time>2021-11-22T01:24:25.578Z</time>
      </trkpt>
      <trkpt lat="47.561695" lon="8.135815">
        <ele>366.877448</ele>
        <time>2021-11-22T01:24:27.683Z</time>
      </trkpt>
      <trkpt lat="47.561699" lon="8.135702">
        <ele>366.538749</ele>
        <time>2021-11-22T01:24:28.485Z</time>
      </trkpt>
      <trkpt lat="47.561711" lon="8.135438">
        <ele>365.660913</ele>
        <time>2021-11-22T01:24:30.202Z</time>
      </trkpt>
      <trkpt lat="47.561720" lon="8.135210">
        <ele>364.903204</ele>
        <time>2021-11-22T01:24:31.680Z</time>
      </trkpt>
      <trkpt lat="47.561725" lon="8.133913">
        <ele>360.600186</ele>
        <time>2021-11-22T01:24:39.749Z</time>
      </trkpt>
      <trkpt lat="47.561698" lon="8.133720">
        <ele>359.946271</ele>
        <time>2021-11-22T01:24:41.009Z</time>
      </trkpt>
      <trkpt lat="47.561664" lon="8.133579">
        <ele>359.449517</ele>
        <time>2021-11-22T01:24:41.949Z</time>
      </trkpt>
      <trkpt lat="47.561623" lon="8.133432">
        <ele>358.921811</ele>
        <time>2021-11-22T01:24:42.885Z</time>
      </trkpt>
      <trkpt lat="47.561195" lon="8.132668">
        <ele>356.034028</ele>
        <time>2021-11-22T01:24:49.268Z</time>
      </trkpt>
      <trkpt lat="47.561161" lon="8.132610">
        <ele>355.822238</ele>
        <time>2021-11-22T01:24:49.703Z</time>
      </trkpt>
      <trkpt lat="47.561056" lon="8.132422">
        <ele>355.149503</ele>
        <time>2021-11-22T01:24:51.390Z</time>
      </trkpt>
      <trkpt lat="47.561185" lon="8.132211">
        <ele>354.364626</ele>
        <time>2021-11-22T01:24:53.133Z</time>
      </trkpt>
      <trkpt lat="47.561796" lon="8.130897">
        <ele>350.391650</ele>
        <time>2021-11-22T01:25:04.122Z</time>
      </trkpt>
      <trkpt lat="47.562119" lon="8.130197">
        <ele>349.440353</ele>
        <time>2021-11-22T01:25:10.802Z</time>
      </trkpt>
      <trkpt lat="47.562169" lon="8.130101">
        <ele>349.304313</ele>
        <time>2021-11-22T01:25:11.804Z</time>
      </trkpt>
      <trkpt lat="47.562200" lon="8.130042">
        <ele>349.220429</ele>
        <time>2021-11-22T01:25:12.432Z</time>
      </trkpt>
      <trkpt lat="47.562419" lon="8.129559">
        <ele>348.567647</ele>
        <time>2021-11-22T01:25:17.043Z</time>
      </trkpt>
      <trkpt lat="47.562839" lon="8.128684">
        <ele>347.411045</ele>
        <time>2021-11-22T01:25:25.325Z</time>
      </trkpt>
      <trkpt lat="47.562984" lon="8.128403">
        <ele>347.071771</ele>
        <time>2021-11-22T01:25:28.127Z</time>
      </trkpt>
      <trkpt lat="47.563096" lon="8.128178">
        <ele>346.803613</ele>
        <time>2021-11-22T01:25:30.580Z</time>
      </trkpt>
      <trkpt lat="47.563232" lon="8.127932">
        <ele>346.498603</ele>
        <time>2021-11-22T01:25:33.043Z</time>
      </trkpt>
      <trkpt lat="47.563398" lon="8.127697">
        <ele>346.172311</ele>
        <time>2021-11-22T01:25:35.656Z</time>
      </trkpt>
      <trkpt lat="47.563589" lon="8.127466">
        <ele>345.821908</ele>
        <time>2021-11-22T01:25:39.634Z</time>
      </trkpt>
      <trkpt lat="47.563627" lon="8.127420">
        <ele>345.752169</ele>
        <time>2021-11-22T01:25:40.072Z</time>
      </trkpt>
      <trkpt lat="47.563751" lon="8.127247">
        <ele>345.510111</ele>
        <time>2021-11-22T01:25:41.894Z</time>
      </trkpt>
      <trkpt lat="47.563829" lon="8.127101">
        <ele>345.331512</ele>
        <time>2021-11-22T01:25:44.536Z</time>
      </trkpt>
      <trkpt lat="47.563898" lon="8.126936">
        <ele>345.145339</ele>
        <time>2021-11-22T01:25:48.179Z</time>
      </trkpt>
      <trkpt lat="47.563932" lon="8.126822">
        <ele>344.960573</ele>
        <time>2021-11-22T01:25:50.737Z</time>
      </trkpt>
      <trkpt lat="47.563935" lon="8.126813">
        <ele>344.945315</ele>
        <time>2021-11-22T01:25:50.924Z</time>
      </trkpt>
      <trkpt lat="47.563988" lon="8.126616">
        <ele>344.622954</ele>
        <time>2021-11-22T01:25:57.138Z</time>
      </trkpt>
      <trkpt lat="47.564016" lon="8.126515">
        <ele>344.456984</ele>
        <time>2021-11-22T01:25:59.044Z</time>
      </trkpt>
      <trkpt lat="47.564050" lon="8.126343">
        <ele>344.184559</ele>
        <time>2021-11-22T01:26:02.798Z</time>
      </trkpt>
      <trkpt lat="47.564078" lon="8.126253">
        <ele>344.033920</ele>
        <time>2021-11-22T01:26:05.287Z</time>
      </trkpt>
      <trkpt lat="47.564142" lon="8.126069">
        <ele>343.719273</ele>
        <time>2021-11-22T01:26:09.801Z</time>
      </trkpt>
      <trkpt lat="47.564204" lon="8.125933">
        <ele>343.469798</ele>
        <time>2021-11-22T01:26:10.905Z</time>
      </trkpt>
      <trkpt lat="47.564281" lon="8.125780">
        <ele>343.179681</ele>
        <time>2021-11-22T01:26:12.487Z</time>
      </trkpt>
      <trkpt lat="47.564404" lon="8.125557">
        <ele>342.741893</ele>
        <time>2021-11-22T01:26:14.534Z</time>
      </trkpt>
      <trkpt lat="47.564445" lon="8.125480">
        <ele>342.592803</ele>
        <time>2021-11-22T01:26:15.177Z</time>
      </trkpt>
      <trkpt lat="47.564862" lon="8.124663">
        <ele>341.036495</ele>
        <time>2021-11-22T01:26:22.544Z</time>
      </trkpt>
      <trkpt lat="47.565033" lon="8.124341">
        <ele>340.423121</ele>
        <time>2021-11-22T01:26:25.482Z</time>
      </trkpt>
      <trkpt lat="47.565098" lon="8.124202">
        <ele>340.169972</ele>
        <time>2021-11-22T01:26:26.603Z</time>
      </trkpt>
      <trkpt lat="47.565268" lon="8.123888">
        <ele>339.567356</ele>
        <time>2021-11-22T01:26:29.382Z</time>
      </trkpt>
      <trkpt lat="47.565326" lon="8.123776">
        <ele>339.356022</ele>
        <time>2021-11-22T01:26:30.301Z</time>
      </trkpt>
      <trkpt lat="47.565434" lon="8.123568">
        <ele>338.963159</ele>
        <time>2021-11-22T01:26:32.204Z</time>
      </trkpt>
      <trkpt lat="47.565629" lon="8.123189">
        <ele>338.249731</ele>
        <time>2021-11-22T01:26:35.708Z</time>
      </trkpt>
      <trkpt lat="47.565954" lon="8.122541">
        <ele>337.072219</ele>
        <time>2021-11-22T01:26:42.048Z</time>
      </trkpt>
      <trkpt lat="47.566102" lon="8.122133">
        <ele>336.774838</ele>
        <time>2021-11-22T01:26:45.916Z</time>
      </trkpt>
      <trkpt lat="47.566119" lon="8.122027">
        <ele>336.704892</ele>
        <time>2021-11-22T01:26:46.761Z</time>
      </trkpt>
      <trkpt lat="47.566151" lon="8.121930">
        <ele>336.635575</ele>
        <time>2021-11-22T01:26:47.855Z</time>
      </trkpt>
      <trkpt lat="47.566318" lon="8.120964">
        <ele>335.995390</ele>
        <time>2021-11-22T01:26:56.059Z</time>
      </trkpt>
      <trkpt lat="47.566366" lon="8.120637">
        <ele>335.780553</ele>
        <time>2021-11-22T01:26:58.882Z</time>
      </trkpt>
      <trkpt lat="47.566398" lon="8.120421">
        <ele>335.638582</ele>
        <time>2021-11-22T01:27:00.992Z</time>
      </trkpt>
      <trkpt lat="47.566431" lon="8.120180">
        <ele>335.480712</ele>
        <time>2021-11-22T01:27:02.991Z</time>
      </trkpt>
      <trkpt lat="47.566474" lon="8.119870">
        <ele>335.239123</ele>
        <time>2021-11-22T01:27:05.852Z</time>
      </trkpt>
      <trkpt lat="47.566566" lon="8.119245">
        <ele>334.680581</ele>
        <time>2021-11-22T01:27:11.174Z</time>
      </trkpt>
      <trkpt lat="47.566580" lon="8.119152">
        <ele>334.597384</ele>
        <time>2021-11-22T01:27:11.845Z</time>
      </trkpt>
      <trkpt lat="47.566644" lon="8.118715">
        <ele>334.206942</ele>
        <time>2021-11-22T01:27:15.457Z</time>
      </trkpt>
      <trkpt lat="47.566733" lon="8.118099">
        <ele>333.656903</ele>
        <time>2021-11-22T01:27:20.121Z</time>
      </trkpt>
      <trkpt lat="47.566811" lon="8.117556">
        <ele>333.172171</ele>
        <time>2021-11-22T01:27:24.293Z</time>
      </trkpt>
      <trkpt lat="47.566944" lon="8.116530">
        <ele>332.650643</ele>
        <time>2021-11-22T01:27:33.336Z</time>
      </trkpt>
      <trkpt lat="47.566983" lon="8.116203">
        <ele>332.502874</ele>
        <time>2021-11-22T01:27:36.278Z</time>
      </trkpt>
      <trkpt lat="47.567009" lon="8.116010">
        <ele>332.415294</ele>
        <time>2021-11-22T01:27:38.953Z</time>
      </trkpt>
      <trkpt lat="47.567157" lon="8.115310">
        <ele>332.088864</ele>
        <time>2021-11-22T01:27:45.212Z</time>
      </trkpt>
      <trkpt lat="47.567411" lon="8.114753">
        <ele>331.727063</ele>
        <time>2021-11-22T01:27:50.874Z</time>
      </trkpt>
      <trkpt lat="47.567654" lon="8.114290">
        <ele>331.263618</ele>
        <time>2021-11-22T01:27:56.193Z</time>
      </trkpt>
      <trkpt lat="47.567881" lon="8.113862">
        <ele>330.833499</ele>
        <time>2021-11-22T01:28:01.193Z</time>
      </trkpt>
      <trkpt lat="47.568167" lon="8.113323">
        <ele>330.291740</ele>
        <time>2021-11-22T01:28:07.142Z</time>
      </trkpt>
      <trkpt lat="47.568835" lon="8.112063">
        <ele>327.685789</ele>
        <time>2021-11-22T01:28:18.478Z</time>
      </trkpt>
      <trkpt lat="47.569083" lon="8.111567">
        <ele>326.313224</ele>
        <time>2021-11-22T01:28:22.666Z</time>
      </trkpt>
      <trkpt lat="47.569107" lon="8.111522">
        <ele>326.185692</ele>
        <time>2021-11-22T01:28:22.993Z</time>
      </trkpt>
      <trkpt lat="47.569423" lon="8.110628">
        <ele>323.941818</ele>
        <time>2021-11-22T01:28:29.809Z</time>
      </trkpt>
      <trkpt lat="47.569495" lon="8.110499">
        <ele>323.731270</ele>
        <time>2021-11-22T01:28:30.806Z</time>
      </trkpt>
      <trkpt lat="47.569574" lon="8.110385">
        <ele>323.587328</ele>
        <time>2021-11-22T01:28:31.870Z</time>
      </trkpt>
      <trkpt lat="47.569664" lon="8.110262">
        <ele>323.427508</ele>
        <time>2021-11-22T01:28:34.219Z</time>
      </trkpt>
      <trkpt lat="47.569787" lon="8.110094">
        <ele>323.209148</ele>
        <time>2021-11-22T01:28:35.775Z</time>
      </trkpt>
      <trkpt lat="47.569974" lon="8.109825">
        <ele>322.868947</ele>
        <time>2021-11-22T01:28:38.666Z</time>
      </trkpt>
      <trkpt lat="47.570263" lon="8.109376">
        <ele>322.322367</ele>
        <time>2021-11-22T01:28:43.247Z</time>
      </trkpt>
      <trkpt lat="47.570283" lon="8.109343">
        <ele>322.283296</ele>
        <time>2021-11-22T01:28:43.547Z</time>
      </trkpt>
      <trkpt lat="47.570582" lon="8.108889">
        <ele>321.724483</ele>
        <time>2021-11-22T01:28:49.131Z</time>
      </trkpt>
      <trkpt lat="47.570830" lon="8.108502">
        <ele>321.911878</ele>
        <time>2021-11-22T01:28:59.457Z</time>
      </trkpt>
      <trkpt lat="47.571253" lon="8.107823">
        <ele>323.376739</ele>
        <time>2021-11-22T01:29:18.818Z</time>
      </trkpt>
      <trkpt lat="47.571440" lon="8.107260">
        <ele>324.371379</ele>
        <time>2021-11-22T01:29:31.657Z</time>
      </trkpt>
      <trkpt lat="47.571458" lon="8.107087">
        <ele>324.648826</ele>
        <time>2021-11-22T01:29:35.781Z</time>
      </trkpt>
      <trkpt lat="47.571460" lon="8.106995">
        <ele>324.794723</ele>
        <time>2021-11-22T01:29:37.413Z</time>
      </trkpt>
      <trkpt lat="47.571461" lon="8.106820">
        <ele>325.072109</ele>
        <time>2021-11-22T01:29:38.999Z</time>
      </trkpt>
      <trkpt lat="47.571440" lon="8.106588">
        <ele>325.443125</ele>
        <time>2021-11-22T01:29:41.827Z</time>
      </trkpt>
      <trkpt lat="47.571298" lon="8.105561">
        <ele>324.970905</ele>
        <time>2021-11-22T01:29:50.140Z</time>
      </trkpt>
      <trkpt lat="47.571251" lon="8.105188">
        <ele>324.649031</ele>
        <time>2021-11-22T01:29:53.046Z</time>
      </trkpt>
      <trkpt lat="47.571234" lon="8.105037">
        <ele>324.519171</ele>
        <time>2021-11-22T01:29:54.684Z</time>
      </trkpt>
      <trkpt lat="47.571214" lon="8.104836">
        <ele>324.346825</ele>
        <time>2021-11-22T01:29:56.330Z</time>
      </trkpt>
      <trkpt lat="47.571252" lon="8.104668">
        <ele>324.196521</ele>
        <time>2021-11-22T01:29:57.833Z</time>
      </trkpt>
      <trkpt lat="47.571285" lon="8.104547">
        <ele>324.085812</ele>
        <time>2021-11-22T01:29:58.755Z</time>
      </trkpt>
      <trkpt lat="47.571319" lon="8.104520">
        <ele>324.037314</ele>
        <time>2021-11-22T01:29:59.172Z</time>
      </trkpt>
      <trkpt lat="47.571345" lon="8.104476">
        <ele>323.987699</ele>
        <time>2021-11-22T01:29:59.560Z</time>
      </trkpt>
      <trkpt lat="47.571359" lon="8.104422">
        <ele>323.938627</ele>
        <time>2021-11-22T01:29:59.933Z</time>
      </trkpt>
      <trkpt lat="47.571359" lon="8.104365">
        <ele>323.890276</ele>
        <time>2021-11-22T01:30:00.369Z</time>
      </trkpt>
      <trkpt lat="47.571346" lon="8.104311">
        <ele>323.841641</ele>
        <time>2021-11-22T01:30:00.753Z</time>
      </trkpt>
      <trkpt lat="47.571354" lon="8.104222">
        <ele>323.765478</ele>
        <time>2021-11-22T01:30:01.783Z</time>
      </trkpt>
      <trkpt lat="47.571310" lon="8.104135">
        <ele>323.673246</ele>
        <time>2021-11-22T01:30:02.524Z</time>
      </trkpt>
      <trkpt lat="47.571041" lon="8.104109">
        <ele>323.500814</ele>
        <time>2021-11-22T01:30:05.397Z</time>
      </trkpt>
      <trkpt lat="47.570788" lon="8.103933">
        <ele>323.640907</ele>
        <time>2021-11-22T01:30:08.374Z</time>
      </trkpt>
      <trkpt lat="47.570667" lon="8.103884">
        <ele>323.703784</ele>
        <time>2021-11-22T01:30:10.077Z</time>
      </trkpt>
      <trkpt lat="47.570391" lon="8.103841">
        <ele>323.842895</ele>
        <time>2021-11-22T01:30:18.930Z</time>
      </trkpt>
      <trkpt lat="47.570159" lon="8.103813">
        <ele>323.959574</ele>
        <time>2021-11-22T01:30:23.019Z</time>
      </trkpt>
      <trkpt lat="47.569557" lon="8.103677">
        <ele>324.264821</ele>
        <time>2021-11-22T01:30:39.358Z</time>
      </trkpt>
      <trkpt lat="47.567683" lon="8.103272">
        <ele>328.987479</ele>
        <time>2021-11-22T01:31:27.624Z</time>
      </trkpt>
      <trkpt lat="47.566684" lon="8.102974">
        <ele>331.580993</ele>
        <time>2021-11-22T01:31:53.772Z</time>
      </trkpt>
      <trkpt lat="47.565727" lon="8.102512">
        <ele>334.029841</ele>
        <time>2021-11-22T01:32:19.044Z</time>
      </trkpt>
      <trkpt lat="47.564165" lon="8.101615">
        <ele>337.130070</ele>
        <time>2021-11-22T01:32:54.235Z</time>
      </trkpt>
      <trkpt lat="47.563202" lon="8.101042">
        <ele>340.099753</ele>
        <time>2021-11-22T01:33:20.048Z</time>
      </trkpt>
      <trkpt lat="47.563031" lon="8.100935">
        <ele>340.630943</ele>
        <time>2021-11-22T01:33:26.931Z</time>
      </trkpt>
      <trkpt lat="47.562207" lon="8.100413">
        <ele>343.033331</ele>
        <time>2021-11-22T01:33:57.372Z</time>
      </trkpt>
      <trkpt lat="47.561466" lon="8.099697">
        <ele>345.142572</ele>
        <time>2021-11-22T01:34:28.272Z</time>
      </trkpt>
      <trkpt lat="47.560787" lon="8.098864">
        <ele>345.622229</ele>
        <time>2021-11-22T01:34:47.941Z</time>
      </trkpt>
      <trkpt lat="47.560171" lon="8.097877">
        <ele>342.992227</ele>
        <time>2021-11-22T01:35:01.522Z</time>
      </trkpt>
      <trkpt lat="47.559606" lon="8.096837">
        <ele>339.576761</ele>
        <time>2021-11-22T01:35:13.533Z</time>
      </trkpt>
      <trkpt lat="47.558983" lon="8.095482">
        <ele>333.560843</ele>
        <time>2021-11-22T01:35:28.062Z</time>
      </trkpt>
      <trkpt lat="47.558857" lon="8.095293">
        <ele>332.586047</ele>
        <time>2021-11-22T01:35:30.554Z</time>
      </trkpt>
      <trkpt lat="47.558776" lon="8.095210">
        <ele>332.050601</ele>
        <time>2021-11-22T01:35:31.803Z</time>
      </trkpt>
      <trkpt lat="47.558531" lon="8.094661">
        <ele>330.194578</ele>
        <time>2021-11-22T01:35:36.084Z</time>
      </trkpt>
      <trkpt lat="47.557677" lon="8.092776">
        <ele>324.272409</ele>
        <time>2021-11-22T01:35:51.509Z</time>
      </trkpt>
      <trkpt lat="47.556850" lon="8.091457">
        <ele>318.646623</ele>
        <time>2021-11-22T01:36:03.133Z</time>
      </trkpt>
      <trkpt lat="47.556692" lon="8.091113">
        <ele>317.346378</ele>
        <time>2021-11-22T01:36:05.737Z</time>
      </trkpt>
      <trkpt lat="47.556527" lon="8.090721">
        <ele>315.997041</ele>
        <time>2021-11-22T01:36:08.617Z</time>
      </trkpt>
      <trkpt lat="47.556259" lon="8.090058">
        <ele>314.135786</ele>
        <time>2021-11-22T01:36:13.529Z</time>
      </trkpt>
      <trkpt lat="47.556193" lon="8.089926">
        <ele>313.740138</ele>
        <time>2021-11-22T01:36:14.661Z</time>
      </trkpt>
      <trkpt lat="47.556110" lon="8.089809">
        <ele>313.331319</ele>
        <time>2021-11-22T01:36:15.739Z</time>
      </trkpt>
      <trkpt lat="47.556137" lon="8.089730">
        <ele>313.118051</ele>
        <time>2021-11-22T01:36:16.292Z</time>
      </trkpt>
      <trkpt lat="47.556151" lon="8.089459">
        <ele>312.463475</ele>
        <time>2021-11-22T01:36:18.135Z</time>
      </trkpt>
      <trkpt lat="47.556111" lon="8.089266">
        <ele>311.977236</ele>
        <time>2021-11-22T01:36:19.424Z</time>
      </trkpt>
      <trkpt lat="47.556065" lon="8.089084">
        <ele>311.509181</ele>
        <time>2021-11-22T01:36:20.734Z</time>
      </trkpt>
      <trkpt lat="47.555997" lon="8.088801">
        <ele>310.785701</ele>
        <time>2021-11-22T01:36:23.043Z</time>
      </trkpt>
      <trkpt lat="47.555991" lon="8.088778">
        <ele>310.726314</ele>
        <time>2021-11-22T01:36:23.281Z</time>
      </trkpt>
      <trkpt lat="47.555939" lon="8.088552">
        <ele>310.151258</ele>
        <time>2021-11-22T01:36:25.111Z</time>
      </trkpt>
      <trkpt lat="47.555887" lon="8.088299">
        <ele>310.111073</ele>
        <time>2021-11-22T01:36:27.622Z</time>
      </trkpt>
      <trkpt lat="47.555829" lon="8.087941">
        <ele>310.613272</ele>
        <time>2021-11-22T01:36:31.438Z</time>
      </trkpt>
      <trkpt lat="47.555809" lon="8.087783">
        <ele>310.832548</ele>
        <time>2021-11-22T01:36:33.050Z</time>
      </trkpt>
      <trkpt lat="47.555780" lon="8.087557">
        <ele>311.146344</ele>
        <time>2021-11-22T01:36:35.226Z</time>
      </trkpt>
      <trkpt lat="47.555737" lon="8.087083">
        <ele>311.798714</ele>
        <time>2021-11-22T01:36:42.853Z</time>
      </trkpt>
      <trkpt lat="47.555733" lon="8.086819">
        <ele>312.158912</ele>
        <time>2021-11-22T01:36:47.875Z</time>
      </trkpt>
      <trkpt lat="47.555764" lon="8.085769">
        <ele>313.676288</ele>
        <time>2021-11-22T01:37:09.711Z</time>
      </trkpt>
      <trkpt lat="47.555899" lon="8.084472">
        <ele>317.890870</ele>
        <time>2021-11-22T01:37:39.122Z</time>
      </trkpt>
      <trkpt lat="47.555956" lon="8.084115">
        <ele>319.069027</ele>
        <time>2021-11-22T01:37:47.876Z</time>
      </trkpt>
      <trkpt lat="47.556083" lon="8.083354">
        <ele>321.586595</ele>
        <time>2021-11-22T01:38:06.074Z</time>
      </trkpt>
      <trkpt lat="47.556470" lon="8.081563">
        <ele>327.756251</ele>
        <time>2021-11-22T01:38:52.803Z</time>
      </trkpt>
      <trkpt lat="47.556853" lon="8.080477">
        <ele>331.210261</ele>
        <time>2021-11-22T01:39:18.876Z</time>
      </trkpt>
      <trkpt lat="47.557099" lon="8.079786">
        <ele>332.199984</ele>
        <time>2021-11-22T01:39:33.201Z</time>
      </trkpt>
      <trkpt lat="47.557256" lon="8.079416">
        <ele>332.753669</ele>
        <time>2021-11-22T01:39:39.921Z</time>
      </trkpt>
      <trkpt lat="47.557793" lon="8.078299">
        <ele>334.041446</ele>
        <time>2021-11-22T01:39:56.222Z</time>
      </trkpt>
      <trkpt lat="47.558613" lon="8.076826">
        <ele>332.343480</ele>
        <time>2021-11-22T01:40:10.786Z</time>
      </trkpt>
      <trkpt lat="47.559046" lon="8.076086">
        <ele>331.410056</ele>
        <time>2021-11-22T01:40:18.166Z</time>
      </trkpt>
      <trkpt lat="47.559426" lon="8.075372">
        <ele>330.469981</ele>
        <time>2021-11-22T01:40:25.164Z</time>
      </trkpt>
      <trkpt lat="47.559811" lon="8.074398">
        <ele>329.303037</ele>
        <time>2021-11-22T01:40:34.058Z</time>
      </trkpt>
      <trkpt lat="47.560318" lon="8.072316">
        <ele>326.803445</ele>
        <time>2021-11-22T01:40:51.329Z</time>
      </trkpt>
      <trkpt lat="47.560524" lon="8.071179">
        <ele>325.250225</ele>
        <time>2021-11-22T01:40:59.895Z</time>
      </trkpt>
      <trkpt lat="47.560553" lon="8.071099">
        <ele>325.110376</ele>
        <time>2021-11-22T01:41:00.506Z</time>
      </trkpt>
      <trkpt lat="47.560584" lon="8.070919">
        <ele>324.824294</ele>
        <time>2021-11-22T01:41:01.817Z</time>
      </trkpt>
      <trkpt lat="47.560739" lon="8.070551">
        <ele>324.156249</ele>
        <time>2021-11-22T01:41:04.903Z</time>
      </trkpt>
      <trkpt lat="47.560864" lon="8.070015">
        <ele>323.282921</ele>
        <time>2021-11-22T01:41:08.925Z</time>
      </trkpt>
      <trkpt lat="47.560904" lon="8.069780">
        <ele>322.909692</ele>
        <time>2021-11-22T01:41:10.670Z</time>
      </trkpt>
      <trkpt lat="47.560998" lon="8.069237">
        <ele>322.046412</ele>
        <time>2021-11-22T01:41:14.750Z</time>
      </trkpt>
      <trkpt lat="47.561130" lon="8.068650">
        <ele>321.624900</ele>
        <time>2021-11-22T01:41:19.420Z</time>
      </trkpt>
      <trkpt lat="47.561187" lon="8.068256">
        <ele>321.383958</ele>
        <time>2021-11-22T01:41:22.695Z</time>
      </trkpt>
      <trkpt lat="47.561229" lon="8.067903">
        <ele>321.169629</ele>
        <time>2021-11-22T01:41:25.733Z</time>
      </trkpt>
      <trkpt lat="47.561265" lon="8.067435">
        <ele>320.887981</ele>
        <time>2021-11-22T01:41:29.715Z</time>
      </trkpt>
      <trkpt lat="47.561276" lon="8.067022">
        <ele>320.640839</ele>
        <time>2021-11-22T01:41:33.632Z</time>
      </trkpt>
      <trkpt lat="47.561253" lon="8.066385">
        <ele>320.353590</ele>
        <time>2021-11-22T01:41:40.147Z</time>
      </trkpt>
      <trkpt lat="47.561108" lon="8.065242">
        <ele>320.259225</ele>
        <time>2021-11-22T01:41:52.514Z</time>
      </trkpt>
      <trkpt lat="47.561017" lon="8.064820">
        <ele>320.223279</ele>
        <time>2021-11-22T01:41:57.153Z</time>
      </trkpt>
      <trkpt lat="47.560887" lon="8.064271">
        <ele>320.176071</ele>
        <time>2021-11-22T01:42:02.350Z</time>
      </trkpt>
      <trkpt lat="47.560806" lon="8.064037">
        <ele>320.154732</ele>
        <time>2021-11-22T01:42:04.619Z</time>
      </trkpt>
      <trkpt lat="47.560719" lon="8.063873">
        <ele>320.053961</ele>
        <time>2021-11-22T01:42:06.403Z</time>
      </trkpt>
      <trkpt lat="47.560392" lon="8.063300">
        <ele>319.636133</ele>
        <time>2021-11-22T01:42:12.700Z</time>
      </trkpt>
      <trkpt lat="47.560335" lon="8.063169">
        <ele>319.549346</ele>
        <time>2021-11-22T01:42:14.047Z</time>
      </trkpt>
      <trkpt lat="47.560443" lon="8.063042">
        <ele>319.435589</ele>
        <time>2021-11-22T01:42:15.716Z</time>
      </trkpt>
      <trkpt lat="47.560545" lon="8.062928">
        <ele>319.330176</ele>
        <time>2021-11-22T01:42:17.283Z</time>
      </trkpt>
      <trkpt lat="47.560580" lon="8.062890">
        <ele>319.294377</ele>
        <time>2021-11-22T01:42:17.818Z</time>
      </trkpt>
      <trkpt lat="47.560673" lon="8.062786">
        <ele>319.198246</ele>
        <time>2021-11-22T01:42:19.889Z</time>
      </trkpt>
      <trkpt lat="47.560765" lon="8.062729">
        <ele>319.115970</ele>
        <time>2021-11-22T01:42:21.641Z</time>
      </trkpt>
      <trkpt lat="47.560570" lon="8.061926">
        <ele>318.648943</ele>
        <time>2021-11-22T01:42:28.997Z</time>
      </trkpt>
      <trkpt lat="47.560335" lon="8.060984">
        <ele>318.256742</ele>
        <time>2021-11-22T01:42:37.327Z</time>
      </trkpt>
      <trkpt lat="47.560293" lon="8.060828">
        <ele>318.191152</ele>
        <time>2021-11-22T01:42:38.756Z</time>
      </trkpt>
      <trkpt lat="47.560262" lon="8.060729">
        <ele>318.148531</ele>
        <time>2021-11-22T01:42:39.711Z</time>
      </trkpt>
      <trkpt lat="47.560130" lon="8.060196">
        <ele>317.926809</ele>
        <time>2021-11-22T01:42:44.911Z</time>
      </trkpt>
      <trkpt lat="47.560069" lon="8.059943">
        <ele>317.821890</ele>
        <time>2021-11-22T01:42:47.323Z</time>
      </trkpt>
      <trkpt lat="47.560040" lon="8.059827">
        <ele>317.773581</ele>
        <time>2021-11-22T01:42:48.540Z</time>
      </trkpt>
      <trkpt lat="47.560019" lon="8.059741">
        <ele>317.737865</ele>
        <time>2021-11-22T01:42:49.430Z</time>
      </trkpt>
      <trkpt lat="47.559979" lon="8.059591">
        <ele>317.674879</ele>
        <time>2021-11-22T01:42:50.892Z</time>
      </trkpt>
      <trkpt lat="47.559859" lon="8.059093">
        <ele>317.556264</ele>
        <time>2021-11-22T01:42:55.914Z</time>
      </trkpt>
      <trkpt lat="47.559725" lon="8.058554">
        <ele>317.456101</ele>
        <time>2021-11-22T01:43:01.324Z</time>
      </trkpt>
      <trkpt lat="47.559654" lon="8.058257">
        <ele>317.401157</ele>
        <time>2021-11-22T01:43:04.276Z</time>
      </trkpt>
      <trkpt lat="47.559579" lon="8.057955">
        <ele>317.345043</ele>
        <time>2021-11-22T01:43:07.180Z</time>
      </trkpt>
      <trkpt lat="47.559548" lon="8.057827">
        <ele>317.321329</ele>
        <time>2021-11-22T01:43:08.475Z</time>
      </trkpt>
      <trkpt lat="47.559447" lon="8.057490">
        <ele>317.257029</ele>
        <time>2021-11-22T01:43:11.903Z</time>
      </trkpt>
      <trkpt lat="47.559294" lon="8.057130">
        <ele>317.182841</ele>
        <time>2021-11-22T01:43:16.042Z</time>
      </trkpt>
      <trkpt lat="47.559116" lon="8.056760">
        <ele>317.143009</ele>
        <time>2021-11-22T01:43:20.480Z</time>
      </trkpt>
      <trkpt lat="47.558662" lon="8.056061">
        <ele>317.087220</ele>
        <time>2021-11-22T01:43:29.818Z</time>
      </trkpt>
      <trkpt lat="47.558447" lon="8.055831">
        <ele>317.064623</ele>
        <time>2021-11-22T01:43:33.349Z</time>
      </trkpt>
      <trkpt lat="47.558239" lon="8.055639">
        <ele>317.043741</ele>
        <time>2021-11-22T01:43:37.031Z</time>
      </trkpt>
      <trkpt lat="47.558012" lon="8.055477">
        <ele>317.022271</ele>
        <time>2021-11-22T01:43:40.675Z</time>
      </trkpt>
      <trkpt lat="47.557918" lon="8.055409">
        <ele>317.013358</ele>
        <time>2021-11-22T01:43:42.473Z</time>
      </trkpt>
      <trkpt lat="47.557710" lon="8.055283">
        <ele>317.002937</ele>
        <time>2021-11-22T01:43:45.838Z</time>
      </trkpt>
      <trkpt lat="47.557500" lon="8.055133">
        <ele>316.994693</ele>
        <time>2021-11-22T01:43:49.663Z</time>
      </trkpt>
      <trkpt lat="47.557273" lon="8.054941">
        <ele>316.985450</ele>
        <time>2021-11-22T01:43:53.903Z</time>
      </trkpt>
      <trkpt lat="47.557097" lon="8.054768">
        <ele>316.977982</ele>
        <time>2021-11-22T01:43:56.867Z</time>
      </trkpt>
      <trkpt lat="47.557019" lon="8.054678">
        <ele>316.974486</ele>
        <time>2021-11-22T01:43:58.673Z</time>
      </trkpt>
      <trkpt lat="47.556494" lon="8.054073">
        <ele>316.950968</ele>
        <time>2021-11-22T01:44:07.524Z</time>
      </trkpt>
      <trkpt lat="47.556239" lon="8.053780">
        <ele>316.987963</ele>
        <time>2021-11-22T01:44:11.930Z</time>
      </trkpt>
      <trkpt lat="47.556032" lon="8.053510">
        <ele>317.057323</ele>
        <time>2021-11-22T01:44:16.154Z</time>
      </trkpt>
      <trkpt lat="47.555890" lon="8.053286">
        <ele>317.109486</ele>
        <time>2021-11-22T01:44:19.791Z</time>
      </trkpt>
      <trkpt lat="47.555773" lon="8.053070">
        <ele>317.156498</ele>
        <time>2021-11-22T01:44:22.732Z</time>
      </trkpt>
      <trkpt lat="47.555603" lon="8.052757">
        <ele>317.224693</ele>
        <time>2021-11-22T01:44:26.954Z</time>
      </trkpt>
      <trkpt lat="47.555259" lon="8.052135">
        <ele>317.361192</ele>
        <time>2021-11-22T01:44:35.651Z</time>
      </trkpt>
      <trkpt lat="47.554988" lon="8.051475">
        <ele>317.960958</ele>
        <time>2021-11-22T01:44:44.642Z</time>
      </trkpt>
      <trkpt lat="47.554715" lon="8.050527">
        <ele>319.004164</ele>
        <time>2021-11-22T01:44:59.432Z</time>
      </trkpt>
      <trkpt lat="47.554412" lon="8.049127">
        <ele>320.545852</ele>
        <time>2021-11-22T01:45:21.993Z</time>
      </trkpt>
      <trkpt lat="47.554309" lon="8.048719">
        <ele>321.046307</ele>
        <time>2021-11-22T01:45:29.010Z</time>
      </trkpt>
      <trkpt lat="47.553996" lon="8.047557">
        <ele>322.483689</ele>
        <time>2021-11-22T01:45:48.240Z</time>
      </trkpt>
      <trkpt lat="47.553619" lon="8.046372">
        <ele>323.011779</ele>
        <time>2021-11-22T01:46:04.677Z</time>
      </trkpt>
      <trkpt lat="47.552844" lon="8.044355">
        <ele>322.116727</ele>
        <time>2021-11-22T01:46:24.607Z</time>
      </trkpt>
      <trkpt lat="47.551627" lon="8.041127">
        <ele>317.208246</ele>
        <time>2021-11-22T01:46:51.359Z</time>
      </trkpt>
      <trkpt lat="47.551167" lon="8.039905">
        <ele>315.522723</ele>
        <time>2021-11-22T01:47:01.990Z</time>
      </trkpt>
      <trkpt lat="47.551001" lon="8.039426">
        <ele>315.420538</ele>
        <time>2021-11-22T01:47:06.345Z</time>
      </trkpt>
      <trkpt lat="47.550515" lon="8.038174">
        <ele>315.146443</ele>
        <time>2021-11-22T01:47:20.048Z</time>
      </trkpt>
      <trkpt lat="47.550424" lon="8.037956">
        <ele>315.097799</ele>
        <time>2021-11-22T01:47:23.019Z</time>
      </trkpt>
      <trkpt lat="47.550111" lon="8.037123">
        <ele>315.426608</ele>
        <time>2021-11-22T01:47:35.386Z</time>
      </trkpt>
      <trkpt lat="47.549832" lon="8.036349">
        <ele>315.923616</ele>
        <time>2021-11-22T01:47:46.669Z</time>
      </trkpt>
      <trkpt lat="47.549753" lon="8.036077">
        <ele>316.091339</ele>
        <time>2021-11-22T01:47:50.441Z</time>
      </trkpt>
      <trkpt lat="47.549699" lon="8.035900">
        <ele>316.201360</ele>
        <time>2021-11-22T01:47:52.774Z</time>
      </trkpt>
      <trkpt lat="47.549632" lon="8.035633">
        <ele>316.362707</ele>
        <time>2021-11-22T01:47:56.091Z</time>
      </trkpt>
      <trkpt lat="47.549554" lon="8.035288">
        <ele>316.557485</ele>
        <time>2021-11-22T01:48:00.383Z</time>
      </trkpt>
      <trkpt lat="47.549494" lon="8.034935">
        <ele>316.603820</ele>
        <time>2021-11-22T01:48:04.841Z</time>
      </trkpt>
      <trkpt lat="47.549442" lon="8.034584">
        <ele>316.649561</ele>
        <time>2021-11-22T01:48:08.245Z</time>
      </trkpt>
      <trkpt lat="47.549395" lon="8.034029">
        <ele>316.720760</ele>
        <time>2021-11-22T01:48:14.307Z</time>
      </trkpt>
      <trkpt lat="47.549394" lon="8.034003">
        <ele>316.724075</ele>
        <time>2021-11-22T01:48:15.783Z</time>
      </trkpt>
      <trkpt lat="47.549386" lon="8.033799">
        <ele>316.750085</ele>
        <time>2021-11-22T01:48:17.315Z</time>
      </trkpt>
      <trkpt lat="47.549374" lon="8.033423">
        <ele>316.797998</ele>
        <time>2021-11-22T01:48:21.830Z</time>
      </trkpt>
      <trkpt lat="47.549363" lon="8.032869">
        <ele>316.868546</ele>
        <time>2021-11-22T01:48:26.991Z</time>
      </trkpt>
      <trkpt lat="47.549368" lon="8.032544">
        <ele>316.901373</ele>
        <time>2021-11-22T01:48:29.588Z</time>
      </trkpt>
      <trkpt lat="47.549372" lon="8.031883">
        <ele>316.941949</ele>
        <time>2021-11-22T01:48:36.606Z</time>
      </trkpt>
      <trkpt lat="47.549378" lon="8.030790">
        <ele>317.009044</ele>
        <time>2021-11-22T01:48:47.267Z</time>
      </trkpt>
      <trkpt lat="47.549380" lon="8.030702">
        <ele>317.014449</ele>
        <time>2021-11-22T01:48:48.107Z</time>
      </trkpt>
      <trkpt lat="47.549418" lon="8.028906">
        <ele>317.464882</ele>
        <time>2021-11-22T01:49:08.814Z</time>
      </trkpt>
      <trkpt lat="47.549431" lon="8.028306">
        <ele>317.686694</ele>
        <time>2021-11-22T01:49:15.559Z</time>
      </trkpt>
      <trkpt lat="47.549445" lon="8.027599">
        <ele>317.948040</ele>
        <time>2021-11-22T01:49:23.736Z</time>
      </trkpt>
      <trkpt lat="47.549454" lon="8.027138">
        <ele>318.109073</ele>
        <time>2021-11-22T01:49:29.261Z</time>
      </trkpt>
      <trkpt lat="47.549436" lon="8.026046">
        <ele>318.463422</ele>
        <time>2021-11-22T01:49:42.546Z</time>
      </trkpt>
      <trkpt lat="47.549322" lon="8.024323">
        <ele>318.851532</ele>
        <time>2021-11-22T01:50:01.150Z</time>
      </trkpt>
      <trkpt lat="47.549268" lon="8.023385">
        <ele>318.711416</ele>
        <time>2021-11-22T01:50:10.597Z</time>
      </trkpt>
      <trkpt lat="47.549201" lon="8.022146">
        <ele>318.526417</ele>
        <time>2021-11-22T01:50:21.814Z</time>
      </trkpt>
      <trkpt lat="47.549191" lon="8.021436">
        <ele>318.050093</ele>
        <time>2021-11-22T01:50:27.781Z</time>
      </trkpt>
      <trkpt lat="47.549186" lon="8.021006">
        <ele>317.718800</ele>
        <time>2021-11-22T01:50:31.365Z</time>
      </trkpt>
      <trkpt lat="47.549208" lon="8.019997">
        <ele>316.941127</ele>
        <time>2021-11-22T01:50:39.599Z</time>
      </trkpt>
      <trkpt lat="47.549261" lon="8.017878">
        <ele>314.964275</ele>
        <time>2021-11-22T01:50:55.721Z</time>
      </trkpt>
      <trkpt lat="47.549256" lon="8.017769">
        <ele>314.854963</ele>
        <time>2021-11-22T01:50:56.585Z</time>
      </trkpt>
      <trkpt lat="47.549291" lon="8.017761">
        <ele>314.802465</ele>
        <time>2021-11-22T01:50:56.982Z</time>
      </trkpt>
      <trkpt lat="47.549324" lon="8.017738">
        <ele>314.748403</ele>
        <time>2021-11-22T01:50:57.372Z</time>
      </trkpt>
      <trkpt lat="47.549351" lon="8.017702">
        <ele>314.694557</ele>
        <time>2021-11-22T01:50:57.774Z</time>
      </trkpt>
      <trkpt lat="47.549370" lon="8.017656">
        <ele>314.640597</ele>
        <time>2021-11-22T01:50:58.233Z</time>
      </trkpt>
      <trkpt lat="47.549379" lon="8.017603">
        <ele>314.585915</ele>
        <time>2021-11-22T01:50:58.639Z</time>
      </trkpt>
      <trkpt lat="47.549377" lon="8.017547">
        <ele>314.529806</ele>
        <time>2021-11-22T01:50:59.197Z</time>
      </trkpt>
      <trkpt lat="47.549310" lon="8.017418">
        <ele>314.366943</ele>
        <time>2021-11-22T01:51:00.543Z</time>
      </trkpt>
      <trkpt lat="47.549274" lon="8.017401">
        <ele>314.310932</ele>
        <time>2021-11-22T01:51:01.025Z</time>
      </trkpt>
      <trkpt lat="47.549281" lon="8.017304">
        <ele>314.213324</ele>
        <time>2021-11-22T01:51:01.740Z</time>
      </trkpt>
      <trkpt lat="47.549431" lon="8.015998">
        <ele>313.041153</ele>
        <time>2021-11-22T01:51:12.485Z</time>
      </trkpt>
      <trkpt lat="47.549589" lon="8.015316">
        <ele>312.442271</ele>
        <time>2021-11-22T01:51:18.329Z</time>
      </trkpt>
      <trkpt lat="47.549795" lon="8.014667">
        <ele>311.846608</ele>
        <time>2021-11-22T01:51:24.144Z</time>
      </trkpt>
      <trkpt lat="47.549871" lon="8.014427">
        <ele>311.626426</ele>
        <time>2021-11-22T01:51:26.279Z</time>
      </trkpt>
      <trkpt lat="47.550001" lon="8.014034">
        <ele>311.224663</ele>
        <time>2021-11-22T01:51:29.668Z</time>
      </trkpt>
      <trkpt lat="47.550565" lon="8.012461">
        <ele>309.565104</ele>
        <time>2021-11-22T01:51:43.275Z</time>
      </trkpt>
      <trkpt lat="47.550764" lon="8.011985">
        <ele>309.098748</ele>
        <time>2021-11-22T01:51:47.774Z</time>
      </trkpt>
      <trkpt lat="47.551187" lon="8.011080">
        <ele>309.192490</ele>
        <time>2021-11-22T01:51:57.892Z</time>
      </trkpt>
      <trkpt lat="47.551275" lon="8.010934">
        <ele>309.209159</ele>
        <time>2021-11-22T01:51:59.702Z</time>
      </trkpt>
      <trkpt lat="47.551902" lon="8.009884">
        <ele>309.376164</ele>
        <time>2021-11-22T01:52:16.657Z</time>
      </trkpt>
      <trkpt lat="47.552604" lon="8.008677">
        <ele>310.373897</ele>
        <time>2021-11-22T01:52:39.137Z</time>
      </trkpt>
      <trkpt lat="47.552640" lon="8.008615">
        <ele>310.425112</ele>
        <time>2021-11-22T01:52:40.723Z</time>
      </trkpt>
      <trkpt lat="47.552935" lon="8.007851">
        <ele>310.976279</ele>
        <time>2021-11-22T01:52:50.321Z</time>
      </trkpt>
      <trkpt lat="47.553173" lon="8.006642">
        <ele>310.366446</ele>
        <time>2021-11-22T01:53:01.124Z</time>
      </trkpt>
      <trkpt lat="47.553211" lon="8.006270">
        <ele>310.176950</ele>
        <time>2021-11-22T01:53:04.337Z</time>
      </trkpt>
      <trkpt lat="47.553220" lon="8.006182">
        <ele>310.132122</ele>
        <time>2021-11-22T01:53:04.928Z</time>
      </trkpt>
      <trkpt lat="47.553251" lon="8.005657">
        <ele>309.866690</ele>
        <time>2021-11-22T01:53:09.177Z</time>
      </trkpt>
      <trkpt lat="47.553256" lon="8.004837">
        <ele>309.661335</ele>
        <time>2021-11-22T01:53:16.101Z</time>
      </trkpt>
      <trkpt lat="47.553266" lon="8.003502">
        <ele>309.709077</ele>
        <time>2021-11-22T01:53:28.688Z</time>
      </trkpt>
      <trkpt lat="47.553270" lon="8.002465">
        <ele>309.790913</ele>
        <time>2021-11-22T01:53:41.359Z</time>
      </trkpt>
      <trkpt lat="47.553271" lon="8.002109">
        <ele>309.976741</ele>
        <time>2021-11-22T01:53:46.338Z</time>
      </trkpt>
      <trkpt lat="47.553273" lon="8.001687">
        <ele>310.197024</ele>
        <time>2021-11-22T01:53:52.018Z</time>
      </trkpt>
      <trkpt lat="47.553275" lon="7.999860">
        <ele>311.116007</ele>
        <time>2021-11-22T01:54:14.204Z</time>
      </trkpt>
      <trkpt lat="47.553278" lon="7.999508">
        <ele>310.918483</ele>
        <time>2021-11-22T01:54:17.751Z</time>
      </trkpt>
      <trkpt lat="47.553287" lon="7.998380">
        <ele>310.285513</ele>
        <time>2021-11-22T01:54:27.518Z</time>
      </trkpt>
      <trkpt lat="47.553287" lon="7.997190">
        <ele>309.585019</ele>
        <time>2021-11-22T01:54:36.817Z</time>
      </trkpt>
      <trkpt lat="47.553279" lon="7.996528">
        <ele>308.628435</ele>
        <time>2021-11-22T01:54:41.833Z</time>
      </trkpt>
      <trkpt lat="47.553268" lon="7.996252">
        <ele>308.228986</ele>
        <time>2021-11-22T01:54:43.905Z</time>
      </trkpt>
      <trkpt lat="47.553246" lon="7.995617">
        <ele>307.310355</ele>
        <time>2021-11-22T01:54:48.087Z</time>
      </trkpt>
      <trkpt lat="47.553164" lon="7.993925">
        <ele>305.521290</ele>
        <time>2021-11-22T01:55:01.606Z</time>
      </trkpt>
      <trkpt lat="47.553156" lon="7.993696">
        <ele>305.426054</ele>
        <time>2021-11-22T01:55:03.007Z</time>
      </trkpt>
      <trkpt lat="47.553137" lon="7.993190">
        <ele>305.215577</ele>
        <time>2021-11-22T01:55:07.620Z</time>
      </trkpt>
      <trkpt lat="47.553130" lon="7.993014">
        <ele>305.142353</ele>
        <time>2021-11-22T01:55:11.805Z</time>
      </trkpt>
      <trkpt lat="47.553107" lon="7.992226">
        <ele>304.814774</ele>
        <time>2021-11-22T01:55:18.520Z</time>
      </trkpt>
      <trkpt lat="47.553091" lon="7.991915">
        <ele>304.685234</ele>
        <time>2021-11-22T01:55:22.752Z</time>
      </trkpt>
      <trkpt lat="47.553050" lon="7.990744">
        <ele>303.565203</ele>
        <time>2021-11-22T01:55:35.575Z</time>
      </trkpt>
      <trkpt lat="47.553126" lon="7.990240">
        <ele>303.069724</ele>
        <time>2021-11-22T01:55:39.487Z</time>
      </trkpt>
      <trkpt lat="47.553146" lon="7.990113">
        <ele>302.944603</ele>
        <time>2021-11-22T01:55:40.415Z</time>
      </trkpt>
      <trkpt lat="47.553163" lon="7.990004">
        <ele>302.837269</ele>
        <time>2021-11-22T01:55:41.200Z</time>
      </trkpt>
      <trkpt lat="47.553214" lon="7.989758">
        <ele>302.590363</ele>
        <time>2021-11-22T01:55:42.980Z</time>
      </trkpt>
      <trkpt lat="47.553253" lon="7.989578">
        <ele>302.408984</ele>
        <time>2021-11-22T01:55:44.269Z</time>
      </trkpt>
      <trkpt lat="47.553352" lon="7.989142">
        <ele>301.707875</ele>
        <time>2021-11-22T01:55:47.365Z</time>
      </trkpt>
      <trkpt lat="47.553424" lon="7.988762">
        <ele>300.702195</ele>
        <time>2021-11-22T01:55:50.011Z</time>
      </trkpt>
      <trkpt lat="47.553410" lon="7.988607">
        <ele>300.303731</ele>
        <time>2021-11-22T01:55:51.042Z</time>
      </trkpt>
      <trkpt lat="47.553343" lon="7.988401">
        <ele>299.721069</ele>
        <time>2021-11-22T01:55:52.564Z</time>
      </trkpt>
      <trkpt lat="47.553232" lon="7.988247">
        <ele>299.146968</ele>
        <time>2021-11-22T01:55:54.035Z</time>
      </trkpt>
      <trkpt lat="47.552867" lon="7.987810">
        <ele>297.375305</ele>
        <time>2021-11-22T01:55:58.604Z</time>
      </trkpt>
      <trkpt lat="47.552713" lon="7.987638">
        <ele>296.647217</ele>
        <time>2021-11-22T01:56:00.442Z</time>
      </trkpt>
      <trkpt lat="47.552504" lon="7.987369">
        <ele>295.602029</ele>
        <time>2021-11-22T01:56:03.152Z</time>
      </trkpt>
      <trkpt lat="47.552436" lon="7.987273">
        <ele>295.309148</ele>
        <time>2021-11-22T01:56:04.096Z</time>
      </trkpt>
      <trkpt lat="47.552224" lon="7.986975">
        <ele>294.992974</ele>
        <time>2021-11-22T01:56:07.080Z</time>
      </trkpt>
      <trkpt lat="47.552152" lon="7.986883">
        <ele>294.890106</ele>
        <time>2021-11-22T01:56:08.061Z</time>
      </trkpt>
      <trkpt lat="47.551971" lon="7.986555">
        <ele>294.580721</ele>
        <time>2021-11-22T01:56:11.059Z</time>
      </trkpt>
      <trkpt lat="47.551917" lon="7.986288">
        <ele>294.377182</ele>
        <time>2021-11-22T01:56:13.140Z</time>
      </trkpt>
      <trkpt lat="47.551915" lon="7.986209">
        <ele>294.319453</ele>
        <time>2021-11-22T01:56:13.700Z</time>
      </trkpt>
      <trkpt lat="47.551898" lon="7.985654">
        <ele>293.913755</ele>
        <time>2021-11-22T01:56:19.207Z</time>
      </trkpt>
      <trkpt lat="47.551939" lon="7.985151">
        <ele>293.543777</ele>
        <time>2021-11-22T01:56:25.363Z</time>
      </trkpt>
      <trkpt lat="47.551934" lon="7.984260">
        <ele>294.531783</ele>
        <time>2021-11-22T01:56:38.945Z</time>
      </trkpt>
      <trkpt lat="47.551993" lon="7.984014">
        <ele>294.972538</ele>
        <time>2021-11-22T01:56:42.550Z</time>
      </trkpt>
      <trkpt lat="47.552007" lon="7.983931">
        <ele>295.116973</ele>
        <time>2021-11-22T01:56:44.124Z</time>
      </trkpt>
      <trkpt lat="47.552005" lon="7.983849">
        <ele>295.255501</ele>
        <time>2021-11-22T01:56:46.206Z</time>
      </trkpt>
      <trkpt lat="47.551911" lon="7.983632">
        <ele>295.690820</ele>
        <time>2021-11-22T01:56:50.399Z</time>
      </trkpt>
      <trkpt lat="47.551892" lon="7.983447">
        <ele>296.006744</ele>
        <time>2021-11-22T01:56:53.743Z</time>
      </trkpt>
      <trkpt lat="47.551861" lon="7.981113">
        <ele>299.227199</ele>
        <time>2021-11-22T01:57:37.033Z</time>
      </trkpt>
      <trkpt lat="47.551865" lon="7.980584">
        <ele>299.807999</ele>
        <time>2021-11-22T01:57:43.673Z</time>
      </trkpt>
      <trkpt lat="47.551873" lon="7.980135">
        <ele>300.301106</ele>
        <time>2021-11-22T01:57:48.429Z</time>
      </trkpt>
      <trkpt lat="47.551933" lon="7.979363">
        <ele>300.703351</ele>
        <time>2021-11-22T01:57:56.788Z</time>
      </trkpt>
      <trkpt lat="47.551923" lon="7.979308">
        <ele>300.683310</ele>
        <time>2021-11-22T01:57:57.156Z</time>
      </trkpt>
      <trkpt lat="47.551901" lon="7.979190">
        <ele>300.640237</ele>
        <time>2021-11-22T01:57:58.127Z</time>
      </trkpt>
      <trkpt lat="47.551829" lon="7.976305">
        <ele>299.907107</ele>
        <time>2021-11-22T01:58:23.176Z</time>
      </trkpt>
      <trkpt lat="47.551793" lon="7.974325">
        <ele>299.990874</ele>
        <time>2021-11-22T01:58:45.289Z</time>
      </trkpt>
      <trkpt lat="47.551755" lon="7.972603">
        <ele>299.752817</ele>
        <time>2021-11-22T01:59:02.587Z</time>
      </trkpt>
      <trkpt lat="47.551725" lon="7.970823">
        <ele>299.352834</ele>
        <time>2021-11-22T01:59:17.816Z</time>
      </trkpt>
      <trkpt lat="47.551734" lon="7.970034">
        <ele>299.103621</ele>
        <time>2021-11-22T01:59:24.776Z</time>
      </trkpt>
      <trkpt lat="47.551750" lon="7.968659">
        <ele>298.836316</ele>
        <time>2021-11-22T01:59:37.965Z</time>
      </trkpt>
      <trkpt lat="47.551825" lon="7.968445">
        <ele>298.870175</ele>
        <time>2021-11-22T01:59:40.218Z</time>
      </trkpt>
      <trkpt lat="47.551847" lon="7.968315">
        <ele>298.888994</ele>
        <time>2021-11-22T01:59:41.688Z</time>
      </trkpt>
      <trkpt lat="47.551839" lon="7.968208">
        <ele>298.904110</ele>
        <time>2021-11-22T01:59:42.891Z</time>
      </trkpt>
      <trkpt lat="47.551767" lon="7.967910">
        <ele>298.948554</ele>
        <time>2021-11-22T01:59:46.124Z</time>
      </trkpt>
      <trkpt lat="47.551902" lon="7.964650">
        <ele>299.477105</ele>
        <time>2021-11-22T02:00:22.525Z</time>
      </trkpt>
      <trkpt lat="47.551918" lon="7.963725">
        <ele>299.631598</ele>
        <time>2021-11-22T02:00:31.922Z</time>
      </trkpt>
      <trkpt lat="47.551906" lon="7.962453">
        <ele>299.289871</ele>
        <time>2021-11-22T02:00:43.852Z</time>
      </trkpt>
      <trkpt lat="47.551859" lon="7.961133">
        <ele>298.934789</ele>
        <time>2021-11-22T02:00:55.436Z</time>
      </trkpt>
      <trkpt lat="47.551894" lon="7.960729">
        <ele>298.842719</ele>
        <time>2021-11-22T02:00:59.188Z</time>
      </trkpt>
      <trkpt lat="47.551882" lon="7.960631">
        <ele>298.820721</ele>
        <time>2021-11-22T02:00:59.957Z</time>
      </trkpt>
      <trkpt lat="47.551865" lon="7.960528">
        <ele>298.797301</ele>
        <time>2021-11-22T02:01:00.903Z</time>
      </trkpt>
      <trkpt lat="47.551677" lon="7.960100">
        <ele>298.684511</ele>
        <time>2021-11-22T02:01:05.427Z</time>
      </trkpt>
      <trkpt lat="47.551300" lon="7.958844">
        <ele>298.380899</ele>
        <time>2021-11-22T02:01:18.338Z</time>
      </trkpt>
      <trkpt lat="47.550869" lon="7.957700">
        <ele>298.363103</ele>
        <time>2021-11-22T02:01:31.702Z</time>
      </trkpt>
      <trkpt lat="47.550745" lon="7.957569">
        <ele>298.369009</ele>
        <time>2021-11-22T02:01:33.941Z</time>
      </trkpt>
      <trkpt lat="47.550735" lon="7.957541">
        <ele>298.369838</ele>
        <time>2021-11-22T02:01:34.383Z</time>
      </trkpt>
      <trkpt lat="47.550613" lon="7.957254">
        <ele>298.378716</ele>
        <time>2021-11-22T02:01:37.721Z</time>
      </trkpt>
      <trkpt lat="47.550549" lon="7.957126">
        <ele>298.382885</ele>
        <time>2021-11-22T02:01:39.269Z</time>
      </trkpt>
      <trkpt lat="47.550445" lon="7.956918">
        <ele>298.389660</ele>
        <time>2021-11-22T02:01:41.942Z</time>
      </trkpt>
      <trkpt lat="47.550380" lon="7.956806">
        <ele>298.393527</ele>
        <time>2021-11-22T02:01:43.426Z</time>
      </trkpt>
      <trkpt lat="47.550205" lon="7.956552">
        <ele>298.403027</ele>
        <time>2021-11-22T02:01:47.136Z</time>
      </trkpt>
      <trkpt lat="47.549444" lon="7.955496">
        <ele>298.538911</ele>
        <time>2021-11-22T02:02:03.502Z</time>
      </trkpt>
      <trkpt lat="47.549157" lon="7.955099">
        <ele>298.591045</ele>
        <time>2021-11-22T02:02:09.303Z</time>
      </trkpt>
      <trkpt lat="47.549042" lon="7.954942">
        <ele>298.611808</ele>
        <time>2021-11-22T02:02:11.655Z</time>
      </trkpt>
      <trkpt lat="47.548833" lon="7.954652">
        <ele>298.657889</ele>
        <time>2021-11-22T02:02:16.012Z</time>
      </trkpt>
      <trkpt lat="47.548542" lon="7.954269">
        <ele>298.769665</ele>
        <time>2021-11-22T02:02:22.029Z</time>
      </trkpt>
      <trkpt lat="47.548342" lon="7.954009">
        <ele>298.846073</ele>
        <time>2021-11-22T02:02:26.211Z</time>
      </trkpt>
      <trkpt lat="47.548251" lon="7.953895">
        <ele>298.880295</ele>
        <time>2021-11-22T02:02:28.140Z</time>
      </trkpt>
      <trkpt lat="47.548115" lon="7.953729">
        <ele>298.930896</ele>
        <time>2021-11-22T02:02:31.008Z</time>
      </trkpt>
      <trkpt lat="47.547994" lon="7.953584">
        <ele>298.975587</ele>
        <time>2021-11-22T02:02:33.570Z</time>
      </trkpt>
      <trkpt lat="47.547871" lon="7.953437">
        <ele>299.020968</ele>
        <time>2021-11-22T02:02:36.161Z</time>
      </trkpt>
      <trkpt lat="47.547797" lon="7.953355">
        <ele>299.047504</ele>
        <time>2021-11-22T02:02:37.665Z</time>
      </trkpt>
      <trkpt lat="47.547624" lon="7.953160">
        <ele>299.109928</ele>
        <time>2021-11-22T02:02:41.158Z</time>
      </trkpt>
      <trkpt lat="47.547550" lon="7.953078">
        <ele>299.136464</ele>
        <time>2021-11-22T02:02:42.682Z</time>
      </trkpt>
      <trkpt lat="47.547458" lon="7.952975">
        <ele>299.172527</ele>
        <time>2021-11-22T02:02:44.695Z</time>
      </trkpt>
      <trkpt lat="47.547400" lon="7.952910">
        <ele>299.199462</ele>
        <time>2021-11-22T02:02:45.977Z</time>
      </trkpt>
      <trkpt lat="47.547090" lon="7.952543">
        <ele>299.346430</ele>
        <time>2021-11-22T02:02:52.425Z</time>
      </trkpt>
      <trkpt lat="47.546935" lon="7.952372">
        <ele>299.418005</ele>
        <time>2021-11-22T02:02:55.318Z</time>
      </trkpt>
      <trkpt lat="47.546776" lon="7.952185">
        <ele>299.493194</ele>
        <time>2021-11-22T02:02:58.641Z</time>
      </trkpt>
      <trkpt lat="47.546695" lon="7.952091">
        <ele>299.531301</ele>
        <time>2021-11-22T02:03:00.449Z</time>
      </trkpt>
      <trkpt lat="47.546634" lon="7.952024">
        <ele>299.559426</ele>
        <time>2021-11-22T02:03:01.892Z</time>
      </trkpt>
      <trkpt lat="47.546421" lon="7.951793">
        <ele>299.657192</ele>
        <time>2021-11-22T02:03:06.303Z</time>
      </trkpt>
      <trkpt lat="47.546231" lon="7.951558">
        <ele>299.748862</ele>
        <time>2021-11-22T02:03:10.856Z</time>
      </trkpt>
      <trkpt lat="47.546212" lon="7.951535">
        <ele>299.757949</ele>
        <time>2021-11-22T02:03:11.102Z</time>
      </trkpt>
      <trkpt lat="47.546135" lon="7.951406">
        <ele>299.800999</ele>
        <time>2021-11-22T02:03:12.911Z</time>
      </trkpt>
      <trkpt lat="47.545886" lon="7.951110">
        <ele>299.724772</ele>
        <time>2021-11-22T02:03:17.731Z</time>
      </trkpt>
      <trkpt lat="47.545824" lon="7.951061">
        <ele>299.696770</ele>
        <time>2021-11-22T02:03:18.873Z</time>
      </trkpt>
      <trkpt lat="47.545759" lon="7.950982">
        <ele>299.663267</ele>
        <time>2021-11-22T02:03:20.278Z</time>
      </trkpt>
      <trkpt lat="47.545727" lon="7.950947">
        <ele>299.647417</ele>
        <time>2021-11-22T02:03:21.079Z</time>
      </trkpt>
      <trkpt lat="47.545625" lon="7.950829">
        <ele>299.595848</ele>
        <time>2021-11-22T02:03:22.634Z</time>
      </trkpt>
      <trkpt lat="47.545567" lon="7.950765">
        <ele>299.567029</ele>
        <time>2021-11-22T02:03:23.668Z</time>
      </trkpt>
      <trkpt lat="47.545494" lon="7.950684">
        <ele>299.530685</ele>
        <time>2021-11-22T02:03:25.036Z</time>
      </trkpt>
      <trkpt lat="47.545434" lon="7.950668">
        <ele>299.506392</ele>
        <time>2021-11-22T02:03:26.121Z</time>
      </trkpt>
      <trkpt lat="47.545166" lon="7.950366">
        <ele>299.372215</ele>
        <time>2021-11-22T02:03:30.462Z</time>
      </trkpt>
      <trkpt lat="47.544901" lon="7.950044">
        <ele>299.235640</ele>
        <time>2021-11-22T02:03:34.595Z</time>
      </trkpt>
      <trkpt lat="47.544521" lon="7.949558">
        <ele>299.189307</ele>
        <time>2021-11-22T02:03:40.784Z</time>
      </trkpt>
      <trkpt lat="47.544239" lon="7.949202">
        <ele>299.351540</ele>
        <time>2021-11-22T02:03:45.692Z</time>
      </trkpt>
      <trkpt lat="47.543864" lon="7.948694">
        <ele>299.574045</ele>
        <time>2021-11-22T02:03:53.655Z</time>
      </trkpt>
      <trkpt lat="47.543760" lon="7.948548">
        <ele>299.636784</ele>
        <time>2021-11-22T02:03:55.898Z</time>
      </trkpt>
      <trkpt lat="47.543579" lon="7.948287">
        <ele>299.747386</ele>
        <time>2021-11-22T02:04:01.615Z</time>
      </trkpt>
      <trkpt lat="47.543532" lon="7.948214">
        <ele>299.777204</ele>
        <time>2021-11-22T02:04:02.741Z</time>
      </trkpt>
      <trkpt lat="47.543435" lon="7.948000">
        <ele>299.853396</ele>
        <time>2021-11-22T02:04:05.803Z</time>
      </trkpt>
      <trkpt lat="47.543407" lon="7.947938">
        <ele>299.875445</ele>
        <time>2021-11-22T02:04:07.661Z</time>
      </trkpt>
      <trkpt lat="47.543280" lon="7.947656">
        <ele>300.370849</ele>
        <time>2021-11-22T02:04:12.147Z</time>
      </trkpt>
      <trkpt lat="47.543142" lon="7.947250">
        <ele>301.175376</ele>
        <time>2021-11-22T02:04:19.611Z</time>
      </trkpt>
      <trkpt lat="47.543086" lon="7.947052">
        <ele>301.555330</ele>
        <time>2021-11-22T02:04:23.041Z</time>
      </trkpt>
      <trkpt lat="47.543056" lon="7.946935">
        <ele>301.776843</ele>
        <time>2021-11-22T02:04:25.882Z</time>
      </trkpt>
      <trkpt lat="47.543045" lon="7.946881">
        <ele>301.876674</ele>
        <time>2021-11-22T02:04:27.039Z</time>
      </trkpt>
      <trkpt lat="47.542982" lon="7.946547">
        <ele>302.490462</ele>
        <time>2021-11-22T02:04:32.438Z</time>
      </trkpt>
      <trkpt lat="47.542974" lon="7.946495">
        <ele>302.584857</ele>
        <time>2021-11-22T02:04:34.079Z</time>
      </trkpt>
      <trkpt lat="47.542960" lon="7.946400">
        <ele>302.756957</ele>
        <time>2021-11-22T02:04:36.145Z</time>
      </trkpt>
      <trkpt lat="47.542916" lon="7.945730">
        <ele>303.948384</ele>
        <time>2021-11-22T02:04:48.810Z</time>
      </trkpt>
      <trkpt lat="47.542913" lon="7.945267">
        <ele>304.691109</ele>
        <time>2021-11-22T02:04:57.306Z</time>
      </trkpt>
      <trkpt lat="47.543007" lon="7.943867">
        <ele>305.952336</ele>
        <time>2021-11-22T02:05:18.472Z</time>
      </trkpt>
      <trkpt lat="47.543161" lon="7.942213">
        <ele>306.688080</ele>
        <time>2021-11-22T02:05:36.879Z</time>
      </trkpt>
      <trkpt lat="47.543435" lon="7.940670">
        <ele>305.689724</ele>
        <time>2021-11-22T02:05:49.827Z</time>
      </trkpt>
      <trkpt lat="47.543826" lon="7.939433">
        <ele>304.379740</ele>
        <time>2021-11-22T02:06:00.228Z</time>
      </trkpt>
      <trkpt lat="47.544472" lon="7.937932">
        <ele>302.248726</ele>
        <time>2021-11-22T02:06:13.552Z</time>
      </trkpt>
      <trkpt lat="47.544705" lon="7.937395">
        <ele>301.525691</ele>
        <time>2021-11-22T02:06:18.391Z</time>
      </trkpt>
      <trkpt lat="47.544903" lon="7.936917">
        <ele>300.896240</ele>
        <time>2021-11-22T02:06:22.652Z</time>
      </trkpt>
      <trkpt lat="47.545074" lon="7.936484">
        <ele>300.333194</ele>
        <time>2021-11-22T02:06:26.483Z</time>
      </trkpt>
      <trkpt lat="47.545457" lon="7.935110">
        <ele>299.002656</ele>
        <time>2021-11-22T02:06:37.851Z</time>
      </trkpt>
      <trkpt lat="47.545674" lon="7.933625">
        <ele>298.477096</ele>
        <time>2021-11-22T02:06:50.931Z</time>
      </trkpt>
      <trkpt lat="47.545702" lon="7.933290">
        <ele>298.360335</ele>
        <time>2021-11-22T02:06:54.512Z</time>
      </trkpt>
      <trkpt lat="47.545724" lon="7.932758">
        <ele>298.413111</ele>
        <time>2021-11-22T02:07:00.778Z</time>
      </trkpt>
      <trkpt lat="47.545721" lon="7.931992">
        <ele>299.279981</ele>
        <time>2021-11-22T02:07:10.818Z</time>
      </trkpt>
      <trkpt lat="47.545696" lon="7.931497">
        <ele>299.841720</ele>
        <time>2021-11-22T02:07:18.023Z</time>
      </trkpt>
      <trkpt lat="47.545661" lon="7.930955">
        <ele>300.457883</ele>
        <time>2021-11-22T02:07:26.718Z</time>
      </trkpt>
      <trkpt lat="47.545563" lon="7.929641">
        <ele>301.543038</ele>
        <time>2021-11-22T02:07:49.058Z</time>
      </trkpt>
      <trkpt lat="47.545475" lon="7.928419">
        <ele>302.125451</ele>
        <time>2021-11-22T02:08:05.361Z</time>
      </trkpt>
      <trkpt lat="47.545421" lon="7.927686">
        <ele>302.474895</ele>
        <time>2021-11-22T02:08:11.464Z</time>
      </trkpt>
      <trkpt lat="47.545406" lon="7.927306">
        <ele>301.878129</ele>
        <time>2021-11-22T02:08:14.368Z</time>
      </trkpt>
      <trkpt lat="47.545407" lon="7.927001">
        <ele>301.250590</ele>
        <time>2021-11-22T02:08:16.655Z</time>
      </trkpt>
      <trkpt lat="47.545409" lon="7.926773">
        <ele>300.781445</ele>
        <time>2021-11-22T02:08:18.284Z</time>
      </trkpt>
      <trkpt lat="47.545417" lon="7.925848">
        <ele>298.878121</ele>
        <time>2021-11-22T02:08:24.619Z</time>
      </trkpt>
      <trkpt lat="47.545446" lon="7.925350">
        <ele>297.849692</ele>
        <time>2021-11-22T02:08:27.911Z</time>
      </trkpt>
      <trkpt lat="47.545466" lon="7.924880">
        <ele>296.878558</ele>
        <time>2021-11-22T02:08:30.964Z</time>
      </trkpt>
      <trkpt lat="47.545481" lon="7.924396">
        <ele>295.866736</ele>
        <time>2021-11-22T02:08:34.047Z</time>
      </trkpt>
      <trkpt lat="47.545521" lon="7.923709">
        <ele>294.426718</ele>
        <time>2021-11-22T02:08:38.573Z</time>
      </trkpt>
      <trkpt lat="47.545536" lon="7.923407">
        <ele>293.794334</ele>
        <time>2021-11-22T02:08:40.962Z</time>
      </trkpt>
      <trkpt lat="47.545553" lon="7.923142">
        <ele>293.238430</ele>
        <time>2021-11-22T02:08:42.683Z</time>
      </trkpt>
      <trkpt lat="47.545587" lon="7.922895">
        <ele>292.711995</ele>
        <time>2021-11-22T02:08:45.084Z</time>
      </trkpt>
      <trkpt lat="47.545641" lon="7.922610">
        <ele>292.093815</ele>
        <time>2021-11-22T02:08:47.083Z</time>
      </trkpt>
      <trkpt lat="47.545690" lon="7.922369">
        <ele>291.568191</ele>
        <time>2021-11-22T02:08:49.774Z</time>
      </trkpt>
      <trkpt lat="47.545699" lon="7.922325">
        <ele>291.472178</ele>
        <time>2021-11-22T02:08:50.035Z</time>
      </trkpt>
      <trkpt lat="47.545714" lon="7.922249">
        <ele>291.418783</ele>
        <time>2021-11-22T02:08:50.625Z</time>
      </trkpt>
      <trkpt lat="47.545778" lon="7.921947">
        <ele>291.232575</ele>
        <time>2021-11-22T02:08:53.781Z</time>
      </trkpt>
      <trkpt lat="47.545810" lon="7.921755">
        <ele>291.116235</ele>
        <time>2021-11-22T02:08:55.139Z</time>
      </trkpt>
      <trkpt lat="47.545881" lon="7.921096">
        <ele>290.723659</ele>
        <time>2021-11-22T02:09:00.487Z</time>
      </trkpt>
      <trkpt lat="47.545913" lon="7.920765">
        <ele>290.526955</ele>
        <time>2021-11-22T02:09:03.354Z</time>
      </trkpt>
      <trkpt lat="47.545973" lon="7.920313">
        <ele>290.255966</ele>
        <time>2021-11-22T02:09:08.502Z</time>
      </trkpt>
      <trkpt lat="47.546128" lon="7.919617">
        <ele>289.858908</ele>
        <time>2021-11-22T02:09:14.964Z</time>
      </trkpt>
      <trkpt lat="47.546262" lon="7.919081">
        <ele>289.685617</ele>
        <time>2021-11-22T02:09:20.963Z</time>
      </trkpt>
      <trkpt lat="47.546821" lon="7.916867">
        <ele>289.004246</ele>
        <time>2021-11-22T02:09:41.716Z</time>
      </trkpt>
      <trkpt lat="47.547032" lon="7.916218">
        <ele>288.850978</ele>
        <time>2021-11-22T02:09:48.207Z</time>
      </trkpt>
      <trkpt lat="47.547091" lon="7.916039">
        <ele>288.808595</ele>
        <time>2021-11-22T02:09:50.024Z</time>
      </trkpt>
      <trkpt lat="47.547113" lon="7.915971">
        <ele>288.792551</ele>
        <time>2021-11-22T02:09:50.623Z</time>
      </trkpt>
      <trkpt lat="47.547423" lon="7.915080">
        <ele>288.579276</ele>
        <time>2021-11-22T02:10:00.267Z</time>
      </trkpt>
      <trkpt lat="47.547994" lon="7.913433">
        <ele>289.099591</ele>
        <time>2021-11-22T02:10:19.987Z</time>
      </trkpt>
      <trkpt lat="47.548027" lon="7.913334">
        <ele>289.140213</ele>
        <time>2021-11-22T02:10:21.346Z</time>
      </trkpt>
      <trkpt lat="47.548412" lon="7.912168">
        <ele>289.744461</ele>
        <time>2021-11-22T02:10:37.749Z</time>
      </trkpt>
      <trkpt lat="47.549012" lon="7.910340">
        <ele>291.301664</ele>
        <time>2021-11-22T02:11:04.709Z</time>
      </trkpt>
      <trkpt lat="47.549102" lon="7.910058">
        <ele>291.540631</ele>
        <time>2021-11-22T02:11:08.831Z</time>
      </trkpt>
      <trkpt lat="47.549195" lon="7.909756">
        <ele>291.899450</ele>
        <time>2021-11-22T02:11:13.134Z</time>
      </trkpt>
      <trkpt lat="47.549290" lon="7.909441">
        <ele>292.273056</ele>
        <time>2021-11-22T02:11:17.596Z</time>
      </trkpt>
      <trkpt lat="47.549320" lon="7.909340">
        <ele>292.392548</ele>
        <time>2021-11-22T02:11:18.996Z</time>
      </trkpt>
      <trkpt lat="47.549520" lon="7.908678">
        <ele>293.177939</ele>
        <time>2021-11-22T02:11:28.424Z</time>
      </trkpt>
      <trkpt lat="47.549539" lon="7.908625">
        <ele>293.242924</ele>
        <time>2021-11-22T02:11:29.163Z</time>
      </trkpt>
      <trkpt lat="47.550497" lon="7.905558">
        <ele>298.467269</ele>
        <time>2021-11-22T02:12:24.046Z</time>
      </trkpt>
      <trkpt lat="47.550283" lon="7.905413">
        <ele>299.083533</ele>
        <time>2021-11-22T02:12:32.212Z</time>
      </trkpt>
      <trkpt lat="47.550067" lon="7.905245">
        <ele>299.989387</ele>
        <time>2021-11-22T02:12:40.898Z</time>
      </trkpt>
      <trkpt lat="47.549867" lon="7.905155">
        <ele>300.786954</ele>
        <time>2021-11-22T02:12:48.527Z</time>
      </trkpt>
      <trkpt lat="47.549868" lon="7.905010">
        <ele>301.160408</ele>
        <time>2021-11-22T02:12:51.932Z</time>
      </trkpt>
      <trkpt lat="47.550025" lon="7.904774">
        <ele>302.013812</ele>
        <time>2021-11-22T02:13:00.083Z</time>
      </trkpt>
      <trkpt lat="47.550302" lon="7.904164">
        <ele>303.907266</ele>
        <time>2021-11-22T02:13:18.382Z</time>
      </trkpt>
      <trkpt lat="47.550498" lon="7.903445">
        <ele>305.904296</ele>
        <time>2021-11-22T02:13:37.954Z</time>
      </trkpt>
      <trkpt lat="47.550688" lon="7.902451">
        <ele>308.513089</ele>
        <time>2021-11-22T02:14:00.502Z</time>
      </trkpt>
      <trkpt lat="47.550757" lon="7.901591">
        <ele>310.698422</ele>
        <time>2021-11-22T02:14:20.299Z</time>
      </trkpt>
      <trkpt lat="47.550769" lon="7.901362">
        <ele>311.278000</ele>
        <time>2021-11-22T02:14:26.207Z</time>
      </trkpt>
      <trkpt lat="47.550801" lon="7.900244">
        <ele>314.261391</ele>
        <time>2021-11-22T02:14:50.604Z</time>
      </trkpt>
      <trkpt lat="47.550819" lon="7.898109">
        <ele>320.253890</ele>
        <time>2021-11-22T02:15:37.644Z</time>
      </trkpt>
      <trkpt lat="47.550648" lon="7.896481">
        <ele>322.671345</ele>
        <time>2021-11-22T02:16:05.299Z</time>
      </trkpt>
      <trkpt lat="47.550639" lon="7.896345">
        <ele>322.871850</ele>
        <time>2021-11-22T02:16:07.675Z</time>
      </trkpt>
      <trkpt lat="47.550660" lon="7.896255">
        <ele>323.011572</ele>
        <time>2021-11-22T02:16:08.475Z</time>
      </trkpt>
      <trkpt lat="47.550838" lon="7.895509">
        <ele>324.163198</ele>
        <time>2021-11-22T02:16:18.643Z</time>
      </trkpt>
      <trkpt lat="47.550878" lon="7.895158">
        <ele>324.529601</ele>
        <time>2021-11-22T02:16:22.706Z</time>
      </trkpt>
      <trkpt lat="47.550908" lon="7.894308">
        <ele>325.405714</ele>
        <time>2021-11-22T02:16:33.178Z</time>
      </trkpt>
      <trkpt lat="47.550892" lon="7.893176">
        <ele>326.571154</ele>
        <time>2021-11-22T02:16:47.895Z</time>
      </trkpt>
      <trkpt lat="47.550904" lon="7.891725">
        <ele>330.688969</ele>
        <time>2021-11-22T02:17:17.657Z</time>
      </trkpt>
      <trkpt lat="47.550915" lon="7.890600">
        <ele>334.421408</ele>
        <time>2021-11-22T02:17:46.497Z</time>
      </trkpt>
      <trkpt lat="47.550833" lon="7.889069">
        <ele>340.541755</ele>
        <time>2021-11-22T02:18:29.131Z</time>
      </trkpt>
      <trkpt lat="47.550831" lon="7.888611">
        <ele>342.472094</ele>
        <time>2021-11-22T02:18:41.701Z</time>
      </trkpt>
      <trkpt lat="47.550789" lon="7.887816">
        <ele>345.832973</ele>
        <time>2021-11-22T02:19:02.313Z</time>
      </trkpt>
      <trkpt lat="47.550758" lon="7.887295">
        <ele>347.896915</ele>
        <time>2021-11-22T02:19:16.134Z</time>
      </trkpt>
      <trkpt lat="47.550677" lon="7.886476">
        <ele>350.932429</ele>
        <time>2021-11-22T02:19:37.623Z</time>
      </trkpt>
      <trkpt lat="47.550548" lon="7.885799">
        <ele>353.512173</ele>
        <time>2021-11-22T02:19:54.826Z</time>
      </trkpt>
      <trkpt lat="47.550391" lon="7.885109">
        <ele>356.182476</ele>
        <time>2021-11-22T02:20:12.464Z</time>
      </trkpt>
      <trkpt lat="47.550332" lon="7.884727">
        <ele>357.380119</ele>
        <time>2021-11-22T02:20:21.154Z</time>
      </trkpt>
      <trkpt lat="47.550234" lon="7.883221">
        <ele>361.436506</ele>
        <time>2021-11-22T02:20:53.986Z</time>
      </trkpt>
      <trkpt lat="47.549927" lon="7.881490">
        <ele>366.143972</ele>
        <time>2021-11-22T02:21:26.249Z</time>
      </trkpt>
      <trkpt lat="47.549726" lon="7.880786">
        <ele>368.114389</ele>
        <time>2021-11-22T02:21:42.226Z</time>
      </trkpt>
      <trkpt lat="47.549327" lon="7.879547">
        <ele>371.649501</ele>
        <time>2021-11-22T02:22:12.010Z</time>
      </trkpt>
      <trkpt lat="47.549318" lon="7.879398">
        <ele>372.033581</ele>
        <time>2021-11-22T02:22:15.198Z</time>
      </trkpt>
      <trkpt lat="47.549140" lon="7.879391">
        <ele>372.710914</ele>
        <time>2021-11-22T02:22:22.069Z</time>
      </trkpt>
      <trkpt lat="47.548718" lon="7.879258">
        <ele>374.352079</ele>
        <time>2021-11-22T02:22:35.739Z</time>
      </trkpt>
      <trkpt lat="47.548422" lon="7.878959">
        <ele>375.714838</ele>
        <time>2021-11-22T02:22:46.386Z</time>
      </trkpt>
      <trkpt lat="47.548234" lon="7.878638">
        <ele>376.806018</ele>
        <time>2021-11-22T02:22:54.818Z</time>
      </trkpt>
      <trkpt lat="47.547992" lon="7.877974">
        <ele>377.528928</ele>
        <time>2021-11-22T02:23:07.916Z</time>
      </trkpt>
      <trkpt lat="47.547574" lon="7.876801">
        <ele>377.364019</ele>
        <time>2021-11-22T02:23:21.679Z</time>
      </trkpt>
      <trkpt lat="47.547126" lon="7.875801">
        <ele>376.307824</ele>
        <time>2021-11-22T02:23:30.461Z</time>
      </trkpt>
      <trkpt lat="47.546309" lon="7.874154">
        <ele>370.133128</ele>
        <time>2021-11-22T02:23:43.650Z</time>
      </trkpt>
      <trkpt lat="47.546135" lon="7.873859">
        <ele>369.203694</ele>
        <time>2021-11-22T02:23:46.032Z</time>
      </trkpt>
      <trkpt lat="47.546077" lon="7.873763">
        <ele>369.203694</ele>
        <time>2021-11-22T02:23:46.843Z</time>
      </trkpt>
      <trkpt lat="47.545934" lon="7.873549">
        <ele>369.203694</ele>
        <time>2021-11-22T02:23:48.658Z</time>
      </trkpt>
      <trkpt lat="47.545746" lon="7.873302">
        <ele>369.203694</ele>
        <time>2021-11-22T02:23:50.973Z</time>
      </trkpt>
      <trkpt lat="47.545515" lon="7.873015">
        <ele>369.203694</ele>
        <time>2021-11-22T02:23:53.724Z</time>
      </trkpt>
      <trkpt lat="47.545478" lon="7.872968">
        <ele>369.203694</ele>
        <time>2021-11-22T02:23:54.180Z</time>
      </trkpt>
      <trkpt lat="47.545375" lon="7.872836">
        <ele>369.203694</ele>
        <time>2021-11-22T02:23:55.401Z</time>
      </trkpt>
      <trkpt lat="47.545131" lon="7.872664">
        <ele>369.203694</ele>
        <time>2021-11-22T02:23:57.957Z</time>
      </trkpt>
      <trkpt lat="47.544883" lon="7.872555">
        <ele>369.203694</ele>
        <time>2021-11-22T02:24:00.383Z</time>
      </trkpt>
      <trkpt lat="47.544449" lon="7.872438">
        <ele>369.203694</ele>
        <time>2021-11-22T02:24:04.642Z</time>
      </trkpt>
    </trkseg>
  </trk>
</gpx>